[[{"header":{"parameterUnit":"m.s-1","parameterCategory":1,"la1":31.0,"la2":29.5877,"lo1":-88.7671,"lo2":-86.6584,"dy":0.0162,"dx":0.0185,"nx":115,"ny":88,"refTime":"2024-05-31T06:00:00:Z","depth":0,"parameterNumber":2,"parameterNumberName":"U-component_of_WINDS"},"data":[0.0,0.0,0.0,0.0,0.0,0.0,0.0,0.0,0.0,0.0,0.0,0.0,0.0,0.0,0.0,0.0,0.0,0.0,0.0,0.0,0.0,0.0,0.0,0.0,0.0,0.0,0.0,0.0,0.0,0.0,0.0,0.0,0.0,0.0,0.0,0.0,0.0,0.0,0.0,0.0,0.0,0.0,0.0,0.0,0.0,0.0,0.0,0.0,0.0,0.0,0.0,0.0,0.0,0.0,0.0,0.0,0.0,0.0,0.0,0.0,0.0,0.0,0.0,0.0,0.0,0.0,0.0,0.0,0.0,0.0,0.0,0.0,0.0,0.0,0.0,0.0,0.0,0.0,0.0,0.0,0.0,0.0,0.0,0.0,0.0,0.0,0.0,0.0,0.0,0.0,0.0,0.0,0.0,0.0,0.0,0.0,0.0,0.0,0.0,0.0,0.0,0.0,0.0,0.0,0.0,0.0,0.0,0.0,0.0,0.0,0.0,0.0,0.0,0.0,0.0,0.0,0.0,0.0,0.0,0.0,0.0,0.0,0.0,0.0,0.0,0.0,0.0,0.0,0.0,0.0,0.0,0.0,0.0,0.0,0.0,0.0,0.0,0.0,0.0,0.0,0.0,0.0,0.0,0.0,0.0,0.0,0.0,0.0,0.0,0.0,0.0,0.0,0.0,0.0,0.0,0.0,0.0,0.0,0.0,0.0,0.0,0.0,0.0,0.0,0.0,0.0,0.0,0.0,0.0,0.0,0.0,0.0,0.0,0.0,0.0,0.0,0.0,0.0,0.0,0.0,0.0,0.0,0.0,0.0,0.0,0.0,0.0,0.0,0.0,0.0,0.0,0.0,0.0,0.0,0.0,0.0,0.0,0.0,0.0,0.0,0.0,0.0,0.0,0.0,0.0,0.0,0.0,0.0,0.0,0.0,0.0,0.0,0.0,0.0,0.0,0.0,0.0,0.0,0.0,0.0,0.0,0.0,0.0,0.0,0.0,0.0,0.0,0.0,0.0,0.0,0.0,0.0,0.0,0.0,0.0,0.0,0.0,0.0,0.0,0.0,0.0,0.0,0.0,0.0,0.0,0.0,0.0,0.0,0.0,0.0,0.0,0.0,0.0,0.0,0.0,0.0,0.0,0.0,0.0,0.0,0.0,0.0,0.0,0.0,0.0,0.0,0.0,0.0,0.0,0.0,0.0,0.0,0.0,0.0,0.0,0.0,0.0,0.0,0.0,0.0,0.0,0.0,0.0,0.0,0.0,0.0,0.0,0.0,0.0,0.0,0.0,0.0,0.0,0.0,0.0,0.0,0.0,0.0,0.0,0.0,0.0,0.0,0.0,0.0,0.0,0.0,0.0,0.0,0.0,0.0,0.0,0.0,0.0,0.0,0.0,0.0,0.0,0.0,0.0,0.0,0.0,0.0,0.0,0.0,0.0,0.0,0.0,0.0,0.0,0.0,0.0,0.0,0.0,0.0,0.0,0.0,0.0,0.0,0.0,0.0,0.0,0.0,0.0,0.0,0.0,0.0,0.0,0.0,0.0,0.0,0.0,0.0,0.0,0.0,0.0,0.0,0.0,0.0,0.0,0.0,0.0,0.0,0.0,0.0,0.0,0.0,0.0,0.0,0.0,0.0,0.0,0.0,0.0,0.0,0.0,0.0,0.0,0.0,0.0,0.0,0.0,0.0,0.0,0.0,0.0,0.0,0.0,0.0,0.0,0.0,0.0,0.0,0.0,0.0,0.0,0.0,0.0,0.0,0.0,0.0,0.0,0.0,0.0,0.0,0.0,0.0,0.0,0.0,0.0,0.0,0.0,0.0,0.0,0.0,0.0,0.0,0.0,0.0,0.0,0.0,0.0,0.0,0.0,0.0,0.0,0.0,0.0,0.0,0.0,0.0,0.0,0.0,0.0,0.0,0.0,0.0,0.0,0.0,0.0,0.0,0.0,0.0,0.0,0.0,0.0,0.0,0.0,0.0,0.0,0.0,0.0,0.0,0.0,0.0,0.0,0.0,0.0,0.0,0.0,0.0,0.0,0.0,0.0,0.0,0.0,0.0,0.0,0.0,0.0,0.0,0.0,0.0,0.0,0.0,0.0,0.0,0.0,0.0,0.0,0.0,0.0,0.0,0.0,0.0,0.0,0.0,0.0,0.0,0.0,0.0,0.0,0.0,0.0,0.0,0.0,0.0,0.0,0.0,0.0,0.0,0.0,0.0,0.0,0.0,0.0,0.0,0.0,0.0,0.0,0.0,0.0,0.0,0.0,0.0,0.0,0.0,0.0,0.0,0.0,0.0,0.0,0.0,0.0,0.0,0.0,0.0,0.0,0.0,0.0,0.0,0.0,0.0,0.0,0.0,0.0,0.0,0.0,0.0,0.0,0.0,0.0,0.0,0.0,0.0,0.0,0.0,0.0,0.0,0.0,0.0,0.0,0.0,0.0,0.0,0.0,0.0,0.0,0.0,0.0,0.0,0.0,0.0,0.0,0.0,0.0,0.0,0.0,0.0,0.0,0.0,0.0,0.0,0.0,0.0,0.0,0.0,0.0,0.0,0.0,0.0,0.0,0.0,0.0,0.0,0.0,0.0,0.0,0.0,0.0,0.0,0.0,0.0,0.0,0.0,0.0,0.0,0.0,0.0,0.0,0.0,0.0,0.0,0.0,0.0,0.0,0.0,0.0,0.0,0.0,0.0,0.0,0.0,0.0,0.0,0.0,0.0,0.0,0.0,0.0,0.0,0.0,0.0,0.0,0.0,0.0,0.0,0.0,0.0,0.0,0.0,0.0,0.0,0.0,0.0,0.0,0.0,0.0,0.0,0.0,0.0,0.0,0.0,0.0,0.0,0.0,0.0,0.0,0.0,0.0,0.0,0.0,0.0,0.0,0.0,0.0,0.0,0.0,0.0,0.0,0.0,0.0,0.0,0.0,0.0,0.0,0.0,0.0,0.0,0.0,0.0,0.0,0.0,0.0,0.0,0.0,0.0,0.0,0.0,0.0,0.0,0.0,0.0,0.0,0.0,0.0,0.0,0.0,0.0,0.0,0.0,0.0,0.0,0.0,0.0,0.0,0.0,0.0,0.0,0.0,0.0,0.0,0.0,0.0,0.0,0.0,0.0,0.0,0.0,0.0,0.0,0.0,0.0,0.0,0.0,0.0,0.0,0.0,0.0,0.0,0.0,0.0,0.0,0.0,0.0,0.0,0.0,0.0,0.0,0.0,0.0,0.0,0.0,0.0,0.0,0.0,0.0,0.0,0.0,0.0,0.0,0.0,0.0,0.0,0.0,0.0,0.0,0.0,0.0,0.0,0.0,0.0,0.0,0.0,0.0,0.0,0.0,0.0,0.0,0.0,0.0,0.0,0.0,0.0,0.0,0.0,0.0,0.0,0.0,0.0,0.0,0.0,0.0,0.0,0.0,0.0,0.0,0.0,0.0,0.0,0.0,0.0,0.0,0.0,0.0,0.0,0.0,0.0,0.0,0.0,0.0,0.0,0.0,0.0,0.0,0.0,0.0,0.0,0.0,0.0,0.0,0.0,0.0,0.0,0.0,0.0,0.0,0.0,0.0,0.0,0.0,0.0,0.0,0.0,0.0,0.0,0.0,0.0,0.0,0.0,0.0,0.0,0.0,0.0,0.0,0.0,0.0,0.0,0.0,0.0,0.0,0.0,0.0,0.0,0.0,0.0,0.0,0.0,0.0,0.0,0.0,0.0,0.0,0.0,0.0,0.0,0.0,0.0,0.0,0.0,0.0,0.0,0.0,0.0,0.0,0.0,0.0,0.0,0.0,0.0,0.0,0.0,0.0,0.0,0.0,0.0,0.0,0.0,0.0,0.0,0.0,0.0,0.0,0.0,0.0,0.0,0.0,0.0,0.0,0.0,0.0,0.0,0.0,0.0,0.0,0.0,0.0,0.0,0.0,0.0,0.0,0.0,0.0,0.0,0.0,0.0,0.0,0.0,0.0,0.0,0.0,0.0,0.0,0.0,0.0,0.0,0.0,0.0,0.0,0.0,0.0,0.0,0.0,0.0,0.0,0.0,0.0,0.0,0.0,0.0,0.0,0.0,0.0,0.0,0.0,0.0,0.0,0.0,0.0,0.0,0.0,0.0,0.0,0.0,0.0,0.0,0.0,0.0,0.0,0.0,0.0,0.0,0.0,0.0,0.0,0.0,0.0,0.0,0.0,0.0,0.0,0.0,0.0,0.0,0.0,0.0,0.0,0.0,0.0,0.0,0.0,0.0,0.0,0.0,0.0,0.0,0.0,-1.9751,0.0,0.0,0.0,0.0,0.0,0.0,0.0,0.0,0.0,0.0,0.0,0.0,0.0,0.0,0.0,0.0,0.0,0.0,0.0,0.0,0.0,0.0,0.0,0.0,0.0,0.0,0.0,0.0,0.0,0.0,0.0,0.0,0.0,0.0,0.0,0.0,0.0,0.0,0.0,0.0,0.0,0.0,0.0,0.0,0.0,0.0,0.0,0.0,0.0,0.0,0.0,0.0,0.0,0.0,0.0,0.0,0.0,0.0,0.0,0.0,0.0,0.0,0.0,0.0,0.0,0.0,0.0,0.0,0.0,0.0,0.0,0.0,0.0,0.0,0.0,0.0,0.0,0.0,0.0,0.0,0.0,0.0,0.0,0.0,0.0,0.0,0.0,0.0,0.0,0.0,0.0,0.0,0.0,0.0,0.0,0.0,0.0,0.0,0.0,0.0,0.0,0.0,0.0,0.0,0.0,0.0,0.0,0.0,0.0,0.0,-2.3309,-2.2074,-2.1188,-2.0608,-2.0138,0.0,0.0,0.0,0.0,0.0,0.0,0.0,0.0,0.0,0.0,0.0,0.0,0.0,0.0,0.0,0.0,0.0,0.0,0.0,0.0,0.0,0.0,0.0,0.0,0.0,0.0,0.0,0.0,0.0,0.0,0.0,0.0,0.0,0.0,0.0,0.0,0.0,0.0,0.0,0.0,0.0,0.0,0.0,0.0,0.0,0.0,0.0,0.0,0.0,0.0,0.0,0.0,0.0,0.0,0.0,0.0,0.0,0.0,0.0,0.0,0.0,0.0,0.0,0.0,0.0,0.0,0.0,0.0,0.0,0.0,0.0,0.0,0.0,0.0,0.0,0.0,0.0,0.0,0.0,0.0,0.0,0.0,0.0,0.0,0.0,0.0,0.0,0.0,0.0,0.0,0.0,0.0,0.0,0.0,0.0,0.0,0.0,0.0,0.0,0.0,0.0,0.0,0.0,0.0,0.0,0.0,0.0,0.0,0.0,0.0,0.0,0.0,-2.1816,-2.1188,-2.0469,0.0,0.0,0.0,0.0,0.0,0.0,0.0,0.0,0.0,0.0,0.0,0.0,0.0,0.0,0.0,0.0,0.0,0.0,0.0,0.0,0.0,0.0,0.0,0.0,0.0,0.0,0.0,0.0,0.0,0.0,0.0,0.0,0.0,0.0,0.0,0.0,0.0,0.0,0.0,0.0,0.0,0.0,0.0,0.0,0.0,0.0,0.0,0.0,0.0,0.0,0.0,0.0,0.0,0.0,0.0,0.0,0.0,0.0,0.0,0.0,0.0,0.0,0.0,0.0,0.0,0.0,0.0,0.0,0.0,0.0,0.0,0.0,0.0,0.0,0.0,0.0,0.0,0.0,0.0,0.0,0.0,0.0,0.0,0.0,0.0,0.0,0.0,0.0,0.0,0.0,0.0,0.0,0.0,0.0,0.0,0.0,0.0,0.0,0.0,0.0,0.0,0.0,0.0,0.0,0.0,0.0,0.0,0.0,0.0,0.0,-2.3039,-2.2761,-2.2698,0.0,-2.0959,0.0,0.0,0.0,0.0,0.0,0.0,0.0,0.0,0.0,0.0,0.0,0.0,0.0,0.0,0.0,0.0,0.0,0.0,0.0,0.0,0.0,0.0,0.0,0.0,0.0,0.0,0.0,0.0,0.0,0.0,0.0,0.0,0.0,0.0,0.0,0.0,0.0,0.0,0.0,0.0,0.0,0.0,0.0,0.0,0.0,0.0,0.0,0.0,0.0,0.0,0.0,0.0,0.0,0.0,0.0,0.0,0.0,0.0,0.0,0.0,0.0,0.0,0.0,0.0,0.0,0.0,0.0,0.0,0.0,0.0,0.0,0.0,0.0,0.0,0.0,0.0,0.0,0.0,0.0,0.0,0.0,0.0,0.0,0.0,0.0,0.0,0.0,0.0,0.0,0.0,0.0,0.0,0.0,0.0,0.0,0.0,0.0,0.0,0.0,0.0,0.0,0.0,0.0,0.0,0.0,0.0,0.0,0.0,0.0,0.0,-2.2955,-2.3382,-2.2678,-2.1726,0.0,0.0,0.0,0.0,0.0,0.0,0.0,0.0,0.0,0.0,0.0,0.0,0.0,0.0,0.0,0.0,0.0,0.0,0.0,0.0,0.0,0.0,0.0,0.0,0.0,0.0,0.0,0.0,0.0,0.0,0.0,0.0,0.0,0.0,0.0,0.0,0.0,0.0,0.0,0.0,0.0,0.0,0.0,0.0,0.0,0.0,0.0,0.0,0.0,0.0,0.0,0.0,0.0,0.0,0.0,0.0,0.0,0.0,0.0,0.0,0.0,0.0,0.0,0.0,0.0,0.0,0.0,0.0,0.0,0.0,0.0,0.0,0.0,0.0,0.0,0.0,0.0,0.0,0.0,0.0,0.0,0.0,0.0,0.0,0.0,0.0,0.0,0.0,0.0,0.0,0.0,0.0,0.0,0.0,0.0,0.0,0.0,0.0,0.0,0.0,0.0,0.0,0.0,0.0,0.0,0.0,0.0,0.0,0.0,0.0,-2.2578,0.0,-2.3691,-2.2673,-2.1509,-2.042,0.0,0.0,0.0,0.0,0.0,0.0,0.0,0.0,0.0,0.0,0.0,0.0,0.0,0.0,0.0,0.0,0.0,0.0,0.0,0.0,0.0,0.0,0.0,0.0,0.0,0.0,0.0,0.0,0.0,0.0,0.0,0.0,0.0,0.0,0.0,0.0,0.0,0.0,0.0,0.0,0.0,0.0,0.0,0.0,0.0,0.0,0.0,0.0,0.0,0.0,0.0,0.0,0.0,0.0,0.0,0.0,0.0,0.0,0.0,0.0,0.0,0.0,0.0,0.0,0.0,0.0,0.0,0.0,0.0,0.0,0.0,0.0,0.0,0.0,0.0,0.0,0.0,0.0,0.0,0.0,0.0,0.0,0.0,0.0,0.0,0.0,0.0,0.0,0.0,0.0,0.0,0.0,0.0,0.0,0.0,0.0,0.0,0.0,0.0,0.0,0.0,0.0,0.0,0.0,0.0,0.0,0.0,0.0,0.0,-2.2715,-2.293,-2.3769,-2.2872,-2.1792,0.0,0.0,0.0,0.0,0.0,0.0,0.0,0.0,0.0,0.0,0.0,0.0,0.0,0.0,0.0,0.0,0.0,0.0,0.0,0.0,0.0,0.0,0.0,0.0,0.0,0.0,0.0,0.0,0.0,0.0,0.0,0.0,0.0,0.0,0.0,0.0,0.0,0.0,0.0,0.0,0.0,0.0,0.0,0.0,0.0,0.0,0.0,0.0,0.0,0.0,0.0,0.0,0.0,0.0,0.0,0.0,0.0,0.0,0.0,0.0,0.0,0.0,0.0,0.0,0.0,0.0,0.0,0.0,0.0,0.0,0.0,0.0,0.0,0.0,0.0,0.0,0.0,0.0,0.0,0.0,0.0,0.0,0.0,0.0,0.0,0.0,0.0,0.0,0.0,0.0,0.0,0.0,0.0,0.0,0.0,0.0,0.0,0.0,0.0,0.0,0.0,0.0,0.0,0.0,0.0,0.0,0.0,0.0,0.0,-2.2324,-2.2715,-2.3368,-2.4233,-2.2351,-2.1112,0.0,0.0,0.0,0.0,0.0,0.0,0.0,0.0,0.0,0.0,0.0,0.0,0.0,0.0,0.0,0.0,0.0,0.0,0.0,0.0,0.0,0.0,0.0,0.0,0.0,0.0,0.0,0.0,0.0,0.0,0.0,0.0,0.0,0.0,0.0,0.0,0.0,0.0,0.0,0.0,0.0,0.0,0.0,0.0,0.0,0.0,0.0,0.0,0.0,0.0,0.0,0.0,0.0,0.0,0.0,0.0,0.0,0.0,0.0,0.0,0.0,0.0,0.0,0.0,0.0,0.0,0.0,0.0,0.0,0.0,0.0,0.0,0.0,0.0,0.0,0.0,0.0,0.0,0.0,0.0,0.0,0.0,0.0,0.0,0.0,0.0,0.0,0.0,0.0,0.0,0.0,0.0,0.0,0.0,0.0,0.0,0.0,0.0,0.0,0.0,0.0,0.0,0.0,0.0,0.0,0.0,0.0,0.0,0.0,-2.2305,0.0,-2.3712,0.0,-2.2212,-2.09,0.0,0.0,0.0,0.0,0.0,0.0,0.0,0.0,0.0,0.0,0.0,0.0,0.0,0.0,0.0,0.0,0.0,0.0,0.0,0.0,0.0,0.0,0.0,0.0,0.0,0.0,0.0,0.0,0.0,0.0,0.0,0.0,0.0,0.0,0.0,0.0,0.0,0.0,0.0,0.0,0.0,0.0,0.0,0.0,0.0,0.0,0.0,0.0,0.0,0.0,0.0,0.0,0.0,0.0,0.0,0.0,0.0,0.0,0.0,0.0,0.0,0.0,0.0,0.0,0.0,0.0,0.0,0.0,0.0,0.0,0.0,0.0,0.0,0.0,0.0,0.0,0.0,0.0,0.0,0.0,0.0,0.0,0.0,0.0,0.0,0.0,0.0,0.0,0.0,0.0,0.0,0.0,0.0,0.0,0.0,0.0,0.0,0.0,0.0,0.0,0.0,0.0,0.0,0.0,0.0,0.0,0.0,0.0,-2.1839,-2.3144,-2.3945,-2.3868,-2.2871,-2.2492,-2.1292,0.0,0.0,0.0,0.0,0.0,0.0,0.0,0.0,0.0,0.0,0.0,0.0,0.0,0.0,0.0,0.0,0.0,0.0,0.0,0.0,0.0,0.0,0.0,0.0,0.0,0.0,0.0,0.0,0.0,0.0,0.0,0.0,0.0,0.0,0.0,0.0,0.0,0.0,0.0,0.0,0.0,0.0,0.0,0.0,0.0,0.0,0.0,0.0,0.0,0.0,0.0,0.0,0.0,0.0,0.0,0.0,0.0,0.0,0.0,0.0,0.0,0.0,0.0,0.0,0.0,0.0,0.0,0.0,0.0,0.0,0.0,0.0,0.0,0.0,0.0,0.0,0.0,0.0,0.0,0.0,0.0,0.0,0.0,0.0,0.0,0.0,0.0,0.0,0.0,0.0,0.0,0.0,0.0,0.0,0.0,0.0,0.0,0.0,0.0,0.0,0.0,0.0,0.0,0.0,0.0,0.0,0.0,0.0,0.0,-2.312,-2.3313,-2.3591,-2.3765,-2.1913,-2.0722,0.0,0.0,0.0,0.0,0.0,0.0,0.0,0.0,0.0,0.0,0.0,0.0,0.0,0.0,0.0,0.0,0.0,0.0,0.0,0.0,0.0,0.0,0.0,0.0,0.0,0.0,0.0,0.0,0.0,0.0,0.0,0.0,0.0,0.0,0.0,0.0,0.0,0.0,0.0,0.0,0.0,0.0,0.0,0.0,0.0,0.0,0.0,0.0,0.0,0.0,0.0,0.0,0.0,0.0,0.0,0.0,0.0,0.0,0.0,0.0,0.0,0.0,0.0,0.0,0.0,0.0,0.0,0.0,0.0,0.0,0.0,0.0,0.0,0.0,0.0,0.0,0.0,0.0,0.0,0.0,0.0,0.0,0.0,0.0,0.0,0.0,0.0,0.0,0.0,0.0,0.0,0.0,0.0,0.0,0.0,0.0,0.0,0.0,0.0,0.0,0.0,0.0,0.0,0.0,0.0,0.0,0.0,0.0,0.0,-2.3822,-2.3863,-2.3909,-2.3928,-2.2094,-2.112,-2.1071,0.0,0.0,0.0,0.0,0.0,0.0,0.0,0.0,0.0,0.0,0.0,0.0,0.0,0.0,0.0,0.0,0.0,0.0,0.0,0.0,0.0,0.0,0.0,0.0,0.0,0.0,0.0,0.0,0.0,0.0,0.0,0.0,0.0,0.0,0.0,0.0,0.0,0.0,0.0,0.0,0.0,0.0,0.0,0.0,0.0,0.0,0.0,0.0,0.0,0.0,0.0,0.0,0.0,0.0,0.0,0.0,0.0,0.0,0.0,0.0,0.0,0.0,0.0,0.0,0.0,0.0,0.0,0.0,0.0,0.0,0.0,0.0,0.0,0.0,0.0,0.0,0.0,0.0,0.0,0.0,0.0,0.0,0.0,0.0,0.0,0.0,0.0,0.0,0.0,0.0,0.0,0.0,0.0,0.0,0.0,0.0,0.0,0.0,0.0,0.0,0.0,0.0,0.0,0.0,0.0,0.0,0.0,0.0,-2.5059,-2.5199,-2.4659,-2.3458,-2.2926,-2.2195,0.0,0.0,0.0,0.0,0.0,0.0,0.0,0.0,0.0,0.0,0.0,0.0,0.0,0.0,0.0,0.0,0.0,0.0,0.0,0.0,0.0,0.0,0.0,0.0,0.0,0.0,0.0,0.0,0.0,0.0,0.0,0.0,0.0,0.0,0.0,0.0,0.0,0.0,0.0,0.0,0.0,0.0,0.0,0.0,0.0,0.0,0.0,0.0,0.0,0.0,0.0,0.0,0.0,0.0,0.0,0.0,0.0,0.0,0.0,0.0,0.0,0.0,0.0,0.0,0.0,0.0,0.0,0.0,0.0,0.0,0.0,0.0,0.0,0.0,0.0,0.0,0.0,0.0,0.0,0.0,0.0,0.0,0.0,0.0,0.0,0.0,0.0,0.0,0.0,0.0,0.0,0.0,0.0,0.0,0.0,0.0,0.0,0.0,0.0,0.0,0.0,0.0,0.0,0.0,0.0,0.0,0.0,0.0,0.0,-2.4526,-2.483,-2.4827,-2.4485,-2.3131,-2.2272,0.0,0.0,0.0,0.0,0.0,0.0,0.0,0.0,0.0,0.0,0.0,0.0,0.0,0.0,0.0,0.0,0.0,0.0,0.0,0.0,0.0,0.0,0.0,0.0,0.0,0.0,0.0,0.0,0.0,0.0,0.0,0.0,0.0,0.0,0.0,0.0,0.0,0.0,0.0,0.0,0.0,0.0,0.0,0.0,0.0,0.0,0.0,0.0,0.0,0.0,0.0,0.0,0.0,0.0,0.0,0.0,0.0,0.0,0.0,0.0,0.0,0.0,0.0,0.0,0.0,0.0,0.0,0.0,0.0,0.0,0.0,0.0,0.0,0.0,0.0,0.0,0.0,0.0,0.0,0.0,0.0,0.0,0.0,0.0,0.0,0.0,0.0,0.0,0.0,0.0,0.0,0.0,0.0,0.0,0.0,0.0,0.0,0.0,0.0,0.0,0.0,0.0,0.0,0.0,0.0,0.0,0.0,0.0,-2.5363,-2.4745,-2.4876,-2.4824,-2.4726,-2.3695,-2.2923,0.0,0.0,0.0,0.0,0.0,0.0,0.0,0.0,0.0,0.0,0.0,0.0,0.0,0.0,0.0,0.0,0.0,0.0,0.0,0.0,0.0,0.0,0.0,0.0,0.0,0.0,0.0,0.0,0.0,0.0,0.0,0.0,0.0,0.0,0.0,0.0,0.0,0.0,0.0,0.0,0.0,0.0,0.0,0.0,0.0,0.0,0.0,0.0,0.0,0.0,0.0,0.0,0.0,0.0,0.0,0.0,0.0,0.0,0.0,0.0,0.0,0.0,0.0,0.0,0.0,0.0,0.0,0.0,0.0,0.0,0.0,0.0,0.0,0.0,0.0,0.0,0.0,0.0,0.0,0.0,0.0,0.0,0.0,0.0,0.0,0.0,0.0,0.0,0.0,0.0,0.0,0.0,0.0,0.0,0.0,0.0,0.0,0.0,0.0,0.0,0.0,0.0,0.0,0.0,0.0,0.0,0.0,0.0,-2.5586,-2.5284,-2.499,-2.4745,-2.448,-2.4264,-2.3749,0.0,0.0,0.0,0.0,0.0,0.0,0.0,0.0,0.0,0.0,0.0,0.0,0.0,0.0,0.0,0.0,0.0,0.0,0.0,0.0,0.0,0.0,0.0,0.0,0.0,0.0,0.0,0.0,0.0,0.0,0.0,0.0,0.0,0.0,0.0,0.0,0.0,0.0,0.0,0.0,0.0,0.0,0.0,0.0,0.0,0.0,0.0,0.0,0.0,0.0,0.0,0.0,0.0,0.0,0.0,0.0,0.0,0.0,0.0,0.0,0.0,0.0,0.0,0.0,0.0,0.0,0.0,0.0,0.0,0.0,0.0,0.0,0.0,0.0,0.0,0.0,0.0,0.0,0.0,0.0,0.0,0.0,0.0,0.0,0.0,0.0,0.0,0.0,0.0,0.0,0.0,0.0,0.0,0.0,0.0,0.0,0.0,0.0,0.0,0.0,0.0,0.0,0.0,0.0,0.0,0.0,0.0,0.0,-2.563,-2.499,-2.4745,-2.448,-2.4301,-2.3889,-2.3535,0.0,0.0,0.0,0.0,0.0,0.0,0.0,0.0,0.0,0.0,0.0,0.0,0.0,0.0,0.0,0.0,0.0,0.0,0.0,0.0,0.0,0.0,0.0,0.0,0.0,0.0,0.0,0.0,0.0,0.0,0.0,0.0,0.0,0.0,0.0,0.0,0.0,0.0,0.0,0.0,0.0,0.0,0.0,0.0,0.0,0.0,0.0,0.0,-2.3693,0.0,0.0,0.0,0.0,0.0,0.0,0.0,0.0,0.0,0.0,0.0,0.0,0.0,0.0,0.0,0.0,0.0,0.0,0.0,0.0,0.0,0.0,0.0,0.0,0.0,0.0,0.0,0.0,0.0,0.0,0.0,0.0,0.0,0.0,0.0,0.0,0.0,0.0,0.0,0.0,0.0,0.0,0.0,0.0,0.0,0.0,0.0,0.0,0.0,0.0,0.0,0.0,0.0,0.0,0.0,0.0,0.0,0.0,0.0,-2.5557,-2.4763,-2.4578,-2.4332,-2.4035,-2.3785,-2.3444,0.0,0.0,0.0,0.0,0.0,0.0,0.0,0.0,0.0,0.0,0.0,0.0,0.0,0.0,0.0,0.0,0.0,0.0,0.0,0.0,0.0,0.0,0.0,0.0,0.0,0.0,0.0,0.0,0.0,0.0,0.0,0.0,0.0,0.0,0.0,0.0,0.0,0.0,0.0,0.0,0.0,0.0,0.0,0.0,0.0,0.0,0.0,0.0,0.0,0.0,0.0,0.0,0.0,0.0,0.0,0.0,0.0,0.0,0.0,0.0,0.0,0.0,0.0,0.0,0.0,0.0,0.0,0.0,0.0,0.0,0.0,0.0,0.0,0.0,0.0,0.0,0.0,0.0,0.0,0.0,0.0,0.0,0.0,0.0,0.0,0.0,0.0,0.0,0.0,0.0,0.0,0.0,0.0,0.0,0.0,0.0,0.0,0.0,0.0,0.0,0.0,0.0,0.0,0.0,0.0,0.0,0.0,-2.6093,-2.5496,-2.469,-2.4573,-2.4343,-2.3895,-2.3791,-2.3363,-2.2595,0.0,0.0,0.0,0.0,0.0,0.0,0.0,0.0,0.0,0.0,0.0,0.0,0.0,0.0,0.0,0.0,0.0,0.0,0.0,0.0,0.0,0.0,0.0,0.0,0.0,0.0,0.0,0.0,0.0,0.0,0.0,0.0,0.0,0.0,0.0,0.0,0.0,0.0,-2.3493,-2.4171,0.0,0.0,0.0,0.0,0.0,0.0,0.0,0.0,-2.3809,0.0,0.0,0.0,0.0,0.0,0.0,0.0,0.0,0.0,0.0,0.0,0.0,0.0,0.0,0.0,0.0,0.0,0.0,0.0,0.0,0.0,0.0,0.0,0.0,0.0,0.0,0.0,0.0,0.0,0.0,0.0,0.0,0.0,0.0,0.0,0.0,0.0,0.0,0.0,0.0,0.0,0.0,0.0,0.0,0.0,0.0,0.0,0.0,0.0,0.0,0.0,0.0,0.0,0.0,0.0,0.0,-2.6992,-2.5833,-2.5239,-2.5352,-2.4969,-2.4583,-2.4311,-2.3785,-2.3143,-2.2456,0.0,0.0,0.0,0.0,0.0,0.0,0.0,0.0,0.0,0.0,0.0,0.0,0.0,0.0,0.0,0.0,0.0,0.0,0.0,0.0,0.0,0.0,0.0,0.0,0.0,0.0,0.0,0.0,0.0,0.0,0.0,0.0,0.0,0.0,0.0,0.0,0.0,0.0,0.0,-2.4601,-2.5069,0.0,0.0,0.0,0.0,0.0,0.0,0.0,0.0,-2.3409,0.0,0.0,0.0,0.0,0.0,0.0,0.0,0.0,0.0,0.0,0.0,0.0,0.0,0.0,0.0,0.0,0.0,0.0,0.0,0.0,0.0,0.0,0.0,0.0,0.0,0.0,0.0,0.0,0.0,0.0,0.0,0.0,0.0,0.0,0.0,0.0,0.0,0.0,0.0,0.0,0.0,0.0,0.0,0.0,0.0,0.0,0.0,0.0,0.0,0.0,0.0,0.0,0.0,0.0,0.0,-2.7262,-2.628,-2.5711,-2.5665,-2.5428,-2.5047,-2.4419,-2.3871,-2.3121,0.0,0.0,0.0,0.0,0.0,0.0,0.0,0.0,0.0,0.0,0.0,0.0,0.0,0.0,0.0,0.0,0.0,0.0,0.0,0.0,0.0,0.0,0.0,0.0,0.0,0.0,0.0,0.0,0.0,0.0,0.0,0.0,0.0,0.0,0.0,0.0,0.0,0.0,0.0,0.0,-2.453,-2.4639,-2.4657,0.0,0.0,0.0,0.0,0.0,0.0,-2.3152,-2.2463,0.0,0.0,0.0,0.0,0.0,0.0,0.0,0.0,0.0,0.0,0.0,0.0,0.0,0.0,0.0,0.0,0.0,0.0,0.0,0.0,0.0,0.0,0.0,0.0,0.0,0.0,0.0,0.0,0.0,0.0,0.0,0.0,0.0,0.0,0.0,0.0,0.0,0.0,0.0,0.0,0.0,0.0,0.0,0.0,0.0,0.0,0.0,0.0,0.0,0.0,0.0,0.0,0.0,0.0,0.0,-2.7699,-2.6814,-2.6212,-2.5993,-2.5856,-2.5411,-2.4546,-2.4148,-2.3305,0.0,0.0,0.0,0.0,0.0,0.0,0.0,0.0,0.0,0.0,0.0,0.0,0.0,0.0,0.0,0.0,0.0,0.0,0.0,0.0,0.0,0.0,0.0,0.0,0.0,0.0,0.0,0.0,0.0,0.0,0.0,0.0,0.0,0.0,0.0,0.0,0.0,0.0,0.0,0.0,0.0,-2.4261,-2.4489,-2.4331,0.0,0.0,0.0,0.0,-2.3756,-2.263,0.0,0.0,0.0,0.0,0.0,0.0,0.0,0.0,0.0,0.0,0.0,0.0,0.0,0.0,0.0,0.0,0.0,0.0,0.0,0.0,0.0,0.0,0.0,0.0,0.0,0.0,0.0,0.0,0.0,0.0,0.0,0.0,0.0,0.0,0.0,0.0,0.0,0.0,0.0,0.0,0.0,0.0,0.0,0.0,0.0,0.0,0.0,0.0,0.0,0.0,0.0,0.0,0.0,0.0,0.0,0.0,-2.8401,-2.6912,-2.6286,-2.6616,-2.6212,-2.564,-2.4943,-2.4546,-2.3666,0.0,0.0,0.0,0.0,0.0,0.0,0.0,0.0,0.0,0.0,0.0,0.0,0.0,0.0,0.0,0.0,0.0,0.0,0.0,0.0,0.0,0.0,0.0,0.0,0.0,0.0,0.0,0.0,0.0,0.0,0.0,0.0,0.0,0.0,0.0,0.0,0.0,0.0,0.0,0.0,0.0,-2.4626,-2.3462,-2.4312,-2.487,0.0,0.0,-2.3823,-2.3119,-2.2151,0.0,0.0,0.0,0.0,0.0,0.0,0.0,0.0,0.0,0.0,0.0,0.0,0.0,0.0,0.0,0.0,0.0,0.0,0.0,0.0,0.0,0.0,0.0,0.0,0.0,0.0,0.0,0.0,0.0,0.0,0.0,0.0,0.0,0.0,0.0,0.0,0.0,0.0,0.0,0.0,0.0,0.0,0.0,0.0,0.0,0.0,0.0,0.0,0.0,0.0,0.0,0.0,0.0,0.0,0.0,-2.8083,-2.8894,-2.7532,-2.691,-2.7138,-2.6621,-2.5986,-2.5224,-2.4669,-2.3663,0.0,0.0,0.0,0.0,0.0,0.0,0.0,0.0,0.0,0.0,0.0,0.0,0.0,0.0,0.0,0.0,0.0,0.0,0.0,0.0,0.0,0.0,0.0,0.0,0.0,0.0,0.0,0.0,0.0,0.0,0.0,0.0,0.0,0.0,0.0,0.0,0.0,0.0,0.0,0.0,0.0,0.0,-2.4122,-2.3851,0.0,0.0,0.0,-2.303,-2.334,0.0,0.0,0.0,0.0,0.0,0.0,0.0,0.0,0.0,0.0,0.0,0.0,0.0,0.0,0.0,0.0,0.0,0.0,0.0,0.0,0.0,0.0,0.0,0.0,0.0,0.0,0.0,0.0,0.0,0.0,0.0,0.0,0.0,0.0,0.0,0.0,0.0,0.0,0.0,0.0,0.0,0.0,0.0,0.0,0.0,0.0,0.0,0.0,0.0,0.0,0.0,0.0,0.0,0.0,0.0,0.0,0.0,-2.9063,-2.7955,-2.7363,-2.7403,-2.6772,-2.6171,-2.5441,-2.4711,0.0,0.0,0.0,0.0,0.0,0.0,0.0,0.0,0.0,0.0,0.0,0.0,0.0,0.0,0.0,0.0,0.0,0.0,0.0,0.0,0.0,0.0,0.0,0.0,0.0,0.0,0.0,-1.7969,0.0,0.0,0.0,0.0,0.0,0.0,0.0,0.0,0.0,0.0,0.0,0.0,0.0,0.0,-2.3119,-2.3785,-2.3055,-2.2837,0.0,0.0,-2.2362,-2.3226,-2.1611,-1.983,0.0,0.0,0.0,0.0,0.0,0.0,0.0,0.0,0.0,0.0,0.0,0.0,0.0,0.0,0.0,0.0,0.0,0.0,0.0,0.0,0.0,0.0,0.0,0.0,0.0,0.0,0.0,0.0,0.0,0.0,0.0,0.0,0.0,0.0,0.0,0.0,0.0,0.0,0.0,0.0,0.0,0.0,0.0,0.0,0.0,0.0,0.0,0.0,0.0,0.0,0.0,0.0,0.0,0.0,0.0,-2.8516,-2.7898,-2.7497,-2.7422,-2.6554,-2.5919,-2.5522,-2.4844,-2.3821,0.0,0.0,0.0,0.0,0.0,0.0,0.0,0.0,0.0,0.0,0.0,0.0,0.0,0.0,0.0,0.0,0.0,0.0,0.0,0.0,0.0,0.0,0.0,0.0,0.0,0.0,0.0,0.0,0.0,0.0,0.0,0.0,0.0,0.0,0.0,0.0,0.0,0.0,0.0,0.0,0.0,-2.154,-2.1233,-2.1855,-2.2468,0.0,0.0,-2.2331,-2.2171,-2.1069,-1.9816,-1.868,0.0,0.0,0.0,0.0,0.0,0.0,0.0,0.0,0.0,0.0,0.0,0.0,0.0,0.0,0.0,0.0,0.0,0.0,0.0,0.0,0.0,0.0,0.0,0.0,0.0,0.0,0.0,0.0,0.0,0.0,0.0,0.0,0.0,0.0,0.0,0.0,0.0,0.0,0.0,0.0,0.0,0.0,0.0,0.0,0.0,0.0,0.0,0.0,0.0,0.0,0.0,0.0,0.0,-2.7332,-2.8236,-2.7661,-2.7304,-2.7133,-2.6282,-2.572,-2.5505,-2.4668,-2.3755,0.0,0.0,0.0,0.0,0.0,0.0,0.0,0.0,0.0,0.0,0.0,0.0,0.0,0.0,0.0,0.0,0.0,0.0,0.0,0.0,0.0,0.0,0.0,0.0,0.0,0.0,0.0,0.0,-1.7747,-1.7512,-1.7549,0.0,0.0,0.0,0.0,0.0,0.0,0.0,0.0,0.0,0.0,-2.0624,-2.0873,-2.0713,0.0,0.0,-2.1514,-2.1303,-2.1849,-2.1105,-2.0012,-1.8832,-1.828,0.0,0.0,0.0,0.0,0.0,0.0,0.0,0.0,0.0,0.0,0.0,0.0,0.0,0.0,0.0,0.0,0.0,0.0,0.0,0.0,0.0,0.0,0.0,0.0,0.0,0.0,0.0,0.0,0.0,0.0,0.0,0.0,0.0,0.0,0.0,0.0,0.0,0.0,0.0,0.0,0.0,0.0,0.0,0.0,0.0,0.0,0.0,0.0,0.0,0.0,0.0,0.0,-2.7,-2.7854,-2.7552,-2.7308,-2.7048,-2.6188,-2.5677,-2.5575,-2.4631,-2.3791,0.0,0.0,0.0,0.0,0.0,0.0,0.0,0.0,0.0,0.0,0.0,0.0,0.0,0.0,0.0,0.0,0.0,0.0,0.0,0.0,0.0,0.0,0.0,0.0,0.0,0.0,0.0,0.0,-1.6832,-1.6612,-1.6857,0.0,0.0,0.0,0.0,0.0,0.0,0.0,0.0,0.0,0.0,-1.9675,-2.0163,-1.9837,-1.982,-2.0859,-2.049,-2.0367,-2.1155,-2.064,-1.9863,-1.8898,0.0,0.0,0.0,0.0,0.0,0.0,0.0,0.0,0.0,0.0,0.0,0.0,0.0,0.0,0.0,0.0,0.0,0.0,0.0,0.0,0.0,0.0,0.0,0.0,0.0,0.0,0.0,0.0,0.0,0.0,-2.7357,0.0,0.0,0.0,0.0,0.0,0.0,0.0,0.0,0.0,0.0,0.0,0.0,0.0,0.0,0.0,0.0,0.0,0.0,0.0,0.0,0.0,0.0,-2.7391,-2.7317,-2.7741,-2.7678,-2.7086,-2.6264,-2.5796,-2.5761,-2.4789,-2.38,-2.31,0.0,0.0,0.0,0.0,0.0,0.0,0.0,0.0,0.0,0.0,0.0,0.0,0.0,0.0,0.0,0.0,0.0,0.0,0.0,0.0,0.0,0.0,0.0,0.0,0.0,0.0,-1.6804,-1.6499,-1.6287,0.0,0.0,0.0,0.0,0.0,0.0,0.0,0.0,0.0,0.0,-1.8867,-1.8606,-1.8852,-1.9331,-1.9562,-1.9324,-1.9517,-1.971,-1.9778,-1.9555,-1.9229,0.0,0.0,0.0,0.0,0.0,0.0,0.0,0.0,0.0,0.0,0.0,0.0,0.0,0.0,0.0,0.0,0.0,0.0,0.0,0.0,0.0,0.0,0.0,0.0,0.0,0.0,0.0,-3.1417,-2.9541,0.0,0.0,0.0,0.0,0.0,0.0,0.0,0.0,0.0,0.0,0.0,-2.9172,-2.9371,0.0,0.0,0.0,0.0,0.0,0.0,0.0,0.0,0.0,0.0,0.0,0.0,-2.6883,-2.6775,-2.7187,-2.6992,-2.6264,-2.6018,-2.5675,-2.519,-2.4435,-2.3315,-2.1812,0.0,0.0,0.0,0.0,0.0,0.0,0.0,0.0,0.0,0.0,0.0,0.0,0.0,0.0,0.0,0.0,0.0,0.0,0.0,0.0,0.0,0.0,0.0,0.0,0.0,-1.6882,0.0,0.0,0.0,0.0,0.0,0.0,0.0,0.0,0.0,0.0,0.0,-1.7366,-1.7712,-1.7882,-1.8072,-1.8336,-1.8647,-1.8846,0.0,0.0,0.0,0.0,0.0,0.0,0.0,0.0,0.0,0.0,0.0,0.0,0.0,0.0,-1.8659,-1.8022,-1.7805,-1.7743,-1.7515,0.0,0.0,0.0,0.0,0.0,0.0,0.0,0.0,0.0,0.0,0.0,0.0,0.0,0.0,-3.1484,0.0,-2.9627,0.0,0.0,0.0,0.0,0.0,0.0,0.0,0.0,-2.8986,-2.903,-2.9164,-2.9238,-2.892,0.0,-2.8163,-2.7262,0.0,0.0,0.0,0.0,0.0,0.0,0.0,0.0,-2.6397,-2.645,-2.6811,-2.67,-2.6042,-2.5953,-2.5661,-2.5119,-2.4348,-2.319,-2.1757,-2.123,-2.0734,0.0,0.0,0.0,0.0,0.0,0.0,0.0,0.0,0.0,0.0,0.0,0.0,0.0,0.0,0.0,0.0,0.0,0.0,0.0,0.0,0.0,0.0,0.0,-1.5857,0.0,0.0,0.0,0.0,0.0,0.0,0.0,0.0,0.0,-1.6,-1.6517,-1.7055,-1.7453,-1.7701,-1.797,-1.8293,0.0,0.0,0.0,0.0,0.0,0.0,0.0,-1.9212,-1.9044,-1.8809,-1.8698,-1.8744,-1.8799,-1.9003,-1.9187,0.0,0.0,-1.8289,-1.8173,-1.8055,-1.7888,-1.8046,-1.8131,-1.8058,-1.8167,-1.8239,0.0,0.0,0.0,0.0,0.0,0.0,0.0,0.0,-3.2441,-3.2146,0.0,-3.0669,0.0,0.0,0.0,0.0,0.0,-2.8554,0.0,0.0,-2.9293,-2.9358,-3.0081,-2.9527,-2.905,-2.8615,-2.8778,-2.7914,-2.6172,-2.5719,0.0,0.0,0.0,0.0,0.0,0.0,-2.5924,-2.6336,-2.6629,-2.6696,-2.6397,-2.6135,-2.5777,-2.5429,-2.4425,-2.3552,-2.2844,-2.2103,-2.1378,-2.067,-2.0529,0.0,0.0,0.0,0.0,0.0,0.0,0.0,0.0,0.0,0.0,0.0,0.0,0.0,0.0,0.0,0.0,0.0,0.0,0.0,0.0,-1.5352,0.0,0.0,0.0,0.0,0.0,0.0,0.0,0.0,0.0,0.0,-1.6828,-1.713,-1.7658,-1.8336,0.0,0.0,0.0,0.0,-1.881,-1.881,-1.9015,-1.9103,-1.9092,-1.8961,-1.886,-1.8778,0.0,0.0,-1.8545,-1.8491,-1.8567,-1.9095,-1.9024,-1.8966,-1.8744,-1.865,-1.8606,-1.8571,-1.8625,-1.8807,-1.9012,-1.8988,-1.9012,-3.3332,0.0,0.0,0.0,0.0,-3.225,-3.2347,-3.2513,-3.2102,-3.173,-3.1358,-3.0979,0.0,0.0,0.0,0.0,0.0,0.0,-2.9573,-2.9691,-2.9313,-2.9392,-2.9673,-2.9015,-2.8541,-2.8229,-2.7835,-2.6986,-2.5814,-2.5186,-2.4144,-2.2839,0.0,0.0,0.0,0.0,-2.5672,-2.5825,-2.6117,-2.5974,-2.5403,-2.5376,-2.5066,-2.451,-2.3905,-2.3408,-2.2958,-2.2306,-2.1651,-2.1159,-2.0851,0.0,0.0,0.0,0.0,0.0,0.0,0.0,0.0,0.0,0.0,0.0,0.0,0.0,0.0,0.0,0.0,0.0,0.0,0.0,-1.5468,-1.5008,-1.4923,0.0,0.0,0.0,0.0,0.0,0.0,0.0,0.0,0.0,-1.7916,-1.8046,-1.8207,0.0,0.0,-1.8832,-1.8789,-1.9079,-1.9295,-1.9295,-1.9488,0.0,-1.9424,-1.9198,-1.8982,-1.881,-1.8595,-1.8412,-1.8487,-1.839,-1.8482,-1.8626,-1.8469,-1.8349,-1.8367,-1.8688,-1.8921,-1.8827,-1.8781,-1.8889,-1.8936,-1.9023,-1.9072,-3.4578,-3.3348,-3.2996,-3.2851,-3.2809,-3.2561,-3.2716,-3.3038,-3.2824,-3.2552,-3.226,-3.1905,-3.1233,-3.0314,-2.9858,0.0,0.0,0.0,-2.979,-3.0003,-2.9429,-2.9268,-2.9458,-2.8738,-2.8199,-2.7888,-2.7219,-2.6549,-2.5798,-2.4994,-2.3951,-2.274,0.0,0.0,-2.3695,-2.448,-2.5165,-2.572,-2.5956,-2.5836,-2.5465,-2.523,-2.4868,-2.4337,-2.3927,-2.3594,-2.3228,-2.2545,-2.2017,-2.1615,-2.1364,-2.0662,0.0,0.0,0.0,0.0,0.0,0.0,0.0,0.0,0.0,0.0,0.0,-1.8404,-1.7989,0.0,0.0,0.0,-1.6119,-1.5713,-1.5406,-1.5531,0.0,0.0,0.0,0.0,0.0,0.0,0.0,-1.7347,-1.7871,-1.8212,-1.8552,-1.8573,-1.8649,-1.8832,-1.9025,-1.906,-1.9079,0.0,-1.9467,-1.937,-1.9639,-1.9768,-1.9531,-1.9381,-1.9208,-1.8961,-1.8738,-1.8681,-1.8584,-1.8573,-1.8541,-1.8444,-1.8326,-1.8229,-1.8229,-1.8564,-1.8798,-1.8609,-1.8751,-1.8847,-1.8835,-1.9036,-1.9191,-3.6165,-3.5459,-3.459,-3.4155,-3.4132,-3.4072,-3.4051,-3.4072,-3.4051,-3.4072,-3.4069,-3.3203,-3.2525,-3.1993,-3.0854,0.0,-2.9983,-2.9754,-3.0099,-3.0781,-2.9543,-2.9149,-2.9502,-2.8535,-2.7904,-2.7507,-2.6871,-2.636,-2.5976,-2.5042,-2.4157,-2.323,-2.3108,-2.3356,-2.3799,-2.3937,-2.4644,-2.5921,-2.5937,-2.6006,-2.6034,-2.5434,-2.4992,-2.4627,-2.4337,-2.3927,-2.3536,-2.2927,-2.2402,-2.2075,-2.1969,-2.1227,-1.977,0.0,0.0,0.0,0.0,0.0,0.0,0.0,0.0,0.0,0.0,0.0,0.0,0.0,0.0,0.0,-1.6065,0.0,-1.5939,-1.6357,0.0,0.0,0.0,-1.6111,-1.601,-1.6584,-1.7105,-1.751,0.0,0.0,-1.8667,-1.876,-1.8942,-1.9393,-1.9253,-1.9178,-1.9445,-1.9499,-1.9445,-1.9273,-1.9575,-1.9844,-1.9585,-1.951,-1.9391,-1.9165,-1.9082,-1.8974,-1.8864,-1.881,-1.8724,-1.8492,-1.8427,-1.8427,-1.8498,-1.8487,-1.8406,-1.8336,-1.8541,-1.8766,-1.8766,-1.8988,-1.9209,-3.6641,-3.6411,-3.5873,-3.5024,-3.4072,-3.4072,-3.4072,-3.4072,-3.4072,-3.4072,-3.4051,-3.3844,-3.3375,-3.2632,-3.1738,-3.1391,-3.1422,-3.1093,-3.1012,-3.1032,-3.0015,-2.9466,-2.9235,-2.8277,-2.7505,-2.6939,-2.6468,-2.5952,-2.5316,-2.4853,-2.446,-2.4247,-2.397,-2.3634,-2.3368,-2.4069,-2.4824,-2.5707,-2.5723,-2.5692,-2.569,-2.5548,-2.5342,-2.4992,-2.4642,-2.4293,-2.4002,-2.3514,-2.3006,-2.2402,-2.2111,-2.1495,-2.0391,-1.9937,0.0,0.0,0.0,0.0,0.0,0.0,0.0,0.0,0.0,-1.7553,-1.6691,0.0,-1.6345,0.0,-1.606,-1.5993,-1.5741,-1.5923,0.0,0.0,-1.6628,-1.6813,-1.7187,-1.7308,-1.748,-1.7541,-1.7714,-1.7919,-1.8166,-1.833,-1.8546,-1.8823,-1.9191,-1.937,-1.9273,-1.9542,-1.9822,-1.9768,-1.9833,-1.9898,-1.9833,-1.9607,-1.9424,-1.9114,-1.9082,-1.906,-1.8996,-1.9058,-1.8974,-1.8921,-1.891,-1.891,-1.8899,-1.8832,-1.8681,-1.8671,-1.8666,-1.8675,-1.8675,-1.88,-1.8944,-3.7115,-3.7074,-3.6618,-3.5976,-3.5231,-3.4691,-3.4443,-3.4422,-3.4214,-3.3948,-3.3741,-3.3437,-3.2977,-3.2362,-3.1656,-3.1405,-3.1427,-3.0856,-3.0531,-3.0461,-2.9785,-2.9196,-2.8751,-2.8209,-2.749,-2.6701,-2.6304,-2.5815,-2.5302,-2.4839,-2.4618,-2.4633,-2.4437,-2.4157,-2.3784,-2.4347,-2.494,-2.5612,-2.5612,-2.5584,-2.5592,-2.5296,-2.5094,-2.4844,-2.4422,-2.3985,-2.3641,-2.3313,-2.2751,-2.1924,-2.1852,-2.1462,-2.0635,-1.9823,-1.9208,0.0,0.0,0.0,0.0,0.0,0.0,0.0,0.0,0.0,0.0,0.0,-1.559,-1.5657,-1.6031,-1.6226,-1.6085,-1.6392,-1.6745,-1.6847,-1.6917,-1.7015,-1.7109,-1.7129,-1.7161,-1.7205,-1.7437,-1.7649,-1.7824,-1.8016,-1.8124,-1.8255,-1.8692,-1.9043,-1.9192,-1.9543,-1.9887,-1.9714,-1.9854,-1.9919,-1.9919,-1.9736,-1.9607,-1.9499,-1.9456,-1.9435,-1.9327,-1.9305,-1.9273,-1.9103,-1.9082,-1.9082,-1.9071,-1.8974,-1.895,-1.8896,-1.879,-1.8659,-1.8539,-1.8683,-1.8857,-3.7591,-3.7529,-3.7094,-3.6887,-3.6804,-3.548,-3.4961,-3.4878,-3.4422,-3.3906,-3.3393,-3.2653,-3.22,-3.1852,-3.1269,-3.0957,-3.0898,-3.0073,-2.9684,-2.9654,-2.9261,-2.8818,-2.8171,-2.8228,-2.7684,-2.6666,-2.6264,-2.5944,-2.5524,-2.4974,-2.4613,-2.4569,-2.4613,-2.4613,-2.4621,-2.4663,-2.494,-2.5555,-2.5637,-2.5703,-2.5621,-2.5077,-2.4726,-2.4665,-2.407,-2.352,-2.3108,-2.291,-2.236,-2.1444,-2.1506,-2.1328,-2.0822,-1.9653,-1.904,0.0,-1.7848,0.0,0.0,0.0,0.0,0.0,0.0,0.0,0.0,-1.5678,-1.5194,-1.5239,-1.6064,-1.6556,-1.6518,-1.7107,-1.7315,-1.7067,-1.6995,-1.6851,-1.6553,-1.6481,-1.6568,-1.669,-1.7053,-1.7345,-1.7546,-1.7676,-1.7796,-1.7896,-1.811,-1.8485,-1.896,-1.9455,-1.9704,-1.9489,-1.9704,-1.9919,-1.9919,-1.9919,-1.9908,-1.9908,-1.9887,-1.9844,-1.9575,-1.9542,-1.9478,-1.9305,-1.9273,-1.9262,-1.9241,-1.923,-1.9125,-1.9114,-1.8982,-1.8745,-1.8541,-1.8703,-1.8924,-3.8046,-3.8026,-3.755,-3.7363,-3.7281,-3.6287,-3.5645,-3.5252,-3.4878,-3.4242,-3.3512,-3.2914,-3.2455,-3.2095,-3.1733,-3.143,-3.1108,-3.0682,-3.0371,-3.0039,-2.9466,-2.8835,-2.8219,-2.7914,-2.7244,-2.6264,-2.6145,-2.5809,-2.5187,-2.5061,-2.4899,-2.4583,-2.4899,-2.4899,-2.4598,0.0,0.0,0.0,-2.5838,-2.5972,-2.5972,-2.5642,-2.5306,-2.4967,-2.4634,0.0,-2.3169,-2.3566,-2.349,-2.2744,-2.2036,0.0,0.0,0.0,0.0,0.0,0.0,0.0,0.0,0.0,0.0,0.0,-1.4995,-1.5051,-1.5772,-1.6069,-1.6135,-1.5685,-1.6127,-1.6362,-1.6257,-1.6372,-1.6515,-1.6606,-1.6625,-1.6553,-1.6481,-1.6481,-1.6528,-1.6743,-1.6749,-1.6806,-1.7147,-1.7243,-1.7329,-1.7482,-1.7786,-1.8052,-1.8243,-1.886,-1.9294,-1.9262,-1.9585,-1.9844,-1.9919,-1.9919,-1.9919,-1.9919,-1.9919,-1.9898,-1.9854,-1.9768,-1.9854,-1.9693,-1.9789,-1.9704,-1.9704,-1.9564,-1.9435,-1.9435,-1.9241,-1.9004,-1.8767,-1.8633,-1.8503,-3.7984,0.0,-3.7922,-3.7839,0.0,-3.7094,-3.6535,-3.6018,-3.49,-3.3793,-3.2687,-3.2097,-3.1642,-3.1285,-3.0806,-3.0487,-3.0366,-3.0004,-2.958,-2.9094,-2.8818,-2.8185,-2.738,-2.7278,-2.669,-2.5886,-2.5868,-2.5592,-2.5119,-2.5066,-2.5046,-2.4818,-2.5046,-2.5046,-2.4885,-2.5031,-2.5187,-2.5337,-2.5524,-2.5592,-2.5577,-2.5278,-2.5024,-2.4844,-2.4366,0.0,0.0,0.0,0.0,0.0,0.0,0.0,0.0,0.0,0.0,-1.8079,-1.7033,-1.6113,-1.5443,-1.5184,-1.5071,-1.5248,-1.509,-1.5044,-1.5137,-1.572,-1.6031,-1.5827,-1.6115,-1.6314,-1.6382,-1.6424,-1.649,-1.649,-1.6481,-1.6481,-1.6481,-1.6481,-1.6519,-1.6642,-1.6736,-1.6878,-1.7076,-1.7209,-1.7303,-1.7407,-1.7578,-1.7731,-1.7807,-1.8415,-1.8946,-1.9163,-1.939,-1.9617,-1.9844,-1.9919,-1.9919,-1.9919,-1.9919,-1.9919,-1.9919,-1.9919,-1.9919,-1.9919,-1.9919,-1.9919,-1.9908,-1.9747,-1.9746,-1.965,-1.9488,-1.9305,-1.9144,-1.8853,-1.8605,-3.7674,-3.7943,-3.7943,-3.7943,-3.7922,-3.7612,-3.7136,-3.6389,0.0,0.0,0.0,-3.1073,-3.0626,-3.0274,-2.9745,-2.945,-2.939,-2.9035,-2.8558,-2.7977,-2.7931,-2.7429,-2.6661,-2.6536,-2.6158,-2.5642,-2.5516,-2.5412,-2.5119,-2.5066,-2.509,-2.4979,-2.509,-2.5066,-2.5066,-2.5066,-2.5066,-2.5066,-2.5066,-2.5066,-2.5052,-2.4855,-2.4694,-2.4569,-2.3992,-2.3333,-2.2706,-2.2423,-2.1948,-2.1374,-2.1127,-2.0899,-2.0598,-1.9493,-1.8559,-1.7911,-1.7,-1.6226,-1.558,-1.5476,-1.5327,-1.5091,-1.5336,-1.5229,-1.4785,-1.5306,-1.5708,-1.5908,-1.6027,-1.6216,-1.6453,-1.6604,-1.6642,-1.649,-1.6453,-1.6434,-1.6471,-1.6481,-1.6509,-1.6604,-1.6897,-1.7123,-1.7171,-1.735,-1.7483,-1.7483,-1.7539,-1.753,-1.7597,-1.8094,-1.8643,-1.8936,-1.9098,-1.9239,-1.9617,-1.9768,-1.9854,-1.9844,-1.9919,-1.9919,-1.9919,-1.9919,-1.9919,-1.9919,-1.9919,-1.9919,-1.9919,-1.9908,-1.9919,-1.9919,-1.9693,-1.9564,-1.9521,-1.9219,-1.8918,-3.7301,-3.7011,-3.6991,-3.6991,-3.7011,-3.7363,-3.6655,-3.5127,-3.3862,-3.2573,-3.1344,-3.0743,-3.0274,-2.9922,-2.9627,-2.9331,-2.9035,-2.8696,-2.8397,-2.796,-2.7488,-2.7007,-2.6566,-2.6038,-2.5704,-2.5596,-2.5276,-2.5123,-2.5105,-2.5052,-2.492,-2.4782,-2.4987,-2.5066,-2.5066,-2.5066,-2.5066,-2.5066,-2.5066,-2.5066,-2.5052,-2.5075,-2.4914,-2.4583,-2.4202,-2.3673,-2.3049,-2.2827,-2.2624,-2.2206,-2.141,-2.0831,-2.0709,-1.9232,-1.8083,-1.7347,-1.6877,-1.6281,-1.5596,-1.5367,-1.5139,-1.4776,-1.4812,-1.4879,-1.511,-1.5432,-1.5649,-1.5908,-1.5914,-1.6135,-1.6415,-1.6377,-1.6358,-1.6453,-1.633,-1.6292,-1.6462,-1.65,-1.6632,-1.6944,-1.7057,-1.719,-1.736,-1.7549,-1.7672,-1.7709,-1.7726,-1.7936,-1.787,-1.8029,-1.8283,-1.8567,-1.8719,-1.8871,-1.9291,-1.9325,-1.9487,-1.9844,-1.9854,-1.9844,-1.9919,-1.9919,-1.9919,-1.9919,-1.9919,-1.9919,-1.9919,-1.9919,-1.9919,-1.9919,-1.9865,-1.9844,-1.9844,-1.9553,-1.9327,-3.6763,-3.6804,-3.6804,-3.6804,-3.6825,-3.7085,-3.6395,-3.5017,-3.4059,-3.2634,-3.1093,-3.0392,-2.9981,-2.9686,-2.939,-2.9035,-2.8755,-2.8576,-2.8157,-2.7496,-2.7056,-2.6549,-2.6039,-2.536,-2.5042,-2.5028,-2.469,-2.4679,-2.4841,-2.4855,-2.487,-2.4899,-2.5061,-2.5066,-2.5066,-2.5066,-2.5066,-2.5066,-2.5066,-2.5066,-2.5066,-2.5066,-2.4979,-2.4832,-2.4323,-2.3762,-2.3346,-2.272,-2.2191,-2.1805,-2.1007,-2.0255,-1.963,-1.871,-1.7716,-1.6719,-1.6438,-1.6031,-1.5282,-1.4986,-1.4684,-1.4459,-1.454,-1.4616,-1.4651,-1.4891,-1.5137,-1.5368,-1.5405,-1.5523,-1.5876,-1.583,-1.5767,-1.5677,-1.5901,-1.6099,-1.6202,-1.6635,-1.6897,-1.7076,-1.7209,-1.736,-1.7558,-1.7672,-1.7785,-1.7879,-1.8002,-1.805,-1.7971,-1.8055,-1.8145,-1.8542,-1.861,-1.8852,-1.9151,-1.9116,-1.9208,-1.9656,-1.9626,-1.9638,-1.9844,-1.9919,-1.9919,-1.9919,-1.9919,-1.9919,-1.9919,-1.9919,-1.9919,-1.9919,-1.9919,-1.9919,-1.9898,-1.9758,-1.9575,-3.6246,-3.6494,-3.6494,-3.6556,-3.6616,-3.6725,-3.6136,-3.5087,-3.4409,-3.2964,-3.1013,-3.0194,-2.9745,-2.9509,-2.9172,-2.8815,-2.8517,-2.8337,-2.7857,-2.7073,-2.6571,-2.6083,-2.5443,-2.4828,-2.448,-2.4444,-2.4109,-2.4145,-2.4437,-2.454,-2.4811,-2.509,-2.5066,-2.5066,-2.5066,-2.5066,-2.5066,-2.5066,-2.5066,-2.5066,-2.5066,-2.5066,-2.5052,-2.497,-2.4334,-2.3803,-2.3387,-2.2432,-2.1683,-2.1145,-2.042,-1.9599,-1.8625,-1.8212,-1.7448,-1.6265,-1.6069,-1.5651,-1.4878,-1.4597,-1.4332,-1.4057,-1.417,-1.4231,-1.4129,-1.4276,-1.4545,-1.4868,-1.5052,-1.5158,-1.5309,-1.5335,-1.5219,-1.5131,-1.5462,-1.5813,-1.5995,-1.6471,-1.6833,-1.6879,-1.7094,-1.7339,-1.7517,-1.7688,-1.7917,-1.8144,-1.8191,-1.8191,-1.8191,-1.8191,-1.835,-1.856,-1.8591,-1.874,-1.9064,-1.9013,-1.9058,-1.9425,-1.9454,-1.958,-1.9755,-1.9865,-1.9962,-1.9952,-1.9919,-1.9919,-1.9919,-1.9919,-1.9919,-1.9919,-1.9919,-1.9919,-1.9919,-1.9908,-1.9822,-3.5894,-3.5583,-3.5583,-3.579,-3.6141,-3.6275,-3.5872,-3.5147,-3.4728,-3.3262,-3.1241,-3.0263,-2.9764,-2.9509,-2.9153,-2.8815,-2.8457,-2.79,-2.7418,-2.7012,-2.61,-2.5488,-2.5103,-2.4456,-2.4126,-2.4131,-2.3824,-2.3808,-2.413,-2.4437,-2.4811,-2.5022,-2.5066,-2.5066,-2.5066,-2.5066,-2.5066,-2.5066,-2.5066,-2.5066,-2.5066,-2.5066,-2.4916,-2.4578,-2.421,-2.3638,-2.3011,-2.2245,-2.149,-2.0768,-1.9982,-1.9217,-1.846,-1.811,-1.7398,-1.6244,-1.6002,-1.5472,-1.4455,-1.4267,-1.4066,-1.3704,-1.3663,-1.3747,-1.3686,-1.3891,-1.4215,-1.4604,-1.5034,-1.5156,-1.5096,-1.5016,-1.5077,-1.5128,-1.5325,-1.5465,-1.5839,-1.5953,-1.605,-1.6236,-1.6635,-1.6965,-1.7176,-1.7613,-1.8102,-1.8503,-1.8541,-1.8541,-1.855,-1.855,-1.856,-1.8603,-1.8394,-1.8334,-1.871,-1.875,-1.8887,-1.928,-1.9573,-1.9673,-1.9692,-1.9926,-2.0124,-1.9865,-1.9919,-1.9919,-1.9919,-1.9919,-1.9919,-1.9919,-1.9844,-1.9844,-1.9919,-1.9844,-1.9715,-3.5604,-3.5418,-3.5418,-3.5521,-3.5728,-3.5834,-3.578,-3.5425,-3.4908,-3.3747,-3.2321,-3.1134,-3.0156,-2.9231,-2.9035,-2.8677,-2.8199,-2.7702,-2.7099,-2.6449,-2.5656,-2.5119,-2.4734,-2.41,-2.3818,-2.3798,-2.3499,-2.3471,-2.3837,-2.432,-2.4642,-2.4788,-2.5017,-2.5052,-2.5066,-2.5066,-2.5066,-2.5066,-2.5066,-2.5066,-2.5066,-2.5066,-2.4916,-2.4495,-2.417,-2.3679,-2.2928,-2.2173,-2.1358,-2.0388,-1.9611,-1.8784,-1.7801,-1.7238,-1.6545,-1.5719,-1.4991,-1.4408,-1.3914,-1.3704,-1.3503,-1.3293,-1.35,-1.3628,-1.3644,-1.3993,-1.4244,-1.4236,-1.4457,-1.4533,-1.4365,-1.4332,-1.4407,-1.4656,-1.5001,-1.5319,-1.5486,-1.5859,-1.6124,-1.6195,-1.6357,-1.6558,-1.6939,-1.7572,-1.8133,-1.8563,-1.8673,-1.8673,-1.8673,-1.8673,-1.8673,-1.8664,-1.8513,-1.8518,-1.8641,-1.8615,-1.8727,-1.9006,-1.9154,-1.9161,-1.9433,-1.9657,-1.9772,-1.9764,-1.9875,-1.9876,-1.9919,-1.9919,-1.9919,-1.9844,-1.9628,-1.9477,-1.9466,-1.9325,-1.9174,-3.5418,-3.5418,-3.5418,-3.5418,-3.5438,-3.5625,-3.5686,-3.5641,-3.5087,-3.4255,-3.3187,-3.2201,-3.0902,-2.9567,-2.9099,-2.8558,-2.796,-2.7461,-2.6857,-2.6067,-2.5288,-2.4795,-2.4425,-2.3867,-2.3542,-2.3417,-2.3245,-2.3281,-2.3618,-2.4042,-2.4393,-2.4635,-2.4885,-2.5031,-2.5052,-2.5066,-2.5066,-2.5066,-2.5066,-2.5066,-2.5066,-2.5066,-2.4849,-2.4428,-2.4088,-2.3557,-2.2654,-2.2117,-2.1207,-2.004,-1.9273,-1.832,-1.7288,-1.6375,-1.563,-1.4889,-1.4061,-1.3545,-1.3436,-1.3202,-1.3116,-1.3189,-1.3465,-1.3598,-1.3703,-1.4115,-1.4205,-1.3961,-1.4066,-1.4171,-1.3937,-1.3953,-1.4058,-1.4229,-1.4703,-1.5035,-1.5211,-1.5667,-1.5812,-1.5897,-1.5897,-1.6276,-1.6731,-1.7414,-1.8001,-1.8337,-1.851,-1.8592,-1.8673,-1.8673,-1.8673,-1.8673,-1.8673,-1.8664,-1.8664,-1.8632,-1.8698,-1.8821,-1.8875,-1.9035,-1.9273,-1.9474,-1.9719,-1.9864,-1.9949,-1.9962,-1.9973,-1.9951,-1.9628,-1.9477,-1.9249,-1.9022,-1.9012,-1.8795,-1.8567,-3.5418,-3.5418,-3.5418,-3.5418,-3.5438,-3.5625,-3.5686,-3.5706,-3.5422,-3.4699,-3.3681,-3.3187,-3.2177,-3.0626,-2.9313,-2.8373,-2.7917,-2.709,-2.6543,-2.6039,-2.5135,-2.444,-2.41,-2.3743,-2.3432,-2.3168,-2.3106,-2.3267,-2.3559,-2.3647,-2.3954,-2.4525,-2.4598,-2.4759,-2.5061,-2.5052,-2.5066,-2.5066,-2.5066,-2.5066,-2.5066,-2.5066,-2.4781,-2.4088,-2.4034,-2.3338,-2.2104,-2.1841,-2.1138,-1.968,-1.889,-1.8025,-1.7005,-1.5946,-1.4862,-1.3933,-1.3377,-1.3094,-1.2913,-1.3027,-1.3181,-1.3352,-1.3547,-1.3717,-1.388,-1.4083,-1.4115,-1.3928,-1.4083,-1.4099,-1.3969,-1.405,-1.4213,-1.4383,-1.4578,-1.4824,-1.5004,-1.5097,-1.5045,-1.513,-1.5462,-1.594,-1.6669,-1.7126,-1.7565,-1.7928,-1.801,-1.8174,-1.851,-1.8673,-1.8673,-1.8673,-1.8673,-1.8673,-1.8673,-1.8636,-1.8717,-1.877,-1.8946,-1.9189,-1.9403,-1.9593,-1.9779,-1.9949,-2.004,-2.0056,-2.0003,-1.9754,-1.9236,-1.8957,-1.8719,-1.8567,-1.8491,-1.8567,-1.8263,-3.5418,-3.5418,-3.5418,-3.5418,-3.5397,-3.5625,-3.5686,-3.5681,-3.5756,-3.5124,-3.4165,-3.3681,-3.2796,-3.146,-3.0275,-2.9226,-2.8306,-2.7354,-2.6739,-2.6339,-2.5408,-2.4776,-2.4373,-2.3855,-2.3422,-2.312,-2.3106,-2.3164,-2.3296,-2.3486,-2.3706,-2.3984,-2.4379,-2.4709,-2.4826,-2.5031,-2.5066,-2.5052,-2.5066,-2.5066,-2.5052,-2.5066,-2.4713,-2.4034,-2.3966,-2.327,-2.1829,-2.176,-2.1064,-1.945,-1.8611,-1.7744,-1.6773,-1.54,-1.4196,-1.3444,-1.3061,-1.2954,-1.3019,-1.3173,-1.3352,-1.353,-1.3709,-1.388,-1.4042,-1.414,-1.4148,-1.4107,-1.4123,-1.4131,-1.4115,-1.4148,-1.4245,-1.4416,-1.4594,-1.4781,-1.4919,-1.5045,-1.5045,-1.5077,-1.531,-1.5777,-1.6316,-1.6713,-1.71,-1.7527,-1.7609,-1.7846,-1.8092,-1.8255,-1.8337,-1.8592,-1.8673,-1.8673,-1.8673,-1.8673,-1.8673,-1.8755,-1.8818,-1.888,-1.9047,-1.9233,-1.9414,-1.9771,-1.997,-1.9891,-1.9828,-1.9383,-1.8855,-1.8571,-1.8323,-1.7855,-1.7807,-1.7588,-1.7206,-3.5418,-3.5418,-3.5418,-3.5418,-3.5397,-3.5625,-3.5686,-3.5721,-3.5894,-3.5433,-3.4583,-3.4183,-3.3442,-3.2386,-3.1391,-3.0401,-2.9305,-2.7974,-2.7164,-2.6849,-2.5704,-2.5001,-2.469,-2.407,-2.3632,-2.3457,-2.3427,-2.3413,-2.3442,-2.3647,-2.3749,-2.3808,-2.4218,-2.4408,-2.4466,-2.4744,-2.4973,-2.4905,-2.5061,-2.5066,-2.5052,-2.5017,-2.4554,-2.3919,-2.3781,-2.3039,-2.1757,-2.1475,-2.0668,-1.922,-1.829,-1.7229,-1.5866,-1.4718,-1.3744,-1.3128,-1.2897,-1.2913,-1.3084,-1.3271,-1.3449,-1.3558,-1.3807,-1.3977,-1.4148,-1.4123,-1.4115,-1.4148,-1.4115,-1.4099,-1.418,-1.4229,-1.4335,-1.4505,-1.4684,-1.483,-1.4952,-1.5045,-1.5045,-1.5094,-1.5277,-1.563,-1.5952,-1.6235,-1.6656,-1.7108,-1.7199,-1.7355,-1.7682,-1.7846,-1.7928,-1.8346,-1.8428,-1.851,-1.8592,-1.8673,-1.8673,-1.8755,-1.8755,-1.8673,-1.8736,-1.8927,-1.9172,-1.9534,-1.9673,-1.9669,-1.9447,-1.9013,-1.864,-1.825,-1.7663,-1.7125,-1.6839,-1.6469,-1.6085,-3.5418,-3.5418,-3.5418,-3.5438,-3.5479,-3.5625,-3.5686,-3.5801,-3.5913,-3.5587,-3.4895,-3.4846,-3.4171,-3.3175,-3.2367,-3.1635,-3.0707,-2.8901,-2.7849,-2.7572,-2.6017,-2.523,-2.5104,-2.4426,-2.4042,-2.3984,-2.4042,-2.4042,-2.3998,-2.4013,-2.4042,-2.4057,-2.4115,-2.4188,-2.4101,-2.4437,-2.4583,-2.4627,-2.4885,-2.4979,-2.5075,-2.4782,-2.4237,-2.3529,-2.3224,-2.2535,-2.1382,-2.0776,-1.9984,-1.8877,-1.7779,-1.6251,-1.4718,-1.4073,-1.3564,-1.2988,-1.2848,-1.2938,-1.31,-1.3295,-1.3482,-1.3652,-1.3807,-1.3977,-1.4115,-1.4026,-1.4002,-1.4123,-1.4034,-1.3985,-1.418,-1.4326,-1.4481,-1.4684,-1.483,-1.4944,-1.5037,-1.5045,-1.5045,-1.5094,-1.5285,-1.5496,-1.5585,-1.5902,-1.627,-1.6616,-1.6698,-1.6862,-1.7273,-1.7355,-1.76,-1.7928,-1.8092,-1.8255,-1.85,-1.8673,-1.8673,-1.8673,-1.8673,-1.8673,-1.8755,-1.8913,-1.9228,-1.9513,-1.9373,-1.9374,-1.8957,-1.8454,-1.7864,-1.7428,-1.6886,-1.6329,-1.5991,-1.5638,-1.5228,-3.5418,-3.5418,-3.5418,-3.5625,-3.583,-3.5747,-3.5912,-3.6122,-3.6051,-3.5606,-3.499,-3.4921,-3.4433,-3.3633,-3.3161,-3.2621,-3.2047,-3.0378,-2.9227,-2.831,-2.6863,-2.609,-2.5728,-2.4922,-2.4305,-2.4115,-2.4086,-2.4086,-2.4115,-2.4115,-2.4086,-2.4115,-2.432,-2.4291,-2.413,-2.4393,-2.4481,-2.4276,-2.44,-2.4379,-2.4379,-2.4291,-2.3905,-2.3206,-2.2874,-2.2127,-2.0833,-2.0551,-1.9772,-1.8602,-1.7541,-1.6108,-1.446,-1.391,-1.3555,-1.2914,-1.2954,-1.3092,-1.3271,-1.3457,-1.3628,-1.3782,-1.3872,-1.3985,-1.4123,-1.401,-1.3993,-1.4131,-1.4018,-1.401,-1.4286,-1.4391,-1.4513,-1.4692,-1.4862,-1.5045,-1.5045,-1.5045,-1.5045,-1.5009,-1.5293,-1.5488,-1.5577,-1.5829,-1.6032,-1.6205,-1.6287,-1.6451,-1.678,-1.6944,-1.7108,-1.7519,-1.7764,-1.8001,-1.8255,-1.851,-1.8673,-1.8673,-1.8673,-1.8673,-1.8755,-1.8837,-1.9153,-1.9215,-1.9157,-1.8817,-1.8404,-1.7839,-1.7253,-1.6686,-1.6106,-1.5668,-1.5256,-1.4869,-1.4532,-3.5418,-3.5438,-3.5604,-3.5832,-3.612,-3.6099,-3.6219,-3.6389,-3.6206,-3.5724,-3.5059,-3.4921,-3.4508,-3.3886,-3.3539,-3.3191,-3.2614,-3.146,-3.0335,-2.9195,-2.7567,-2.6763,-2.6413,-2.5553,-2.5022,-2.4847,-2.4803,-2.4803,-2.4803,-2.4788,-2.4744,-2.4701,-2.4832,-2.4774,-2.451,-2.4744,-2.473,-2.4349,-2.4408,-2.4335,-2.4101,-2.3839,-2.3443,-2.2883,-2.2309,-2.1467,-2.0438,-1.9952,-1.9233,-1.8046,-1.6899,-1.5449,-1.4015,-1.3752,-1.345,-1.307,-1.3043,-1.3197,-1.3441,-1.3571,-1.3717,-1.3872,-1.3969,-1.405,-1.414,-1.405,-1.4075,-1.4131,-1.401,-1.405,-1.4351,-1.4432,-1.4546,-1.4781,-1.4895,-1.5037,-1.5045,-1.5045,-1.5009,-1.5106,-1.5342,-1.5512,-1.5658,-1.5837,-1.5958,-1.5966,-1.5966,-1.6048,-1.6369,-1.6451,-1.6698,-1.7117,-1.7437,-1.7764,-1.8001,-1.8337,-1.8673,-1.8673,-1.8673,-1.8673,-1.8755,-1.8755,-1.8918,-1.8745,-1.8708,-1.8281,-1.7828,-1.7089,-1.6495,-1.5982,-1.5401,-1.4968,-1.4544,-1.4301,-1.398,-3.5438,-3.5521,-3.5935,-3.6163,-3.6286,-3.664,-3.6679,-3.6469,-3.6475,-3.5908,-3.5059,-3.4921,-3.4508,-3.3955,-3.3747,-3.34,-3.2631,-3.1894,-3.1067,-2.9862,-2.8279,-2.7083,-2.6737,-2.6121,-2.5813,-2.5842,-2.5871,-2.59,-2.5783,-2.5798,-2.5857,-2.5505,-2.5476,-2.5388,-2.514,-2.5359,-2.5169,-2.4715,-2.4943,-2.4701,-2.4218,-2.3558,-2.3078,-2.2692,-2.1801,-2.1001,-2.0221,-1.9181,-1.8166,-1.7346,-1.5874,-1.4754,-1.4015,-1.3564,-1.3336,-1.3135,-1.31,-1.3311,-1.3563,-1.3598,-1.3758,-1.3928,-1.4042,-1.4172,-1.4164,-1.4123,-1.4099,-1.4123,-1.4018,-1.4066,-1.4351,-1.4464,-1.4619,-1.4887,-1.5037,-1.5045,-1.5045,-1.5045,-1.5033,-1.5204,-1.5398,-1.5569,-1.5699,-1.5886,-1.5983,-1.5925,-1.5925,-1.5999,-1.6048,-1.6205,-1.6287,-1.6616,-1.7026,-1.7437,-1.7682,-1.8092,-1.851,-1.8673,-1.8673,-1.8592,-1.8592,-1.851,-1.85,-1.8419,-1.8092,-1.7673,-1.7091,-1.6401,-1.5827,-1.5272,-1.4802,-1.4349,-1.3973,-1.3746,-1.3514,-3.5625,-3.5935,-3.6059,-3.6515,-3.7029,-3.7012,-3.6927,-3.6898,-3.6594,-3.5928,-3.5059,-3.4921,-3.4471,-3.3798,-3.3798,-3.34,-3.2596,-3.1912,-3.1135,-3.0195,-2.8638,-2.721,-2.6443,-2.6088,-2.6032,-2.6047,-2.6076,-2.6018,-2.6018,-2.6061,-2.6003,-2.59,-2.5915,-2.5754,-2.5476,-2.5535,-2.533,-2.5061,-2.5075,-2.5008,-2.4788,-2.4121,-2.3648,-2.3224,-2.2225,-2.1267,-2.0282,-1.8459,-1.7077,-1.6429,-1.5453,-1.4604,-1.3967,-1.3676,-1.3386,-1.3208,-1.3352,-1.3522,-1.3574,-1.3758,-1.3912,-1.4066,-1.4042,-1.4034,-1.4164,-1.405,-1.3993,-1.3993,-1.4034,-1.4188,-1.4399,-1.4554,-1.4741,-1.4988,-1.5045,-1.5045,-1.5045,-1.5053,-1.5033,-1.522,-1.5407,-1.5528,-1.5626,-1.5731,-1.5853,-1.5861,-1.5869,-1.5918,-1.6008,-1.5966,-1.6122,-1.6205,-1.6616,-1.7026,-1.7437,-1.7846,-1.8255,-1.8592,-1.8592,-1.851,-1.8346,-1.8174,-1.8174,-1.8083,-1.7437,-1.6936,-1.6279,-1.5612,-1.5133,-1.4645,-1.4361,-1.3967,-1.3741,-1.3459,-1.3132,-3.5976,-3.6432,-3.6618,-3.6991,-3.7488,-3.741,-3.7304,-3.7106,-3.6876,-3.6064,-3.5089,-3.4713,-3.4246,-3.3541,-3.3376,-3.2892,-3.2154,-3.1617,-3.0899,-3.0086,-2.8757,-2.7542,-2.6643,-2.6427,-2.6427,-2.6427,-2.6413,-2.6442,-2.6442,-2.6427,-2.6427,-2.6442,-2.6427,-2.6325,-2.6193,-2.6135,-2.59,-2.5549,-2.5447,-2.5359,-2.5052,-2.4405,-2.3983,-2.347,-2.2553,-2.1283,-1.9954,-1.8327,-1.7005,-1.6055,-1.5062,-1.4313,-1.4073,-1.3628,-1.3368,-1.3303,-1.3469,-1.3693,-1.3839,-1.3904,-1.3985,-1.4115,-1.4066,-1.4034,-1.4058,-1.4018,-1.401,-1.3937,-1.4075,-1.4245,-1.4432,-1.4659,-1.4846,-1.502,-1.5045,-1.5045,-1.5045,-1.5041,-1.5163,-1.5317,-1.5447,-1.5553,-1.5601,-1.5658,-1.5699,-1.5756,-1.5788,-1.5886,-1.5999,-1.5942,-1.6048,-1.613,-1.6369,-1.6862,-1.7355,-1.7764,-1.8174,-1.851,-1.8265,-1.8183,-1.8183,-1.7928,-1.7764,-1.7519,-1.6862,-1.6205,-1.5546,-1.4968,-1.4473,-1.4066,-1.3901,-1.3652,-1.3314,-1.3148,-1.2834,-3.6453,-3.6908,-3.7322,-3.7529,-3.7632,-3.8005,-3.775,-3.7213,-3.7079,-3.6228,-3.5024,-3.4497,-3.3958,-3.3206,-3.2863,-3.224,-3.1534,-3.1098,-3.0335,-2.952,-2.8535,-2.765,-2.6968,-2.6866,-2.6881,-2.6896,-2.6969,-2.6939,-2.6881,-2.6925,-2.6954,-2.6896,-2.6925,-2.6969,-2.6822,-2.6881,-2.6647,-2.6222,-2.612,-2.5915,-2.548,-2.4839,-2.4438,-2.4066,-2.2638,-2.1177,-1.9759,-1.8537,-1.7548,-1.6222,-1.4753,-1.4201,-1.415,-1.3578,-1.3428,-1.3636,-1.3774,-1.3912,-1.4083,-1.4018,-1.4002,-1.414,-1.4148,-1.4107,-1.4018,-1.405,-1.405,-1.3977,-1.4099,-1.431,-1.4538,-1.4797,-1.4996,-1.5045,-1.5045,-1.5045,-1.5017,-1.5139,-1.5309,-1.5463,-1.5488,-1.5593,-1.5626,-1.561,-1.5536,-1.5569,-1.5642,-1.578,-1.591,-1.5999,-1.5942,-1.6048,-1.6369,-1.678,-1.7273,-1.7682,-1.8092,-1.8346,-1.7855,-1.7691,-1.7937,-1.7773,-1.7437,-1.6944,-1.6369,-1.5628,-1.4886,-1.4307,-1.3901,-1.3569,-1.3321,-1.3065,-1.2816,-1.2733,-1.2529,-3.6929,-3.7363,-3.7446,-3.7695,-3.8026,-3.815,-3.777,-3.7126,-3.7079,-3.6186,-3.4989,-3.4431,-3.3782,-3.3118,-3.2655,-3.2204,-3.141,-3.0736,-2.9722,-2.8169,-2.8192,-2.7695,-2.7144,-2.6998,-2.6998,-2.6998,-2.6998,-2.6998,-2.6998,-2.6998,-2.6998,-2.6998,-2.6998,-2.6998,-2.6998,-2.6983,-2.6954,-2.6793,-2.6764,-2.6661,-2.64,-2.5797,-2.5272,-2.4889,-2.3179,-2.16,-2.0298,-1.9005,-1.7924,-1.6837,-1.5425,-1.4464,-1.4475,-1.4056,-1.3807,-1.3993,-1.4156,-1.4221,-1.418,-1.414,-1.4131,-1.4156,-1.4066,-1.401,-1.4115,-1.4002,-1.4034,-1.4099,-1.4278,-1.4489,-1.4773,-1.4903,-1.5037,-1.5045,-1.5045,-1.5017,-1.5139,-1.5134,-1.5268,-1.5333,-1.5431,-1.548,-1.5382,-1.5358,-1.5333,-1.5374,-1.5504,-1.5642,-1.5796,-1.5959,-1.6016,-1.5966,-1.613,-1.6534,-1.7273,-1.76,-1.7846,-1.801,-1.76,-1.7199,-1.7363,-1.7281,-1.678,-1.6369,-1.5875,-1.5133,-1.439,-1.3811,-1.3397,-1.3148,-1.2823,-1.2567,-1.2401,-1.2318,-1.2069,-3.7405,-3.7819,-3.7819,-3.7964,-3.8171,-3.8191,-3.778,-3.7064,-3.6823,-3.605,-3.4813,-3.407,-3.336,-3.2823,-3.2243,-3.1625,-3.0954,-3.0174,-2.9049,-2.7996,-2.789,-2.771,-2.7144,-2.6998,-2.6998,-2.6998,-2.6998,-2.6998,-2.6998,-2.6998,-2.6998,-2.6998,-2.6998,-2.6998,-2.6998,-2.6998,-2.6998,-2.6969,-2.6998,-2.6998,-2.6954,-2.646,-2.5707,-2.4966,-2.3569,-2.2221,-2.091,-1.9642,-1.8577,-1.7448,-1.5979,-1.4991,-1.4875,-1.4407,-1.4188,-1.427,-1.4278,-1.4335,-1.4278,-1.4148,-1.4083,-1.4164,-1.4002,-1.3977,-1.401,-1.3953,-1.4002,-1.4156,-1.4343,-1.457,-1.4988,-1.5045,-1.5045,-1.5045,-1.5045,-1.5009,-1.5106,-1.5187,-1.5285,-1.5325,-1.5382,-1.5342,-1.5268,-1.5187,-1.5204,-1.5268,-1.5447,-1.5593,-1.578,-1.5926,-1.5933,-1.5966,-1.5966,-1.6377,-1.7199,-1.7609,-1.7691,-1.76,-1.7273,-1.6862,-1.6706,-1.6451,-1.604,-1.5711,-1.5298,-1.4811,-1.4149,-1.3562,-1.3065,-1.2816,-1.2567,-1.2235,-1.1986,-1.1819,-1.157,-3.7839,-3.8191,-3.8191,-3.8191,-3.8171,-3.8109,-3.7641,-3.6917,-3.6466,-3.5745,-3.4609,-3.357,-3.2973,-3.2422,-3.1773,-3.1027,-3.0246,-2.953,-2.8574,-2.7645,-2.7768,-2.7533,-2.71,-2.6998,-2.6998,-2.6998,-2.6998,-2.6998,-2.6998,-2.6998,-2.6998,-2.6998,-2.6998,-2.6998,-2.6998,-2.6998,-2.6998,-2.6998,-2.6998,-2.6998,-2.6998,-2.6663,-2.5991,-2.5011,-2.3806,-2.2706,-2.1455,-2.0206,-1.9054,-1.8097,-1.6527,-1.5771,-1.5289,-1.4709,-1.431,-1.4464,-1.4383,-1.4335,-1.4294,-1.414,-1.4034,-1.414,-1.4002,-1.3912,-1.3904,-1.3969,-1.4066,-1.4229,-1.4432,-1.4667,-1.5004,-1.5045,-1.5045,-1.5053,-1.5061,-1.5009,-1.5033,-1.5147,-1.5285,-1.5325,-1.5309,-1.526,-1.5171,-1.5082,-1.5122,-1.5187,-1.5366,-1.5545,-1.5723,-1.5878,-1.5959,-1.5958,-1.5966,-1.6205,-1.6944,-1.76,-1.7682,-1.7191,-1.6944,-1.646,-1.6048,-1.5546,-1.5216,-1.5216,-1.4803,-1.4232,-1.3652,-1.3065,-1.2733,-1.2567,-1.2235,-1.1819,-1.157,-1.132,-1.107,-3.8109,-3.8191,-3.8191,-3.8191,-3.8129,-3.7777,-3.7332,-3.6815,-3.6188,-3.5416,-3.4502,-3.352,-3.2819,-3.2335,-3.169,-3.0732,-2.9699,-2.911,-2.8317,-2.74,-2.7524,-2.744,-2.7114,-2.6998,-2.6998,-2.6998,-2.6998,-2.6998,-2.6998,-2.6998,-2.6998,-2.6998,-2.6998,-2.6998,-2.6998,-2.6998,-2.6998,-2.6998,-2.6998,-2.6998,-2.6998,-2.6765,-2.6399,-2.5359,-2.4105,-2.2955,-2.1963,-2.0594,-1.9392,-1.8466,-1.6943,-1.6223,-1.5807,-1.5094,-1.4686,-1.4611,-1.4554,-1.4424,-1.4261,-1.4172,-1.405,-1.3985,-1.392,-1.3904,-1.3928,-1.4042,-1.418,-1.4408,-1.4651,-1.4895,-1.5028,-1.5045,-1.5045,-1.4992,-1.5065,-1.5147,-1.5163,-1.5179,-1.5171,-1.5147,-1.5163,-1.5187,-1.509,-1.5025,-1.5041,-1.5106,-1.5244,-1.5423,-1.5593,-1.5756,-1.5878,-1.5967,-1.5966,-1.6287,-1.6698,-1.7346,-1.7682,-1.6862,-1.646,-1.5982,-1.5487,-1.4728,-1.4397,-1.4394,-1.4109,-1.3562,-1.2982,-1.2573,-1.2343,-1.2189,-1.176,-1.1409,-1.1182,-1.1037,-1.092,-3.8191,-3.8171,-3.7922,-3.7819,-3.7757,-3.7343,-3.6862,-3.6442,-3.5747,-3.5103,-3.4274,-3.3283,-3.263,-3.2268,-3.1699,-3.0602,-2.9533,-2.891,-2.8173,-2.7347,-2.7403,-2.7395,-2.7027,-2.6983,-2.6998,-2.6998,-2.6998,-2.6998,-2.6998,-2.6998,-2.6998,-2.6998,-2.6998,-2.6998,-2.6998,-2.6998,-2.6998,-2.6998,-2.6998,-2.6998,-2.691,-2.6692,-2.6093,-2.5506,-2.4253,-2.3067,-2.2097,-2.0887,-1.9617,-1.8557,-1.7264,-1.6523,-1.5902,-1.5295,-1.47,-1.4667,-1.4546,-1.4383,-1.418,-1.4107,-1.3985,-1.392,-1.3904,-1.3904,-1.3945,-1.4075,-1.4294,-1.4562,-1.4773,-1.5045,-1.5045,-1.5045,-1.5045,-1.4976,-1.5057,-1.5098,-1.5106,-1.5106,-1.5057,-1.4992,-1.5033,-1.5057,-1.5025,-1.5053,-1.5045,-1.5041,-1.5139,-1.5293,-1.5472,-1.5642,-1.5796,-1.6041,-1.613,-1.6287,-1.6534,-1.6944,-1.7264,-1.6534,-1.5916,-1.5518,-1.5059,-1.4401,-1.3895,-1.3654,-1.3244,-1.2746,-1.2497,-1.2087,-1.1951,-1.1825,-1.1423,-1.1182,-1.0924,-1.0829,-1.0813,-3.8046,-3.8005,-3.755,-3.7363,-3.7281,-3.6846,-3.6473,-3.6016,-3.526,-3.4765,-3.4275,-3.3058,-3.2441,-3.2166,-3.1442,-3.0473,-2.9268,-2.891,-2.8044,-2.7208,-2.7266,-2.7274,-2.7025,-2.6969,-2.6998,-2.6998,-2.6998,-2.6998,-2.6998,-2.6998,-2.6998,-2.6998,-2.6998,-2.6998,-2.6998,-2.6998,-2.6998,-2.6998,-2.6998,-2.6998,-2.6838,-2.6239,-2.58,-2.5653,-2.4253,-2.2992,-2.2172,-2.1048,-1.9715,-1.8562,-1.7398,-1.65,-1.5812,-1.5069,-1.4603,-1.4554,-1.4326,-1.4196,-1.4083,-1.401,-1.392,-1.3904,-1.3904,-1.3904,-1.3961,-1.4123,-1.4383,-1.47,-1.4871,-1.5045,-1.5045,-1.5045,-1.4992,-1.5033,-1.5041,-1.5033,-1.5065,-1.5074,-1.5049,-1.5009,-1.5053,-1.5045,-1.5045,-1.5045,-1.5045,-1.5053,-1.5074,-1.5187,-1.5366,-1.5561,-1.574,-1.6024,-1.6205,-1.6451,-1.6534,-1.6369,-1.6451,-1.604,-1.5451,-1.5014,-1.4558,-1.4014,-1.3583,-1.3023,-1.2371,-1.1902,-1.1748,-1.173,-1.1649,-1.1538,-1.1204,-1.1039,-1.0954,-1.0954,-1.0938,-3.757,-3.7529,-3.7074,-3.6887,-3.6825,-3.639,-3.6163,-3.5933,-3.4936,-3.4483,-3.4235,-3.3038,-3.2422,-3.2102,-3.1073,-3.01,-2.9333,-2.861,-2.7772,-2.6893,-2.7076,-2.7004,-2.666,-2.6881,-2.6969,-2.6998,-2.6998,-2.6998,-2.6998,-2.6998,-2.6998,-2.6998,-2.6998,-2.6998,-2.6998,-2.6998,-2.6998,-2.6998,-2.6998,-2.6998,-2.6838,-2.6239,-2.5873,-2.5359,-2.4327,-2.2967,-2.2136,-2.098,-1.9725,-1.8425,-1.7208,-1.6292,-1.5602,-1.4759,-1.4335,-1.4237,-1.418,-1.4107,-1.3977,-1.392,-1.3904,-1.3904,-1.3904,-1.3904,-1.4026,-1.4245,-1.4546,-1.4895,-1.496,-1.496,-1.5045,-1.4976,-1.5049,-1.5114,-1.5155,-1.5163,-1.5171,-1.5057,-1.5033,-1.5,-1.5045,-1.5045,-1.5045,-1.5045,-1.5045,-1.5053,-1.5009,-1.513,-1.5293,-1.5504,-1.5731,-1.6033,-1.6122,-1.6287,-1.6205,-1.6122,-1.5742,-1.5404,-1.4901,-1.4412,-1.3894,-1.3421,-1.2972,-1.2373,-1.1663,-1.1249,-1.125,-1.1328,-1.139,-1.1315,-1.1224,-1.1154,-1.1079,-1.1074,-1.1063,-3.6867,-3.7053,-3.6597,-3.6411,-3.6349,-3.5914,-3.5583,-3.5312,-3.4711,-3.4173,-3.3733,-3.2867,-3.223,-3.1717,-3.075,-3.0053,-2.9316,-2.8593,-2.7643,-2.6824,-2.6885,-2.6869,-2.6658,-2.6822,-2.6983,-2.6998,-2.6998,-2.6998,-2.6998,-2.6998,-2.6998,-2.6998,-2.6998,-2.6998,-2.6998,-2.6998,-2.6998,-2.6998,-2.6998,-2.6998,-2.6765,-2.6239,-2.58,-2.5712,-2.424,-2.3053,-2.1968,-2.0906,-1.9595,-1.8242,-1.7157,-1.6315,-1.5574,-1.4868,-1.443,-1.4026,-1.4018,-1.3977,-1.3912,-1.3904,-1.3904,-1.3904,-1.392,-1.3993,-1.418,-1.4424,-1.4676,-1.4935,-1.5045,-1.5045,-1.5,-1.5065,-1.5074,-1.513,-1.5212,-1.5163,-1.5147,-1.509,-1.5025,-1.4992,-1.5045,-1.5045,-1.5045,-1.5045,-1.5045,-1.5045,-1.5,-1.5098,-1.5293,-1.5545,-1.5772,-1.5999,-1.604,-1.6122,-1.5875,-1.5636,-1.5044,-1.4651,-1.4285,-1.3705,-1.3213,-1.2728,-1.2265,-1.176,-1.1147,-1.0843,-1.0827,-1.08,-1.0763,-1.0993,-1.1323,-1.1145,-1.1058,-1.1183,-1.1161,-3.6142,-3.6432,-3.608,-3.5935,-3.5914,-3.5562,-3.5252,-3.4859,-3.4548,-3.4047,-3.3355,-3.2613,-3.191,-3.1377,-3.0685,-2.997,-2.9316,-2.8593,-2.7611,-2.6951,-2.6709,-2.6663,-2.6553,-2.6676,-2.6896,-2.6983,-2.6998,-2.6998,-2.6998,-2.6998,-2.6998,-2.6998,-2.6998,-2.6998,-2.6998,-2.6998,-2.6998,-2.6998,-2.6998,-2.6998,-2.6838,-2.6239,-2.5817,-2.5263,-2.4182,-2.2829,-2.1788,-2.0654,-1.9368,-1.8081,-1.7165,-1.6259,-1.5362,-1.4877,-1.4394,-1.4016,-1.3928,-1.392,-1.3904,-1.3904,-1.3904,-1.3912,-1.3985,-1.4107,-1.4367,-1.4603,-1.4781,-1.4952,-1.5045,-1.5069,-1.5049,-1.5171,-1.5204,-1.5195,-1.5212,-1.513,-1.5065,-1.5033,-1.5009,-1.4984,-1.5045,-1.5045,-1.5045,-1.5045,-1.5045,-1.5045,-1.5009,-1.5082,-1.5301,-1.5569,-1.5691,-1.5909,-1.5793,-1.5793,-1.5546,-1.5156,-1.4485,-1.3874,-1.3503,-1.3128,-1.2605,-1.2204,-1.176,-1.1191,-1.0522,-1.0214,-1.0073,-1.0099,-1.0219,-1.0462,-1.0615,-1.083,-1.0938,-1.1144,-1.1194,-3.548,-3.55,-3.55,-3.55,-3.55,-3.5438,-3.5232,-3.4859,-3.4548,-3.3985,-3.3228,-3.2422,-3.1717,-3.1267,-3.0685,-2.997,-2.925,-2.8593,-2.7448,-2.6703,-2.6428,-2.6379,-2.6302,-2.6398,-2.6705,-2.6925,-2.6969,-2.6998,-2.6998,-2.6998,-2.6998,-2.6998,-2.6998,-2.6998,-2.6998,-2.6998,-2.6998,-2.6998,-2.6998,-2.6954,-2.6721,-2.6241,-2.5704,-2.5132,-2.3905,-2.2566,-2.1498,-2.0318,-1.913,-1.7826,-1.7014,-1.6092,-1.5221,-1.4828,-1.4437,-1.3984,-1.3904,-1.3904,-1.3904,-1.3904,-1.3904,-1.3945,-1.4066,-1.4229,-1.4416,-1.4611,-1.4781,-1.4944,-1.4992,-1.5065,-1.5147,-1.5244,-1.5309,-1.5285,-1.5244,-1.5163,-1.509,-1.5009,-1.4984,-1.5053,-1.5045,-1.5045,-1.5045,-1.5045,-1.5045,-1.5045,-1.5057,-1.513,-1.5342,-1.5593,-1.5683,-1.5771,-1.5604,-1.5381,-1.5216,-1.4585,-1.3791,-1.31,-1.2739,-1.2427,-1.2119,-1.1713,-1.1226,-1.0662,-1.0048,-0.9736,-0.937,-0.9427,-0.9498,-0.9754,-0.999,-1.0366,-1.0631,-1.0809,-1.0837,-3.5418,-3.5418,-3.5418,-3.5418,-3.5418,-3.5418,-3.5108,-3.461,-3.4423,-3.3796,-3.2702,-3.1955,-3.1377,-3.1055,-3.062,-2.9905,-2.9036,-2.8527,-2.74,-2.6656,-2.633,-2.6199,-2.6081,-2.6208,-2.6588,-2.672,-2.6866,-2.6998,-2.6998,-2.6983,-2.6998,-2.6998,-2.6998,-2.6998,-2.6998,-2.6998,-2.6983,-2.6983,-2.6954,-2.691,-2.6561,-2.594,-2.5452,-2.5014,-2.3569,-2.2337,-2.1257,-2.0149,-1.8849,-1.7714,-1.6952,-1.6031,-1.5212,-1.491,-1.4474,-1.4039,-1.3896,-1.3904,-1.3904,-1.3904,-1.3904,-1.3961,-1.4148,-1.4367,-1.4464,-1.4692,-1.4854,-1.4976,-1.5065,-1.5163,-1.522,-1.5333,-1.5407,-1.5358,-1.5285,-1.5204,-1.5106,-1.5009,-1.5053,-1.5045,-1.5045,-1.5045,-1.5045,-1.5045,-1.5045,-1.5053,-1.5082,-1.522,-1.5439,-1.5538,-1.5707,-1.5599,-1.535,-1.4803,-1.4473,-1.3742,-1.3015,-1.2405,-1.1879,-1.1638,-1.1312,-1.1007,-1.0498,-1.0003,-0.9534,-0.9179,-0.8853,-0.8716,-0.8938,-0.9337,-0.9578,-0.9894,-1.0148,-1.0381,-1.0501,-3.5107,-3.5211,-3.5211,-3.5293,-3.5397,-3.5273,-3.4841,-3.4264,-3.4061,-3.3277,-3.2062,-3.1522,-3.1084,-3.0735,-3.0473,-2.9839,-2.8971,-2.8378,-2.7334,-2.6693,-2.6276,-2.6049,-2.5874,-2.5915,-2.6193,-2.6398,-2.6661,-2.6837,-2.6822,-2.6939,-2.6983,-2.6998,-2.6998,-2.6998,-2.6998,-2.6983,-2.6954,-2.6866,-2.6822,-2.6676,-2.6341,-2.5627,-2.5129,-2.458,-2.3266,-2.2061,-2.0945,-1.9874,-1.8676,-1.7652,-1.6825,-1.6178,-1.5541,-1.4972,-1.4688,-1.4261,-1.3967,-1.3904,-1.3904,-1.3904,-1.3928,-1.4026,-1.4245,-1.4416,-1.457,-1.4797,-1.4952,-1.5065,-1.5171,-1.5277,-1.5333,-1.5472,-1.5472,-1.5415,-1.5293,-1.5195,-1.5074,-1.5045,-1.5045,-1.5045,-1.5045,-1.5045,-1.5017,-1.5033,-1.5106,-1.5098,-1.5139,-1.5309,-1.5561,-1.5635,-1.5658,-1.5443,-1.5118,-1.439,-1.3652,-1.2746,-1.192,-1.1516,-1.1065,-1.0577,-1.034,-1.0113,-0.9854,-0.9459,-0.9002,-0.8571,-0.8412,-0.8433,-0.8627,-0.8995,-0.9219,-0.9351,-0.9502,-0.9729,-1.0083,-3.4484,-3.4816,-3.4878,-3.5066,-3.5355,-3.4962,-3.4492,-3.3861,-3.3376,-3.2468,-3.1442,-3.1227,-3.0891,-3.0392,-3.0241,-2.967,-2.8772,-2.8362,-2.7533,-2.6429,-2.6139,-2.5884,-2.5638,-2.5637,-2.5857,-2.6061,-2.6339,-2.6515,-2.6559,-2.6778,-2.691,-2.6998,-2.6998,-2.6998,-2.6998,-2.6983,-2.6822,-2.6574,-2.6544,-2.6325,-2.595,-2.5299,-2.4778,-2.4149,-2.2964,-2.1772,-2.088,-1.9772,-1.8687,-1.7671,-1.7087,-1.6381,-1.5673,-1.5257,-1.4901,-1.4474,-1.4118,-1.3975,-1.3904,-1.3904,-1.3993,-1.4123,-1.4318,-1.4481,-1.4676,-1.4871,-1.5041,-1.5155,-1.5277,-1.5439,-1.5553,-1.561,-1.5528,-1.5439,-1.5317,-1.5155,-1.5025,-1.5045,-1.5045,-1.5045,-1.5045,-1.5053,-1.5041,-1.5114,-1.522,-1.5252,-1.5244,-1.5398,-1.5666,-1.565,-1.5583,-1.5131,-1.4713,-1.3804,-1.2899,-1.1653,-1.0826,-1.0498,-1.0263,-0.9948,-0.9613,-0.9534,-0.9184,-0.8822,-0.8571,-0.8399,-0.8232,-0.8148,-0.834,-0.861,-0.868,-0.8782,-0.8932,-0.9105,-0.9558,-3.5066,-3.5211,-3.5211,-3.5273,-3.5355,-3.4941,-3.4512,-3.3943,-3.2973,-3.1947,-3.1252,-3.099,-3.0387,-2.9888,-2.9758,-2.9327,-2.8242,-2.8279,-2.7533,-2.6197,-2.6063,-2.5719,-2.5446,-2.5432,-2.5579,-2.5754,-2.6018,-2.631,-2.6515,-2.6661,-2.6822,-2.6925,-2.6998,-2.6998,-2.6925,-2.6822,-2.6588,-2.6471,-2.6296,-2.5962,-2.56,-2.4972,-2.4428,-2.4079,-2.2757,-2.1666,-2.0943,-1.9889,-1.8912,-1.8012,-1.7439,-1.6744,-1.6108,-1.5612,-1.5115,-1.4688,-1.4261,-1.4189,-1.4016,-1.3993,-1.4107,-1.4221,-1.4351,-1.4529,-1.47,-1.4992,-1.5147,-1.5285,-1.5455,-1.5618,-1.5715,-1.5601,-1.5512,-1.5431,-1.5301,-1.5098,-1.5045,-1.5045,-1.5045,-1.5045,-1.5045,-1.5074,-1.5147,-1.5293,-1.5407,-1.5512,-1.552,-1.5553,-1.5764,-1.5575,-1.5342,-1.4766,-1.4135,-1.3141,-1.2152,-1.107,-1.0153,-0.9657,-0.9579,-0.95,-0.9244,-0.8984,-0.8905,-0.8654,-0.8483,-0.8232,-0.8144,-0.806,-0.806,-0.8232,-0.8315,-0.8399,-0.8491,-0.8747,-0.9091,-3.5045,-3.519,-3.519,-3.5293,-3.5335,-3.4941,-3.4429,-3.3618,-3.2534,-3.1614,-3.0835,-3.0625,-3.0045,-2.9413,-2.9305,-2.8864,-2.7682,-2.7883,-2.734,-2.6111,-2.6032,-2.5674,-2.5358,-2.5257,-2.5315,-2.5461,-2.5681,-2.5974,-2.6135,-2.6383,-2.6676,-2.6925,-2.6983,-2.6896,-2.6793,-2.6617,-2.6442,-2.6281,-2.6018,-2.5696,-2.5255,-2.4713,-2.4162,-2.3612,-2.268,-2.1634,-2.1,-2.0237,-1.9262,-1.8503,-1.7801,-1.7168,-1.6532,-1.5966,-1.547,-1.4901,-1.4332,-1.4189,-1.4008,-1.4075,-1.4172,-1.4286,-1.4432,-1.4635,-1.4846,-1.5106,-1.5293,-1.5463,-1.565,-1.5772,-1.5821,-1.5675,-1.5504,-1.5431,-1.5236,-1.5041,-1.5045,-1.5045,-1.5045,-1.5045,-1.5065,-1.5171,-1.5309,-1.5472,-1.5618,-1.5723,-1.5813,-1.5837,-1.5845,-1.5459,-1.5133,-1.4465,-1.3721,-1.2644,-1.1653,-1.0654,-0.9736,-0.8822,-0.8822,-0.8901,-0.8733,-0.8483,-0.8483,-0.8483,-0.8315,-0.8144,-0.8144,-0.806,-0.806,-0.806,-0.8144,-0.8144,-0.8144,-0.8399,-0.8733,-3.4443,-3.4816,-3.4837,-3.5045,-3.5314,-3.5004,-3.402,-3.2611,-3.2196,-3.1249,-3.0035,-3.0373,-2.9744,-2.886,-2.9013,-2.842,-2.7494,-2.7536,-2.6791,-2.6064,-2.5932,-2.5502,-2.5255,-2.5096,-2.514,-2.5198,-2.5359,-2.5593,-2.5637,-2.6222,-2.6661,-2.6925,-2.6998,-2.6837,-2.6647,-2.6457,-2.6266,-2.5988,-2.5681,-2.5403,-2.5077,-2.4431,-2.4076,-2.3543,-2.2722,-2.1841,-2.1138,-2.0376,-1.9471,-1.8703,-1.8153,-1.751,-1.6875,-1.6391,-1.5753,-1.5052,-1.4332,-1.4118,-1.3937,-1.4083,-1.4294,-1.444,-1.4643,-1.4903,-1.5114,-1.5268,-1.5455,-1.5618,-1.578,-1.5894,-1.5877,-1.574,-1.552,-1.5358,-1.5163,-1.5126,-1.5061,-1.5045,-1.5045,-1.5025,-1.5171,-1.5309,-1.5496,-1.5658,-1.578,-1.5845,-1.5918,-1.5951,-1.5795,-1.5393,-1.4961,-1.4217,-1.3307,-1.2152,-1.1153,-1.0153,-0.9402,-0.8566,-0.8315,-0.8399,-0.8227,-0.8144,-0.8232,-0.8232,-0.8144,-0.806,-0.806,-0.806,-0.806,-0.806,-0.806,-0.806,-0.806,-0.8144,-0.8399,-3.5107,-3.5231,-3.5231,-3.5314,-3.5397,-3.5293,-3.4349,-3.3014,-3.2494,-3.1584,-3.0436,-3.0168,-2.9412,-2.8293,-2.8605,-2.7882,-2.7365,-2.6966,-2.6519,-2.6056,-2.5682,-2.5464,-2.5248,-2.5066,-2.5066,-2.5081,-2.5183,-2.5344,-2.5637,-2.6179,-2.6647,-2.6939,-2.6983,-2.6778,-2.6515,-2.6281,-2.5988,-2.5696,-2.5374,-2.5213,-2.496,-2.4442,-2.4102,-2.3611,-2.2859,-2.2035,-2.1415,-2.0792,-1.9959,-1.9262,-1.8573,-1.7931,-1.7168,-1.6734,-1.6169,-1.5123,-1.4554,-1.4269,-1.4024,-1.4188,-1.4432,-1.4651,-1.4903,-1.5074,-1.5277,-1.5455,-1.5642,-1.5772,-1.5886,-1.5983,-1.5861,-1.5748,-1.5569,-1.5407,-1.5195,-1.5094,-1.5045,-1.5045,-1.5053,-1.5114,-1.526,-1.5472,-1.5658,-1.5821,-1.5926,-1.5967,-1.5999,-1.595,-1.5793,-1.5381,-1.4713,-1.4052,-1.2975,-1.1736,-1.0737,-0.9824,-0.9068,-0.8483,-0.8227,-0.806,-0.8144,-0.8144,-0.806,-0.806,-0.806,-0.806,-0.806,-0.806,-0.806,-0.806,-0.806,-0.806,-0.806,-0.8144,-0.8399,-3.5418,-3.5418,-3.5418,-3.5418,-3.5418,-3.5418,-3.4718,-3.3659,-3.3155,-3.2235,-3.0876,-3.0376,-2.9453,-2.8389,-2.8314,-2.766,-2.6508,-2.6731,-2.6376,-2.5627,-2.55,-2.5389,-2.5233,-2.5052,-2.5066,-2.5066,-2.5081,-2.5169,-2.5505,-2.5974,-2.6471,-2.6764,-2.6881,-2.6691,-2.6383,-2.6105,-2.5769,-2.5447,-2.5183,-2.5081,-2.4849,-2.4495,-2.4224,-2.3816,-2.2996,-2.2379,-2.1772,-2.1081,-2.0376,-1.968,-1.8912,-1.8223,-1.7379,-1.6664,-1.6028,-1.5052,-1.4697,-1.4319,-1.4131,-1.4359,-1.4594,-1.4862,-1.5187,-1.5407,-1.5496,-1.5642,-1.5772,-1.5894,-1.5975,-1.5942,-1.5812,-1.5756,-1.5634,-1.5504,-1.5252,-1.5069,-1.5045,-1.5045,-1.5065,-1.5204,-1.539,-1.561,-1.5796,-1.5877,-1.5966,-1.595,-1.5942,-1.595,-1.5711,-1.5216,-1.4548,-1.3804,-1.2561,-1.1403,-1.0404,-0.949,-0.8901,-0.8399,-0.8227,-0.806,-0.806,-0.806,-0.806,-0.806,-0.806,-0.806,-0.806,-0.806,-0.806,-0.806,-0.806,-0.806,-0.806,-0.806,-0.8483,-3.5418,-3.5418,-3.5418,-3.5418,-3.5418,-3.5418,-3.5025,-3.4383,-3.394,-3.2885,-3.1436,-3.0853,-2.9883,-2.8681,-2.8296,-2.7436,-2.6555,-2.6401,-2.6023,-2.5092,-2.5317,-2.5291,-2.5078,-2.5105,-2.5052,-2.5066,-2.5081,-2.514,-2.5301,-2.5769,-2.6266,-2.65,-2.6837,-2.6705,-2.6164,-2.6061,-2.574,-2.5227,-2.511,-2.5052,-2.4984,-2.4699,-2.436,-2.4034,-2.3338,-2.2654,-2.1897,-2.1138,-2.0376,-1.975,-1.9192,-1.8503,-1.7379,-1.6391,-1.5683,-1.5186,-1.4839,-1.4504,-1.439,-1.4539,-1.4749,-1.5065,-1.5455,-1.5658,-1.5756,-1.5796,-1.5902,-1.5959,-1.595,-1.5966,-1.5869,-1.5723,-1.5561,-1.5431,-1.5228,-1.5033,-1.5045,-1.5077,-1.5106,-1.5252,-1.5431,-1.5658,-1.5902,-1.5966,-1.5966,-1.5966,-1.5966,-1.5966,-1.5711,-1.5216,-1.4465,-1.3631,-1.2395,-1.1153,-0.9986,-0.9156,-0.8733,-0.8315,-0.8144,-0.806,-0.806,-0.806,-0.806,-0.806,-0.806,-0.806,-0.806,-0.806,-0.806,-0.806,-0.806,-0.806,-0.806,-0.8064,-0.8566,-3.5418,-3.5418,-3.5418,-3.5418,-3.5418,-3.5418,-3.5046,-3.4423,-3.4322,-3.3257,-3.1794,-3.1148,-3.018,-2.8781,-2.8498,-2.7618,-2.6427,-2.6171,-2.5561,-2.5074,-2.5107,-2.508,-2.4834,-2.4987,-2.5022,-2.5066,-2.5096,-2.5169,-2.5374,-2.5769,-2.6164,-2.6486,-2.6778,-2.6617,-2.6061,-2.6003,-2.571,-2.511,-2.5066,-2.5066,-2.5052,-2.4781,-2.4428,-2.4156,-2.3679,-2.2928,-2.231,-2.176,-2.0723,-1.982,-1.9541,-1.8703,-1.7379,-1.6532,-1.5895,-1.547,-1.5052,-1.4817,-1.4692,-1.4703,-1.4862,-1.5195,-1.5536,-1.5772,-1.5926,-1.5959,-1.5991,-1.5942,-1.5966,-1.5966,-1.5885,-1.5715,-1.5496,-1.5358,-1.5204,-1.5082,-1.5045,-1.5049,-1.5139,-1.5309,-1.548,-1.5699,-1.5861,-1.5966,-1.5966,-1.5966,-1.5966,-1.5966,-1.5711,-1.5216,-1.4383,-1.3466,-1.2229,-1.0987,-0.982,-0.8989,-0.8483,-0.8232,-0.8144,-0.806,-0.806,-0.806,-0.806,-0.806,-0.806,-0.806,-0.806,-0.806,-0.806,-0.806,-0.806,-0.806,-0.8068,-0.8072,-0.8654,-3.5418,-3.5418,-3.5418,-3.5418,-3.5418,-3.5418,-3.4984,-3.4485,-3.436,-3.3532,-3.2131,-3.1564,-3.0606,-2.9101,-2.8764,-2.7798,-2.6482,-2.6194,-2.5498,-2.4935,-2.472,-2.476,-2.4745,-2.4841,-2.4987,-2.5061,-2.5119,-2.5183,-2.5374,-2.5637,-2.5944,-2.6296,-2.6559,-2.6544,-2.6061,-2.5959,-2.571,-2.5163,-2.5066,-2.5066,-2.5066,-2.4849,-2.4645,-2.4442,-2.3952,-2.327,-2.2654,-2.2035,-2.1069,-1.975,-1.9052,-1.8293,-1.7238,-1.6603,-1.6037,-1.5612,-1.5221,-1.4986,-1.4939,-1.4885,-1.5,-1.5366,-1.5699,-1.5975,-1.5991,-1.6016,-1.6016,-1.5966,-1.5966,-1.5966,-1.5869,-1.574,-1.5577,-1.5431,-1.5195,-1.5086,-1.5045,-1.5077,-1.5187,-1.5415,-1.5561,-1.5683,-1.5902,-1.5966,-1.5966,-1.5966,-1.5966,-1.5966,-1.5711,-1.5216,-1.4383,-1.339,-1.2063,-1.0904,-0.9653,-0.8901,-0.8315,-0.8144,-0.806,-0.806,-0.806,-0.806,-0.806,-0.806,-0.806,-0.806,-0.806,-0.806,-0.806,-0.806,-0.806,-0.806,-0.8072,-0.8181,-0.8543,-3.5418,-3.5418,-3.5418,-3.5418,-3.5418,-3.5418,-3.5046,-3.4485,-3.436,-3.367,-3.2409,-3.2005,-3.1035,-2.9888,-2.9057,-2.786,-2.6985,-2.6426,-2.564,-2.4858,-2.4619,-2.4565,-2.4568,-2.465,-2.487,-2.5031,-2.5052,-2.5134,-2.5193,-2.5432,-2.574,-2.5988,-2.6179,-2.631,-2.6076,-2.5944,-2.571,-2.5227,-2.5066,-2.5066,-2.5066,-2.5066,-2.4916,-2.4578,-2.4156,-2.3693,-2.2928,-2.2173,-2.122,-1.9901,-1.8503,-1.7731,-1.7168,-1.6603,-1.6178,-1.5753,-1.5266,-1.518,-1.5183,-1.5101,-1.5282,-1.5593,-1.5894,-1.5958,-1.5966,-1.5966,-1.5966,-1.5966,-1.5966,-1.5933,-1.5837,-1.5764,-1.561,-1.5447,-1.5187,-1.5045,-1.5045,-1.5053,-1.5204,-1.5463,-1.5593,-1.5699,-1.5869,-1.5933,-1.5966,-1.5966,-1.5966,-1.5966,-1.5793,-1.5133,-1.4383,-1.3224,-1.1896,-1.0737,-0.9569,-0.8817,-0.8144,-0.8144,-0.806,-0.806,-0.806,-0.806,-0.806,-0.806,-0.806,-0.806,-0.806,-0.806,-0.806,-0.806,-0.806,-0.8068,-0.8117,-0.823,-0.8454,-3.5418,-3.5418,-3.5418,-3.5418,-3.5418,-3.5418,-3.4984,-3.4485,-3.436,-3.367,-3.2638,-3.2218,-3.1376,-2.9821,-2.9651,-2.8708,-2.7197,-2.6694,-2.5673,-2.4793,-2.4619,-2.443,-2.4384,-2.4621,-2.4841,-2.5002,-2.5066,-2.5066,-2.5149,-2.5344,-2.5549,-2.5681,-2.6266,-2.6208,-2.5754,-2.571,-2.5725,-2.5257,-2.5066,-2.5066,-2.5066,-2.5066,-2.5066,-2.4781,-2.4374,-2.3816,-2.3201,-2.231,-2.1289,-1.9901,-1.8433,-1.759,-1.7026,-1.6673,-1.6178,-1.5895,-1.5408,-1.5325,-1.5314,-1.5118,-1.5282,-1.5585,-1.5845,-1.5958,-1.5966,-1.5966,-1.5966,-1.5966,-1.5966,-1.5966,-1.5861,-1.5691,-1.5512,-1.5374,-1.5171,-1.511,-1.5045,-1.5017,-1.5139,-1.5358,-1.5536,-1.5731,-1.5885,-1.5966,-1.5966,-1.5966,-1.5966,-1.5966,-1.5883,-1.5216,-1.4383,-1.3141,-1.1813,-1.0654,-0.9574,-0.865,-0.8144,-0.806,-0.806,-0.806,-0.806,-0.806,-0.806,-0.806,-0.806,-0.806,-0.806,-0.806,-0.806,-0.806,-0.806,-0.8076,-0.8134,-0.8296,-0.8538]},{"header":{"parameterUnit":"m.s-1","parameterCategory":1,"la1":31.0,"la2":29.5877,"lo1":-88.7671,"lo2":-86.6584,"dy":0.0162,"dx":0.0185,"nx":115,"ny":88,"refTime":"2024-05-31T06:00:00:Z","depth":0,"parameterNumber":3,"parameterNumberName":"V-component_of_WINDS"},"data":[0.0,0.0,0.0,0.0,0.0,0.0,0.0,0.0,0.0,0.0,0.0,0.0,0.0,0.0,0.0,0.0,0.0,0.0,0.0,0.0,0.0,0.0,0.0,0.0,0.0,0.0,0.0,0.0,0.0,0.0,0.0,0.0,0.0,0.0,0.0,0.0,0.0,0.0,0.0,0.0,0.0,0.0,0.0,0.0,0.0,0.0,0.0,0.0,0.0,0.0,0.0,0.0,0.0,0.0,0.0,0.0,0.0,0.0,0.0,0.0,0.0,0.0,0.0,0.0,0.0,0.0,0.0,0.0,0.0,0.0,0.0,0.0,0.0,0.0,0.0,0.0,0.0,0.0,0.0,0.0,0.0,0.0,0.0,0.0,0.0,0.0,0.0,0.0,0.0,0.0,0.0,0.0,0.0,0.0,0.0,0.0,0.0,0.0,0.0,0.0,0.0,0.0,0.0,0.0,0.0,0.0,0.0,0.0,0.0,0.0,0.0,0.0,0.0,0.0,0.0,0.0,0.0,0.0,0.0,0.0,0.0,0.0,0.0,0.0,0.0,0.0,0.0,0.0,0.0,0.0,0.0,0.0,0.0,0.0,0.0,0.0,0.0,0.0,0.0,0.0,0.0,0.0,0.0,0.0,0.0,0.0,0.0,0.0,0.0,0.0,0.0,0.0,0.0,0.0,0.0,0.0,0.0,0.0,0.0,0.0,0.0,0.0,0.0,0.0,0.0,0.0,0.0,0.0,0.0,0.0,0.0,0.0,0.0,0.0,0.0,0.0,0.0,0.0,0.0,0.0,0.0,0.0,0.0,0.0,0.0,0.0,0.0,0.0,0.0,0.0,0.0,0.0,0.0,0.0,0.0,0.0,0.0,0.0,0.0,0.0,0.0,0.0,0.0,0.0,0.0,0.0,0.0,0.0,0.0,0.0,0.0,0.0,0.0,0.0,0.0,0.0,0.0,0.0,0.0,0.0,0.0,0.0,0.0,0.0,0.0,0.0,0.0,0.0,0.0,0.0,0.0,0.0,0.0,0.0,0.0,0.0,0.0,0.0,0.0,0.0,0.0,0.0,0.0,0.0,0.0,0.0,0.0,0.0,0.0,0.0,0.0,0.0,0.0,0.0,0.0,0.0,0.0,0.0,0.0,0.0,0.0,0.0,0.0,0.0,0.0,0.0,0.0,0.0,0.0,0.0,0.0,0.0,0.0,0.0,0.0,0.0,0.0,0.0,0.0,0.0,0.0,0.0,0.0,0.0,0.0,0.0,0.0,0.0,0.0,0.0,0.0,0.0,0.0,0.0,0.0,0.0,0.0,0.0,0.0,0.0,0.0,0.0,0.0,0.0,0.0,0.0,0.0,0.0,0.0,0.0,0.0,0.0,0.0,0.0,0.0,0.0,0.0,0.0,0.0,0.0,0.0,0.0,0.0,0.0,0.0,0.0,0.0,0.0,0.0,0.0,0.0,0.0,0.0,0.0,0.0,0.0,0.0,0.0,0.0,0.0,0.0,0.0,0.0,0.0,0.0,0.0,0.0,0.0,0.0,0.0,0.0,0.0,0.0,0.0,0.0,0.0,0.0,0.0,0.0,0.0,0.0,0.0,0.0,0.0,0.0,0.0,0.0,0.0,0.0,0.0,0.0,0.0,0.0,0.0,0.0,0.0,0.0,0.0,0.0,0.0,0.0,0.0,0.0,0.0,0.0,0.0,0.0,0.0,0.0,0.0,0.0,0.0,0.0,0.0,0.0,0.0,0.0,0.0,0.0,0.0,0.0,0.0,0.0,0.0,0.0,0.0,0.0,0.0,0.0,0.0,0.0,0.0,0.0,0.0,0.0,0.0,0.0,0.0,0.0,0.0,0.0,0.0,0.0,0.0,0.0,0.0,0.0,0.0,0.0,0.0,0.0,0.0,0.0,0.0,0.0,0.0,0.0,0.0,0.0,0.0,0.0,0.0,0.0,0.0,0.0,0.0,0.0,0.0,0.0,0.0,0.0,0.0,0.0,0.0,0.0,0.0,0.0,0.0,0.0,0.0,0.0,0.0,0.0,0.0,0.0,0.0,0.0,0.0,0.0,0.0,0.0,0.0,0.0,0.0,0.0,0.0,0.0,0.0,0.0,0.0,0.0,0.0,0.0,0.0,0.0,0.0,0.0,0.0,0.0,0.0,0.0,0.0,0.0,0.0,0.0,0.0,0.0,0.0,0.0,0.0,0.0,0.0,0.0,0.0,0.0,0.0,0.0,0.0,0.0,0.0,0.0,0.0,0.0,0.0,0.0,0.0,0.0,0.0,0.0,0.0,0.0,0.0,0.0,0.0,0.0,0.0,0.0,0.0,0.0,0.0,0.0,0.0,0.0,0.0,0.0,0.0,0.0,0.0,0.0,0.0,0.0,0.0,0.0,0.0,0.0,0.0,0.0,0.0,0.0,0.0,0.0,0.0,0.0,0.0,0.0,0.0,0.0,0.0,0.0,0.0,0.0,0.0,0.0,0.0,0.0,0.0,0.0,0.0,0.0,0.0,0.0,0.0,0.0,0.0,0.0,0.0,0.0,0.0,0.0,0.0,0.0,0.0,0.0,0.0,0.0,0.0,0.0,0.0,0.0,0.0,0.0,0.0,0.0,0.0,0.0,0.0,0.0,0.0,0.0,0.0,0.0,0.0,0.0,0.0,0.0,0.0,0.0,0.0,0.0,0.0,0.0,0.0,0.0,0.0,0.0,0.0,0.0,0.0,0.0,0.0,0.0,0.0,0.0,0.0,0.0,0.0,0.0,0.0,0.0,0.0,0.0,0.0,0.0,0.0,0.0,0.0,0.0,0.0,0.0,0.0,0.0,0.0,0.0,0.0,0.0,0.0,0.0,0.0,0.0,0.0,0.0,0.0,0.0,0.0,0.0,0.0,0.0,0.0,0.0,0.0,0.0,0.0,0.0,0.0,0.0,0.0,0.0,0.0,0.0,0.0,0.0,0.0,0.0,0.0,0.0,0.0,0.0,0.0,0.0,0.0,0.0,0.0,0.0,0.0,0.0,0.0,0.0,0.0,0.0,0.0,0.0,0.0,0.0,0.0,0.0,0.0,0.0,0.0,0.0,0.0,0.0,0.0,0.0,0.0,0.0,0.0,0.0,0.0,0.0,0.0,0.0,0.0,0.0,0.0,0.0,0.0,0.0,0.0,0.0,0.0,0.0,0.0,0.0,0.0,0.0,0.0,0.0,0.0,0.0,0.0,0.0,0.0,0.0,0.0,0.0,0.0,0.0,0.0,0.0,0.0,0.0,0.0,0.0,0.0,0.0,0.0,0.0,0.0,0.0,0.0,0.0,0.0,0.0,0.0,0.0,0.0,0.0,0.0,0.0,0.0,0.0,0.0,0.0,0.0,0.0,0.0,0.0,0.0,0.0,0.0,0.0,0.0,0.0,0.0,0.0,0.0,0.0,0.0,0.0,0.0,0.0,0.0,0.0,0.0,0.0,0.0,0.0,0.0,0.0,0.0,0.0,0.0,0.0,0.0,0.0,0.0,0.0,0.0,0.0,0.0,0.0,0.0,0.0,0.0,0.0,0.0,0.0,0.0,0.0,0.0,0.0,0.0,0.0,0.0,0.0,0.0,0.0,0.0,0.0,0.0,0.0,0.0,0.0,0.0,0.0,0.0,0.0,0.0,0.0,0.0,0.0,0.0,0.0,0.0,0.0,0.0,0.0,0.0,0.0,0.0,0.0,0.0,0.0,0.0,0.0,0.0,0.0,0.0,0.0,0.0,0.0,0.0,0.0,0.0,0.0,0.0,0.0,0.0,0.0,0.0,0.0,0.0,0.0,0.0,0.0,0.0,0.0,0.0,0.0,0.0,0.0,0.0,0.0,0.0,0.0,0.0,0.0,0.0,0.0,0.0,0.0,0.0,0.0,0.0,0.0,0.0,0.0,0.0,0.0,0.0,0.0,0.0,0.0,0.0,0.0,0.0,0.0,0.0,0.0,0.0,0.0,0.0,0.0,0.0,0.0,0.0,0.0,0.0,0.0,0.0,0.0,0.0,0.0,0.0,0.0,0.0,0.0,0.0,0.0,0.0,0.0,0.0,0.0,0.0,0.0,0.0,0.0,0.0,0.0,0.0,0.0,0.0,0.0,0.0,0.0,0.0,0.0,0.0,0.0,0.0,0.0,0.0,0.0,0.0,0.0,0.0,0.0,0.0,0.0,0.0,0.0,0.0,0.0,0.0,0.0,0.0,0.0,0.0,0.0,0.0,0.0,0.0,0.0,0.0,0.0,0.0,3.7146,0.0,0.0,0.0,0.0,0.0,0.0,0.0,0.0,0.0,0.0,0.0,0.0,0.0,0.0,0.0,0.0,0.0,0.0,0.0,0.0,0.0,0.0,0.0,0.0,0.0,0.0,0.0,0.0,0.0,0.0,0.0,0.0,0.0,0.0,0.0,0.0,0.0,0.0,0.0,0.0,0.0,0.0,0.0,0.0,0.0,0.0,0.0,0.0,0.0,0.0,0.0,0.0,0.0,0.0,0.0,0.0,0.0,0.0,0.0,0.0,0.0,0.0,0.0,0.0,0.0,0.0,0.0,0.0,0.0,0.0,0.0,0.0,0.0,0.0,0.0,0.0,0.0,0.0,0.0,0.0,0.0,0.0,0.0,0.0,0.0,0.0,0.0,0.0,0.0,0.0,0.0,0.0,0.0,0.0,0.0,0.0,0.0,0.0,0.0,0.0,0.0,0.0,0.0,0.0,0.0,0.0,0.0,0.0,0.0,0.0,3.7944,3.9214,3.8322,3.766,3.7381,0.0,0.0,0.0,0.0,0.0,0.0,0.0,0.0,0.0,0.0,0.0,0.0,0.0,0.0,0.0,0.0,0.0,0.0,0.0,0.0,0.0,0.0,0.0,0.0,0.0,0.0,0.0,0.0,0.0,0.0,0.0,0.0,0.0,0.0,0.0,0.0,0.0,0.0,0.0,0.0,0.0,0.0,0.0,0.0,0.0,0.0,0.0,0.0,0.0,0.0,0.0,0.0,0.0,0.0,0.0,0.0,0.0,0.0,0.0,0.0,0.0,0.0,0.0,0.0,0.0,0.0,0.0,0.0,0.0,0.0,0.0,0.0,0.0,0.0,0.0,0.0,0.0,0.0,0.0,0.0,0.0,0.0,0.0,0.0,0.0,0.0,0.0,0.0,0.0,0.0,0.0,0.0,0.0,0.0,0.0,0.0,0.0,0.0,0.0,0.0,0.0,0.0,0.0,0.0,0.0,0.0,0.0,0.0,0.0,0.0,0.0,0.0,3.8955,3.8322,3.7602,0.0,0.0,0.0,0.0,0.0,0.0,0.0,0.0,0.0,0.0,0.0,0.0,0.0,0.0,0.0,0.0,0.0,0.0,0.0,0.0,0.0,0.0,0.0,0.0,0.0,0.0,0.0,0.0,0.0,0.0,0.0,0.0,0.0,0.0,0.0,0.0,0.0,0.0,0.0,0.0,0.0,0.0,0.0,0.0,0.0,0.0,0.0,0.0,0.0,0.0,0.0,0.0,0.0,0.0,0.0,0.0,0.0,0.0,0.0,0.0,0.0,0.0,0.0,0.0,0.0,0.0,0.0,0.0,0.0,0.0,0.0,0.0,0.0,0.0,0.0,0.0,0.0,0.0,0.0,0.0,0.0,0.0,0.0,0.0,0.0,0.0,0.0,0.0,0.0,0.0,0.0,0.0,0.0,0.0,0.0,0.0,0.0,0.0,0.0,0.0,0.0,0.0,0.0,0.0,0.0,0.0,0.0,0.0,0.0,0.0,3.8154,4.0127,4.0118,0.0,3.8403,0.0,0.0,0.0,0.0,0.0,0.0,0.0,0.0,0.0,0.0,0.0,0.0,0.0,0.0,0.0,0.0,0.0,0.0,0.0,0.0,0.0,0.0,0.0,0.0,0.0,0.0,0.0,0.0,0.0,0.0,0.0,0.0,0.0,0.0,0.0,0.0,0.0,0.0,0.0,0.0,0.0,0.0,0.0,0.0,0.0,0.0,0.0,0.0,0.0,0.0,0.0,0.0,0.0,0.0,0.0,0.0,0.0,0.0,0.0,0.0,0.0,0.0,0.0,0.0,0.0,0.0,0.0,0.0,0.0,0.0,0.0,0.0,0.0,0.0,0.0,0.0,0.0,0.0,0.0,0.0,0.0,0.0,0.0,0.0,0.0,0.0,0.0,0.0,0.0,0.0,0.0,0.0,0.0,0.0,0.0,0.0,0.0,0.0,0.0,0.0,0.0,0.0,0.0,0.0,0.0,0.0,0.0,0.0,0.0,0.0,3.9068,4.0807,4.0084,3.9095,0.0,0.0,0.0,0.0,0.0,0.0,0.0,0.0,0.0,0.0,0.0,0.0,0.0,0.0,0.0,0.0,0.0,0.0,0.0,0.0,0.0,0.0,0.0,0.0,0.0,0.0,0.0,0.0,0.0,0.0,0.0,0.0,0.0,0.0,0.0,0.0,0.0,0.0,0.0,0.0,0.0,0.0,0.0,0.0,0.0,0.0,0.0,0.0,0.0,0.0,0.0,0.0,0.0,0.0,0.0,0.0,0.0,0.0,0.0,0.0,0.0,0.0,0.0,0.0,0.0,0.0,0.0,0.0,0.0,0.0,0.0,0.0,0.0,0.0,0.0,0.0,0.0,0.0,0.0,0.0,0.0,0.0,0.0,0.0,0.0,0.0,0.0,0.0,0.0,0.0,0.0,0.0,0.0,0.0,0.0,0.0,0.0,0.0,0.0,0.0,0.0,0.0,0.0,0.0,0.0,0.0,0.0,0.0,0.0,0.0,3.9106,0.0,4.1035,4.0177,3.8903,3.7317,0.0,0.0,0.0,0.0,0.0,0.0,0.0,0.0,0.0,0.0,0.0,0.0,0.0,0.0,0.0,0.0,0.0,0.0,0.0,0.0,0.0,0.0,0.0,0.0,0.0,0.0,0.0,0.0,0.0,0.0,0.0,0.0,0.0,0.0,0.0,0.0,0.0,0.0,0.0,0.0,0.0,0.0,0.0,0.0,0.0,0.0,0.0,0.0,0.0,0.0,0.0,0.0,0.0,0.0,0.0,0.0,0.0,0.0,0.0,0.0,0.0,0.0,0.0,0.0,0.0,0.0,0.0,0.0,0.0,0.0,0.0,0.0,0.0,0.0,0.0,0.0,0.0,0.0,0.0,0.0,0.0,0.0,0.0,0.0,0.0,0.0,0.0,0.0,0.0,0.0,0.0,0.0,0.0,0.0,0.0,0.0,0.0,0.0,0.0,0.0,0.0,0.0,0.0,0.0,0.0,0.0,0.0,0.0,0.0,3.9343,3.9715,4.117,4.0737,3.9416,0.0,0.0,0.0,0.0,0.0,0.0,0.0,0.0,0.0,0.0,0.0,0.0,0.0,0.0,0.0,0.0,0.0,0.0,0.0,0.0,0.0,0.0,0.0,0.0,0.0,0.0,0.0,0.0,0.0,0.0,0.0,0.0,0.0,0.0,0.0,0.0,0.0,0.0,0.0,0.0,0.0,0.0,0.0,0.0,0.0,0.0,0.0,0.0,0.0,0.0,0.0,0.0,0.0,0.0,0.0,0.0,0.0,0.0,0.0,0.0,0.0,0.0,0.0,0.0,0.0,0.0,0.0,0.0,0.0,0.0,0.0,0.0,0.0,0.0,0.0,0.0,0.0,0.0,0.0,0.0,0.0,0.0,0.0,0.0,0.0,0.0,0.0,0.0,0.0,0.0,0.0,0.0,0.0,0.0,0.0,0.0,0.0,0.0,0.0,0.0,0.0,0.0,0.0,0.0,0.0,0.0,0.0,0.0,0.0,3.8667,3.9343,4.068,4.2615,3.991,3.8185,0.0,0.0,0.0,0.0,0.0,0.0,0.0,0.0,0.0,0.0,0.0,0.0,0.0,0.0,0.0,0.0,0.0,0.0,0.0,0.0,0.0,0.0,0.0,0.0,0.0,0.0,0.0,0.0,0.0,0.0,0.0,0.0,0.0,0.0,0.0,0.0,0.0,0.0,0.0,0.0,0.0,0.0,0.0,0.0,0.0,0.0,0.0,0.0,0.0,0.0,0.0,0.0,0.0,0.0,0.0,0.0,0.0,0.0,0.0,0.0,0.0,0.0,0.0,0.0,0.0,0.0,0.0,0.0,0.0,0.0,0.0,0.0,0.0,0.0,0.0,0.0,0.0,0.0,0.0,0.0,0.0,0.0,0.0,0.0,0.0,0.0,0.0,0.0,0.0,0.0,0.0,0.0,0.0,0.0,0.0,0.0,0.0,0.0,0.0,0.0,0.0,0.0,0.0,0.0,0.0,0.0,0.0,0.0,0.0,3.8633,0.0,4.1383,0.0,3.9764,3.79,0.0,0.0,0.0,0.0,0.0,0.0,0.0,0.0,0.0,0.0,0.0,0.0,0.0,0.0,0.0,0.0,0.0,0.0,0.0,0.0,0.0,0.0,0.0,0.0,0.0,0.0,0.0,0.0,0.0,0.0,0.0,0.0,0.0,0.0,0.0,0.0,0.0,0.0,0.0,0.0,0.0,0.0,0.0,0.0,0.0,0.0,0.0,0.0,0.0,0.0,0.0,0.0,0.0,0.0,0.0,0.0,0.0,0.0,0.0,0.0,0.0,0.0,0.0,0.0,0.0,0.0,0.0,0.0,0.0,0.0,0.0,0.0,0.0,0.0,0.0,0.0,0.0,0.0,0.0,0.0,0.0,0.0,0.0,0.0,0.0,0.0,0.0,0.0,0.0,0.0,0.0,0.0,0.0,0.0,0.0,0.0,0.0,0.0,0.0,0.0,0.0,0.0,0.0,0.0,0.0,0.0,0.0,0.0,3.8898,4.0087,4.1474,4.1654,4.0424,4.0368,3.871,0.0,0.0,0.0,0.0,0.0,0.0,0.0,0.0,0.0,0.0,0.0,0.0,0.0,0.0,0.0,0.0,0.0,0.0,0.0,0.0,0.0,0.0,0.0,0.0,0.0,0.0,0.0,0.0,0.0,0.0,0.0,0.0,0.0,0.0,0.0,0.0,0.0,0.0,0.0,0.0,0.0,0.0,0.0,0.0,0.0,0.0,0.0,0.0,0.0,0.0,0.0,0.0,0.0,0.0,0.0,0.0,0.0,0.0,0.0,0.0,0.0,0.0,0.0,0.0,0.0,0.0,0.0,0.0,0.0,0.0,0.0,0.0,0.0,0.0,0.0,0.0,0.0,0.0,0.0,0.0,0.0,0.0,0.0,0.0,0.0,0.0,0.0,0.0,0.0,0.0,0.0,0.0,0.0,0.0,0.0,0.0,0.0,0.0,0.0,0.0,0.0,0.0,0.0,0.0,0.0,0.0,0.0,0.0,0.0,4.0146,4.1206,4.2125,4.2654,3.984,3.8265,0.0,0.0,0.0,0.0,0.0,0.0,0.0,0.0,0.0,0.0,0.0,0.0,0.0,0.0,0.0,0.0,0.0,0.0,0.0,0.0,0.0,0.0,0.0,0.0,0.0,0.0,0.0,0.0,0.0,0.0,0.0,0.0,0.0,0.0,0.0,0.0,0.0,0.0,0.0,0.0,0.0,0.0,0.0,0.0,0.0,0.0,0.0,0.0,0.0,0.0,0.0,0.0,0.0,0.0,0.0,0.0,0.0,0.0,0.0,0.0,0.0,0.0,0.0,0.0,0.0,0.0,0.0,0.0,0.0,0.0,0.0,0.0,0.0,0.0,0.0,0.0,0.0,0.0,0.0,0.0,0.0,0.0,0.0,0.0,0.0,0.0,0.0,0.0,0.0,0.0,0.0,0.0,0.0,0.0,0.0,0.0,0.0,0.0,0.0,0.0,0.0,0.0,0.0,0.0,0.0,0.0,0.0,0.0,0.0,4.1365,4.2286,4.3022,4.3502,4.0587,3.9204,3.9629,0.0,0.0,0.0,0.0,0.0,0.0,0.0,0.0,0.0,0.0,0.0,0.0,0.0,0.0,0.0,0.0,0.0,0.0,0.0,0.0,0.0,0.0,0.0,0.0,0.0,0.0,0.0,0.0,0.0,0.0,0.0,0.0,0.0,0.0,0.0,0.0,0.0,0.0,0.0,0.0,0.0,0.0,0.0,0.0,0.0,0.0,0.0,0.0,0.0,0.0,0.0,0.0,0.0,0.0,0.0,0.0,0.0,0.0,0.0,0.0,0.0,0.0,0.0,0.0,0.0,0.0,0.0,0.0,0.0,0.0,0.0,0.0,0.0,0.0,0.0,0.0,0.0,0.0,0.0,0.0,0.0,0.0,0.0,0.0,0.0,0.0,0.0,0.0,0.0,0.0,0.0,0.0,0.0,0.0,0.0,0.0,0.0,0.0,0.0,0.0,0.0,0.0,0.0,0.0,0.0,0.0,0.0,0.0,4.3403,4.4313,4.4258,4.3091,4.2224,4.1199,0.0,0.0,0.0,0.0,0.0,0.0,0.0,0.0,0.0,0.0,0.0,0.0,0.0,0.0,0.0,0.0,0.0,0.0,0.0,0.0,0.0,0.0,0.0,0.0,0.0,0.0,0.0,0.0,0.0,0.0,0.0,0.0,0.0,0.0,0.0,0.0,0.0,0.0,0.0,0.0,0.0,0.0,0.0,0.0,0.0,0.0,0.0,0.0,0.0,0.0,0.0,0.0,0.0,0.0,0.0,0.0,0.0,0.0,0.0,0.0,0.0,0.0,0.0,0.0,0.0,0.0,0.0,0.0,0.0,0.0,0.0,0.0,0.0,0.0,0.0,0.0,0.0,0.0,0.0,0.0,0.0,0.0,0.0,0.0,0.0,0.0,0.0,0.0,0.0,0.0,0.0,0.0,0.0,0.0,0.0,0.0,0.0,0.0,0.0,0.0,0.0,0.0,0.0,0.0,0.0,0.0,0.0,0.0,0.0,4.3795,4.4565,4.479,4.4399,4.2824,4.1778,0.0,0.0,0.0,0.0,0.0,0.0,0.0,0.0,0.0,0.0,0.0,0.0,0.0,0.0,0.0,0.0,0.0,0.0,0.0,0.0,0.0,0.0,0.0,0.0,0.0,0.0,0.0,0.0,0.0,0.0,0.0,0.0,0.0,0.0,0.0,0.0,0.0,0.0,0.0,0.0,0.0,0.0,0.0,0.0,0.0,0.0,0.0,0.0,0.0,0.0,0.0,0.0,0.0,0.0,0.0,0.0,0.0,0.0,0.0,0.0,0.0,0.0,0.0,0.0,0.0,0.0,0.0,0.0,0.0,0.0,0.0,0.0,0.0,0.0,0.0,0.0,0.0,0.0,0.0,0.0,0.0,0.0,0.0,0.0,0.0,0.0,0.0,0.0,0.0,0.0,0.0,0.0,0.0,0.0,0.0,0.0,0.0,0.0,0.0,0.0,0.0,0.0,0.0,0.0,0.0,0.0,0.0,0.0,4.4489,4.4299,4.4763,4.5015,4.5069,4.3984,4.3113,0.0,0.0,0.0,0.0,0.0,0.0,0.0,0.0,0.0,0.0,0.0,0.0,0.0,0.0,0.0,0.0,0.0,0.0,0.0,0.0,0.0,0.0,0.0,0.0,0.0,0.0,0.0,0.0,0.0,0.0,0.0,0.0,0.0,0.0,0.0,0.0,0.0,0.0,0.0,0.0,0.0,0.0,0.0,0.0,0.0,0.0,0.0,0.0,0.0,0.0,0.0,0.0,0.0,0.0,0.0,0.0,0.0,0.0,0.0,0.0,0.0,0.0,0.0,0.0,0.0,0.0,0.0,0.0,0.0,0.0,0.0,0.0,0.0,0.0,0.0,0.0,0.0,0.0,0.0,0.0,0.0,0.0,0.0,0.0,0.0,0.0,0.0,0.0,0.0,0.0,0.0,0.0,0.0,0.0,0.0,0.0,0.0,0.0,0.0,0.0,0.0,0.0,0.0,0.0,0.0,0.0,0.0,0.0,4.4766,4.4803,4.4968,4.5103,4.5203,4.5275,4.4665,0.0,0.0,0.0,0.0,0.0,0.0,0.0,0.0,0.0,0.0,0.0,0.0,0.0,0.0,0.0,0.0,0.0,0.0,0.0,0.0,0.0,0.0,0.0,0.0,0.0,0.0,0.0,0.0,0.0,0.0,0.0,0.0,0.0,0.0,0.0,0.0,0.0,0.0,0.0,0.0,0.0,0.0,0.0,0.0,0.0,0.0,0.0,0.0,0.0,0.0,0.0,0.0,0.0,0.0,0.0,0.0,0.0,0.0,0.0,0.0,0.0,0.0,0.0,0.0,0.0,0.0,0.0,0.0,0.0,0.0,0.0,0.0,0.0,0.0,0.0,0.0,0.0,0.0,0.0,0.0,0.0,0.0,0.0,0.0,0.0,0.0,0.0,0.0,0.0,0.0,0.0,0.0,0.0,0.0,0.0,0.0,0.0,0.0,0.0,0.0,0.0,0.0,0.0,0.0,0.0,0.0,0.0,0.0,4.5416,4.4968,4.5103,4.5203,4.5344,4.4811,4.438,0.0,0.0,0.0,0.0,0.0,0.0,0.0,0.0,0.0,0.0,0.0,0.0,0.0,0.0,0.0,0.0,0.0,0.0,0.0,0.0,0.0,0.0,0.0,0.0,0.0,0.0,0.0,0.0,0.0,0.0,0.0,0.0,0.0,0.0,0.0,0.0,0.0,0.0,0.0,0.0,0.0,0.0,0.0,0.0,0.0,0.0,0.0,0.0,4.6499,0.0,0.0,0.0,0.0,0.0,0.0,0.0,0.0,0.0,0.0,0.0,0.0,0.0,0.0,0.0,0.0,0.0,0.0,0.0,0.0,0.0,0.0,0.0,0.0,0.0,0.0,0.0,0.0,0.0,0.0,0.0,0.0,0.0,0.0,0.0,0.0,0.0,0.0,0.0,0.0,0.0,0.0,0.0,0.0,0.0,0.0,0.0,0.0,0.0,0.0,0.0,0.0,0.0,0.0,0.0,0.0,0.0,0.0,0.0,4.5636,4.5138,4.515,4.5283,4.5441,4.5088,4.456,0.0,0.0,0.0,0.0,0.0,0.0,0.0,0.0,0.0,0.0,0.0,0.0,0.0,0.0,0.0,0.0,0.0,0.0,0.0,0.0,0.0,0.0,0.0,0.0,0.0,0.0,0.0,0.0,0.0,0.0,0.0,0.0,0.0,0.0,0.0,0.0,0.0,0.0,0.0,0.0,0.0,0.0,0.0,0.0,0.0,0.0,0.0,0.0,0.0,0.0,0.0,0.0,0.0,0.0,0.0,0.0,0.0,0.0,0.0,0.0,0.0,0.0,0.0,0.0,0.0,0.0,0.0,0.0,0.0,0.0,0.0,0.0,0.0,0.0,0.0,0.0,0.0,0.0,0.0,0.0,0.0,0.0,0.0,0.0,0.0,0.0,0.0,0.0,0.0,0.0,0.0,0.0,0.0,0.0,0.0,0.0,0.0,0.0,0.0,0.0,0.0,0.0,0.0,0.0,0.0,0.0,0.0,4.4518,4.5759,4.5356,4.5375,4.5543,4.578,4.5702,4.5,4.3638,0.0,0.0,0.0,0.0,0.0,0.0,0.0,0.0,0.0,0.0,0.0,0.0,0.0,0.0,0.0,0.0,0.0,0.0,0.0,0.0,0.0,0.0,0.0,0.0,0.0,0.0,0.0,0.0,0.0,0.0,0.0,0.0,0.0,0.0,0.0,0.0,0.0,0.0,4.4535,4.5103,0.0,0.0,0.0,0.0,0.0,0.0,0.0,0.0,4.6352,0.0,0.0,0.0,0.0,0.0,0.0,0.0,0.0,0.0,0.0,0.0,0.0,0.0,0.0,0.0,0.0,0.0,0.0,0.0,0.0,0.0,0.0,0.0,0.0,0.0,0.0,0.0,0.0,0.0,0.0,0.0,0.0,0.0,0.0,0.0,0.0,0.0,0.0,0.0,0.0,0.0,0.0,0.0,0.0,0.0,0.0,0.0,0.0,0.0,0.0,0.0,0.0,0.0,0.0,0.0,0.0,4.4482,4.566,4.6124,4.5973,4.6227,4.6477,4.6576,4.6057,4.542,4.4673,0.0,0.0,0.0,0.0,0.0,0.0,0.0,0.0,0.0,0.0,0.0,0.0,0.0,0.0,0.0,0.0,0.0,0.0,0.0,0.0,0.0,0.0,0.0,0.0,0.0,0.0,0.0,0.0,0.0,0.0,0.0,0.0,0.0,0.0,0.0,0.0,0.0,0.0,0.0,4.6512,4.7148,0.0,0.0,0.0,0.0,0.0,0.0,0.0,0.0,4.7079,0.0,0.0,0.0,0.0,0.0,0.0,0.0,0.0,0.0,0.0,0.0,0.0,0.0,0.0,0.0,0.0,0.0,0.0,0.0,0.0,0.0,0.0,0.0,0.0,0.0,0.0,0.0,0.0,0.0,0.0,0.0,0.0,0.0,0.0,0.0,0.0,0.0,0.0,0.0,0.0,0.0,0.0,0.0,0.0,0.0,0.0,0.0,0.0,0.0,0.0,0.0,0.0,0.0,0.0,0.0,4.4271,4.5404,4.6265,4.6781,4.6955,4.6983,4.6784,4.61,4.5256,0.0,0.0,0.0,0.0,0.0,0.0,0.0,0.0,0.0,0.0,0.0,0.0,0.0,0.0,0.0,0.0,0.0,0.0,0.0,0.0,0.0,0.0,0.0,0.0,0.0,0.0,0.0,0.0,0.0,0.0,0.0,0.0,0.0,0.0,0.0,0.0,0.0,0.0,0.0,0.0,4.7122,4.733,4.7365,0.0,0.0,0.0,0.0,0.0,0.0,4.7337,4.7495,0.0,0.0,0.0,0.0,0.0,0.0,0.0,0.0,0.0,0.0,0.0,0.0,0.0,0.0,0.0,0.0,0.0,0.0,0.0,0.0,0.0,0.0,0.0,0.0,0.0,0.0,0.0,0.0,0.0,0.0,0.0,0.0,0.0,0.0,0.0,0.0,0.0,0.0,0.0,0.0,0.0,0.0,0.0,0.0,0.0,0.0,0.0,0.0,0.0,0.0,0.0,0.0,0.0,0.0,0.0,4.3583,4.5182,4.6567,4.7626,4.7745,4.7541,4.7026,4.6264,4.5249,0.0,0.0,0.0,0.0,0.0,0.0,0.0,0.0,0.0,0.0,0.0,0.0,0.0,0.0,0.0,0.0,0.0,0.0,0.0,0.0,0.0,0.0,0.0,0.0,0.0,0.0,0.0,0.0,0.0,0.0,0.0,0.0,0.0,0.0,0.0,0.0,0.0,0.0,0.0,0.0,0.0,4.7744,4.7803,4.7752,0.0,0.0,0.0,0.0,4.7648,4.7848,0.0,0.0,0.0,0.0,0.0,0.0,0.0,0.0,0.0,0.0,0.0,0.0,0.0,0.0,0.0,0.0,0.0,0.0,0.0,0.0,0.0,0.0,0.0,0.0,0.0,0.0,0.0,0.0,0.0,0.0,0.0,0.0,0.0,0.0,0.0,0.0,0.0,0.0,0.0,0.0,0.0,0.0,0.0,0.0,0.0,0.0,0.0,0.0,0.0,0.0,0.0,0.0,0.0,0.0,0.0,0.0,4.4154,4.6031,4.7421,4.8265,4.8529,4.8349,4.7788,4.7026,4.6074,0.0,0.0,0.0,0.0,0.0,0.0,0.0,0.0,0.0,0.0,0.0,0.0,0.0,0.0,0.0,0.0,0.0,0.0,0.0,0.0,0.0,0.0,0.0,0.0,0.0,0.0,0.0,0.0,0.0,0.0,0.0,0.0,0.0,0.0,0.0,0.0,0.0,0.0,0.0,0.0,0.0,4.9528,4.7707,4.903,5.0018,0.0,0.0,4.9529,4.9862,4.8888,0.0,0.0,0.0,0.0,0.0,0.0,0.0,0.0,0.0,0.0,0.0,0.0,0.0,0.0,0.0,0.0,0.0,0.0,0.0,0.0,0.0,0.0,0.0,0.0,0.0,0.0,0.0,0.0,0.0,0.0,0.0,0.0,0.0,0.0,0.0,0.0,0.0,0.0,0.0,0.0,0.0,0.0,0.0,0.0,0.0,0.0,0.0,0.0,0.0,0.0,0.0,0.0,0.0,0.0,0.0,4.3244,4.4813,4.6163,4.7563,4.8958,4.9286,4.8872,4.7817,4.7138,4.5944,0.0,0.0,0.0,0.0,0.0,0.0,0.0,0.0,0.0,0.0,0.0,0.0,0.0,0.0,0.0,0.0,0.0,0.0,0.0,0.0,0.0,0.0,0.0,0.0,0.0,0.0,0.0,0.0,0.0,0.0,0.0,0.0,0.0,0.0,0.0,0.0,0.0,0.0,0.0,0.0,0.0,0.0,5.0858,5.1589,0.0,0.0,0.0,5.1576,5.0921,0.0,0.0,0.0,0.0,0.0,0.0,0.0,0.0,0.0,0.0,0.0,0.0,0.0,0.0,0.0,0.0,0.0,0.0,0.0,0.0,0.0,0.0,0.0,0.0,0.0,0.0,0.0,0.0,0.0,0.0,0.0,0.0,0.0,0.0,0.0,0.0,0.0,0.0,0.0,0.0,0.0,0.0,0.0,0.0,0.0,0.0,0.0,0.0,0.0,0.0,0.0,0.0,0.0,0.0,0.0,0.0,0.0,4.5401,4.641,4.7755,4.9436,4.9825,4.9349,4.81,4.7469,0.0,0.0,0.0,0.0,0.0,0.0,0.0,0.0,0.0,0.0,0.0,0.0,0.0,0.0,0.0,0.0,0.0,0.0,0.0,0.0,0.0,0.0,0.0,0.0,0.0,0.0,0.0,4.0958,0.0,0.0,0.0,0.0,0.0,0.0,0.0,0.0,0.0,0.0,0.0,0.0,0.0,0.0,5.1622,5.3421,5.3825,5.4129,0.0,0.0,5.382,5.2942,5.2989,5.2513,0.0,0.0,0.0,0.0,0.0,0.0,0.0,0.0,0.0,0.0,0.0,0.0,0.0,0.0,0.0,0.0,0.0,0.0,0.0,0.0,0.0,0.0,0.0,0.0,0.0,0.0,0.0,0.0,0.0,0.0,0.0,0.0,0.0,0.0,0.0,0.0,0.0,0.0,0.0,0.0,0.0,0.0,0.0,0.0,0.0,0.0,0.0,0.0,0.0,0.0,0.0,0.0,0.0,0.0,0.0,4.5746,4.7127,4.8354,4.9471,4.9942,4.979,4.9028,4.8367,4.7004,0.0,0.0,0.0,0.0,0.0,0.0,0.0,0.0,0.0,0.0,0.0,0.0,0.0,0.0,0.0,0.0,0.0,0.0,0.0,0.0,0.0,0.0,0.0,0.0,0.0,0.0,0.0,0.0,0.0,0.0,0.0,0.0,0.0,0.0,0.0,0.0,0.0,0.0,0.0,0.0,0.0,5.3481,5.373,5.4954,5.6139,0.0,0.0,5.6152,5.7013,5.5428,5.3894,5.3306,0.0,0.0,0.0,0.0,0.0,0.0,0.0,0.0,0.0,0.0,0.0,0.0,0.0,0.0,0.0,0.0,0.0,0.0,0.0,0.0,0.0,0.0,0.0,0.0,0.0,0.0,0.0,0.0,0.0,0.0,0.0,0.0,0.0,0.0,0.0,0.0,0.0,0.0,0.0,0.0,0.0,0.0,0.0,0.0,0.0,0.0,0.0,0.0,0.0,0.0,0.0,0.0,0.0,4.3953,4.5965,4.7312,4.8507,4.9585,5.0086,4.9938,4.9125,4.8545,4.7387,0.0,0.0,0.0,0.0,0.0,0.0,0.0,0.0,0.0,0.0,0.0,0.0,0.0,0.0,0.0,0.0,0.0,0.0,0.0,0.0,0.0,0.0,0.0,0.0,0.0,0.0,0.0,0.0,4.5489,4.6374,4.7569,0.0,0.0,0.0,0.0,0.0,0.0,0.0,0.0,0.0,0.0,5.5345,5.696,5.789,0.0,0.0,5.9512,5.9131,5.9223,5.779,5.6316,5.5279,5.4434,0.0,0.0,0.0,0.0,0.0,0.0,0.0,0.0,0.0,0.0,0.0,0.0,0.0,0.0,0.0,0.0,0.0,0.0,0.0,0.0,0.0,0.0,0.0,0.0,0.0,0.0,0.0,0.0,0.0,0.0,0.0,0.0,0.0,0.0,0.0,0.0,0.0,0.0,0.0,0.0,0.0,0.0,0.0,0.0,0.0,0.0,0.0,0.0,0.0,0.0,0.0,0.0,4.4386,4.6243,4.7962,4.9266,5.0076,5.0575,5.053,4.9924,4.9133,4.798,0.0,0.0,0.0,0.0,0.0,0.0,0.0,0.0,0.0,0.0,0.0,0.0,0.0,0.0,0.0,0.0,0.0,0.0,0.0,0.0,0.0,0.0,0.0,0.0,0.0,0.0,0.0,0.0,4.7206,4.7905,4.844,0.0,0.0,0.0,0.0,0.0,0.0,0.0,0.0,0.0,0.0,5.7343,5.9612,6.0379,6.1001,6.1892,6.1686,6.1315,6.1006,5.9944,5.8724,5.7522,0.0,0.0,0.0,0.0,0.0,0.0,0.0,0.0,0.0,0.0,0.0,0.0,0.0,0.0,0.0,0.0,0.0,0.0,0.0,0.0,0.0,0.0,0.0,0.0,0.0,0.0,0.0,0.0,0.0,0.0,4.3568,0.0,0.0,0.0,0.0,0.0,0.0,0.0,0.0,0.0,0.0,0.0,0.0,0.0,0.0,0.0,0.0,0.0,0.0,0.0,0.0,0.0,0.0,4.5474,4.6608,4.9158,5.0712,5.1075,5.1546,5.1738,5.1668,5.0406,4.8933,4.7362,0.0,0.0,0.0,0.0,0.0,0.0,0.0,0.0,0.0,0.0,0.0,0.0,0.0,0.0,0.0,0.0,0.0,0.0,0.0,0.0,0.0,0.0,0.0,0.0,0.0,0.0,4.8458,4.8604,4.8676,0.0,0.0,0.0,0.0,0.0,0.0,0.0,0.0,0.0,0.0,5.8066,5.9462,6.1185,6.2018,6.2519,6.2715,6.2614,6.2513,6.2491,6.1784,6.0986,0.0,0.0,0.0,0.0,0.0,0.0,0.0,0.0,0.0,0.0,0.0,0.0,0.0,0.0,0.0,0.0,0.0,0.0,0.0,0.0,0.0,0.0,0.0,0.0,0.0,0.0,0.0,4.4045,4.4107,0.0,0.0,0.0,0.0,0.0,0.0,0.0,0.0,0.0,0.0,0.0,4.7957,4.8521,0.0,0.0,0.0,0.0,0.0,0.0,0.0,0.0,0.0,0.0,0.0,0.0,4.5866,4.6966,4.9555,5.1168,5.1546,5.2326,5.2495,5.2079,5.1229,4.9296,4.6247,0.0,0.0,0.0,0.0,0.0,0.0,0.0,0.0,0.0,0.0,0.0,0.0,0.0,0.0,0.0,0.0,0.0,0.0,0.0,0.0,0.0,0.0,0.0,0.0,0.0,4.8514,0.0,0.0,0.0,0.0,0.0,0.0,0.0,0.0,0.0,0.0,0.0,5.7024,5.8388,5.9887,6.1257,6.2401,6.3205,6.3879,0.0,0.0,0.0,0.0,0.0,0.0,0.0,0.0,0.0,0.0,0.0,0.0,0.0,0.0,5.9404,5.5671,5.4797,5.4406,5.3905,0.0,0.0,0.0,0.0,0.0,0.0,0.0,0.0,0.0,0.0,0.0,0.0,0.0,0.0,4.581,0.0,4.5081,0.0,0.0,0.0,0.0,0.0,0.0,0.0,0.0,4.848,4.9407,5.0008,5.0642,5.06,0.0,5.107,4.9692,0.0,0.0,0.0,0.0,0.0,0.0,0.0,0.0,4.6776,4.8088,5.0424,5.1981,5.2663,5.3359,5.35,5.3109,5.1918,4.9872,4.6791,4.5657,4.4337,0.0,0.0,0.0,0.0,0.0,0.0,0.0,0.0,0.0,0.0,0.0,0.0,0.0,0.0,0.0,0.0,0.0,0.0,0.0,0.0,0.0,0.0,0.0,4.9351,0.0,0.0,0.0,0.0,0.0,0.0,0.0,0.0,0.0,5.5798,5.76,5.9478,6.0867,6.1731,6.267,6.3796,0.0,0.0,0.0,0.0,0.0,0.0,0.0,6.4341,6.378,6.2994,6.2375,6.2035,6.2711,6.314,6.2757,0.0,0.0,5.8005,5.6772,5.6194,5.5673,5.5746,5.58,5.5577,5.5912,5.6134,0.0,0.0,0.0,0.0,0.0,0.0,0.0,0.0,4.8323,4.8567,0.0,4.734,0.0,0.0,0.0,0.0,0.0,4.6595,0.0,0.0,4.9978,5.0979,5.2365,5.2725,5.2543,5.2024,5.4554,5.4344,5.1505,4.9013,0.0,0.0,0.0,0.0,0.0,0.0,4.8374,5.0057,5.1842,5.3253,5.4272,5.4486,5.4656,5.4689,5.2529,5.0651,4.9128,4.7534,4.5976,4.4453,4.3527,0.0,0.0,0.0,0.0,0.0,0.0,0.0,0.0,0.0,0.0,0.0,0.0,0.0,0.0,0.0,0.0,0.0,0.0,0.0,0.0,5.0409,0.0,0.0,0.0,0.0,0.0,0.0,0.0,0.0,0.0,0.0,5.8446,5.9741,6.1581,6.3946,0.0,0.0,0.0,0.0,6.5598,6.5598,6.6312,6.6896,6.6858,6.6124,6.5503,6.5486,0.0,0.0,6.3113,6.3698,6.3961,6.2949,6.346,6.3518,6.179,6.0062,5.9011,5.8899,5.8185,5.7881,5.8512,5.8438,5.8512,5.1944,0.0,0.0,0.0,0.0,4.9899,4.993,5.0427,4.967,4.9212,4.8987,4.8394,0.0,0.0,0.0,0.0,0.0,0.0,4.9585,5.0785,5.1679,5.3024,5.4651,5.5003,5.5119,5.5104,5.6134,5.5637,5.3817,5.325,5.1193,4.7749,0.0,0.0,0.0,0.0,5.0795,5.1374,5.3105,5.4303,5.4788,5.4887,5.4685,5.4252,5.3067,5.1963,5.0966,4.9375,4.7785,4.6163,4.5359,0.0,0.0,0.0,0.0,0.0,0.0,0.0,0.0,0.0,0.0,0.0,0.0,0.0,0.0,0.0,0.0,0.0,0.0,0.0,5.1191,5.149,5.2043,0.0,0.0,0.0,0.0,0.0,0.0,0.0,0.0,0.0,6.2482,6.2932,6.3496,0.0,0.0,6.5674,6.5523,6.6537,6.7288,6.7288,6.7964,0.0,6.7739,6.695,6.6199,6.5598,6.4847,6.4209,6.3944,6.4134,6.4189,6.3903,6.3623,6.3211,6.2758,6.2092,6.1409,6.0866,6.0021,5.9454,5.9603,5.9206,5.8698,5.467,5.3367,5.2804,5.2572,5.2506,5.2108,5.2103,5.2362,5.1897,5.1468,5.1006,5.0444,4.9621,4.863,4.8132,0.0,0.0,0.0,5.0954,5.223,5.3092,5.4471,5.6139,5.6554,5.6869,5.7022,5.7388,5.7098,5.6283,5.6303,5.4756,5.1833,0.0,0.0,5.024,5.1467,5.2612,5.3472,5.4571,5.5405,5.5877,5.5684,5.5204,5.4501,5.3742,5.2993,5.2172,5.0637,4.9162,4.7844,4.7014,4.6002,0.0,0.0,0.0,0.0,0.0,0.0,0.0,0.0,0.0,0.0,0.0,4.7789,4.8114,0.0,0.0,0.0,5.1317,5.2626,5.3286,5.3941,0.0,0.0,0.0,0.0,0.0,0.0,0.0,6.1507,6.3104,6.4307,6.4697,6.4772,6.5035,6.5674,6.6349,6.6746,6.6537,0.0,6.7889,6.7551,6.849,6.894,6.8114,6.7589,6.6988,6.6124,6.5619,6.5148,6.481,6.4772,6.466,6.4322,6.3909,6.3571,6.3571,6.3433,6.2956,6.1831,6.1093,6.0696,6.0659,6.0145,5.9727,5.7318,5.6746,5.5355,5.4659,5.449,5.4527,5.4494,5.4527,5.4494,5.4527,5.439,5.3135,5.2177,5.145,5.0225,0.0,5.0023,5.102,5.2265,5.372,5.4411,5.5551,5.7129,5.7705,5.8013,5.8159,5.8455,5.8688,5.8688,5.8286,5.7431,5.6082,5.4439,5.3396,5.2986,5.3139,5.4233,5.6227,5.6262,5.6574,5.7292,5.6791,5.6133,5.5312,5.4501,5.3742,5.3018,5.1494,5.0316,4.9436,4.8627,4.7676,4.6435,0.0,0.0,0.0,0.0,0.0,0.0,0.0,0.0,0.0,0.0,0.0,0.0,0.0,0.0,0.0,5.4233,0.0,5.5816,5.728,0.0,0.0,0.0,5.9093,6.001,6.2162,6.3559,6.3408,0.0,0.0,6.5639,6.5694,6.6333,6.791,6.7422,6.7159,6.7814,6.8002,6.7814,6.7213,6.8264,6.8919,6.8302,6.8039,6.7626,6.6838,6.6821,6.6445,6.5786,6.5598,6.5298,6.4755,6.453,6.453,6.451,6.4472,6.3926,6.2401,6.1851,6.162,6.162,6.1388,6.1156,5.8495,5.827,5.7409,5.6051,5.4527,5.4527,5.4527,5.4527,5.4527,5.4527,5.4494,5.4162,5.3672,5.3121,5.2431,5.2503,5.3212,5.3585,5.4398,5.5553,5.6153,5.7059,5.8317,5.8787,5.9152,5.9455,5.9623,5.9509,5.9103,5.9087,5.8871,5.8536,5.8228,5.7057,5.522,5.6875,5.7954,5.8251,5.8287,5.8045,5.7532,5.7382,5.6918,5.6133,5.5348,5.4563,5.3752,5.2814,5.1672,5.0316,5.0103,4.9435,4.8039,4.7255,0.0,0.0,0.0,0.0,0.0,0.0,0.0,0.0,0.0,5.2082,5.0805,0.0,5.2842,0.0,5.6472,5.7667,5.7736,5.8658,0.0,0.0,6.1786,6.2747,6.4143,6.4879,6.5238,6.5181,6.5539,6.6009,6.663,6.7233,6.8025,6.9042,6.8333,6.7551,6.7213,6.8152,6.8844,6.8656,6.8881,6.9106,6.8881,6.8377,6.7739,6.6934,6.6821,6.6746,6.652,6.6462,6.6445,6.6257,6.622,6.622,6.6182,6.5674,6.5148,6.4582,6.3525,6.2545,6.2545,6.1977,6.1483,5.9396,5.933,5.8601,5.7574,5.6382,5.5383,5.4986,5.4953,5.4622,5.4328,5.3997,5.3772,5.3551,5.3332,5.3209,5.3448,5.3888,5.4262,5.4938,5.5957,5.6761,5.7768,5.8948,5.9642,6.0148,6.0503,6.0676,6.0632,6.0339,6.0151,5.9989,6.0025,6.0105,5.9417,5.8135,5.896,5.9475,5.9614,5.9614,5.937,5.8856,5.8176,5.754,5.7137,5.6,5.4997,5.421,5.3458,5.2169,5.0271,5.0558,5.0257,4.9208,4.8909,4.8608,0.0,0.0,0.0,0.0,0.0,0.0,0.0,0.0,0.0,0.0,0.0,5.4818,5.622,5.8548,6.0033,6.0031,6.1445,6.2766,6.3708,6.4256,6.4916,6.5861,6.5936,6.5766,6.5351,6.5936,6.6446,6.652,6.7237,6.7936,6.8427,6.8268,6.809,6.8048,6.872,6.9069,6.8753,6.8956,6.9181,6.9181,6.8828,6.8377,6.8002,6.7851,6.7776,6.7401,6.7326,6.7213,6.6896,6.6821,6.6821,6.6783,6.6445,6.6087,6.5899,6.4994,6.4016,6.3603,6.3072,6.2653,6.0158,6.0059,5.9363,5.9032,5.8899,5.6779,5.5814,5.5681,5.4953,5.4262,5.3569,5.3154,5.3065,5.3274,5.3618,5.3754,5.3788,5.4254,5.4957,5.577,5.6814,5.7957,5.9228,6.0022,6.0747,6.1328,6.1501,6.168,6.1812,6.1236,6.0919,6.081,6.0919,6.0919,6.0747,6.0097,6.0025,6.0572,6.058,6.0552,6.0544,5.9078,5.8251,5.8107,5.6704,5.541,5.4439,5.3972,5.2677,5.052,5.113,5.1331,5.0737,5.0866,5.1266,0.0,5.1652,0.0,0.0,0.0,0.0,0.0,0.0,0.0,0.0,5.6295,5.6953,5.7628,6.0481,6.2331,6.2462,6.4407,6.5767,6.5993,6.6011,6.6048,6.6083,6.6101,6.5838,6.5122,6.6238,6.6768,6.6352,6.6843,6.7296,6.7674,6.8183,6.8689,6.9248,6.9273,6.8999,6.8248,6.8715,6.9181,6.9181,6.9181,6.9144,6.9144,6.9069,6.8919,6.8264,6.8152,6.7926,6.7326,6.7213,6.7176,6.71,6.7063,6.6971,6.6934,6.6199,6.5373,6.466,6.4166,6.4142,6.0887,6.0854,6.0092,5.9794,5.9661,5.8071,5.7044,5.6415,5.5681,5.5065,5.4552,5.4778,5.4961,5.5172,5.5381,5.5553,5.569,5.5925,5.6228,5.6495,5.7059,5.7992,5.9162,5.9522,6.0303,6.1501,6.1595,6.1736,6.195,6.1833,6.1435,6.0846,6.1435,6.1435,6.0883,0.0,0.0,0.0,6.1428,6.1371,6.1371,6.0408,5.9617,5.8997,5.8035,0.0,5.4583,5.5518,5.5338,5.3745,5.4713,0.0,0.0,0.0,0.0,0.0,0.0,0.0,0.0,0.0,0.0,0.0,5.7208,5.7678,5.7849,5.9711,6.0745,6.0379,6.208,6.3552,6.4305,6.4759,6.5327,6.5989,6.6065,6.6083,6.6101,6.6101,6.6291,6.6841,6.6558,6.6785,6.7827,6.8206,6.8546,6.9152,6.9398,6.949,6.9602,6.9478,6.9277,6.9165,6.9155,6.9203,6.9181,6.9181,6.9181,6.9181,6.9181,6.9106,6.8956,6.894,6.8956,6.8677,6.8731,6.8715,6.8715,6.8227,6.7776,6.7776,6.71,6.6274,6.5448,6.4715,6.4264,6.0788,0.0,6.0688,6.0556,0.0,5.9363,5.8469,5.7641,5.5852,5.4608,5.3866,5.4219,5.4531,5.4737,5.5008,5.5141,5.5207,5.5405,5.5632,5.5888,5.6558,5.7311,5.8219,5.9171,6.0123,6.0983,6.15,6.1784,6.1978,6.2041,6.1797,6.1426,6.1797,6.1797,6.1399,6.1761,6.195,6.1932,6.1812,6.1784,6.1748,6.1026,6.0413,5.998,5.8825,0.0,0.0,0.0,0.0,0.0,0.0,0.0,0.0,0.0,0.0,5.6268,5.6594,5.6659,5.6401,5.6916,5.7753,5.8959,5.9966,6.034,5.9874,6.1338,6.2266,6.2318,6.3454,6.4532,6.5401,6.5874,6.6139,6.6139,6.6101,6.6101,6.6101,6.6101,6.6253,6.6746,6.7125,6.7693,6.8489,6.902,6.9399,6.9816,6.9853,6.9815,6.9795,6.9637,6.9495,6.9395,6.9332,6.9268,6.9203,6.9181,6.9181,6.9181,6.9181,6.9181,6.9181,6.9181,6.9181,6.9181,6.9181,6.9181,6.9144,6.8865,6.8581,6.8527,6.7964,6.7326,6.6762,6.5749,6.4885,6.0291,6.0721,6.0721,6.0721,6.0688,6.0191,5.9429,5.8376,0.0,0.0,0.0,5.3281,5.3584,5.3783,5.4078,5.4239,5.4271,5.4463,5.4714,5.5057,5.5868,5.655,5.7175,5.8737,5.9803,6.0408,6.1224,6.1732,6.1978,6.2041,6.1906,6.1824,6.1906,6.2041,6.2041,6.2041,6.2041,6.2041,6.2041,6.2041,6.2005,6.1326,6.0928,6.081,5.9569,5.8486,5.7642,5.7291,5.6806,5.6231,5.7075,5.7616,5.7765,5.8683,5.9313,5.9511,5.9778,6.0033,6.0244,6.011,6.035,6.1093,6.1797,6.1944,6.1289,6.1966,6.2711,6.3507,6.4282,6.504,6.5988,6.6594,6.6746,6.6139,6.5988,6.5912,6.6063,6.6101,6.6215,6.6594,6.7769,6.8679,6.8868,6.9588,7.0119,7.0119,7.0346,7.0308,7.0251,6.9964,6.9577,6.9457,6.9453,6.9374,6.9268,6.9225,6.9241,6.9203,6.9181,6.9181,6.9181,6.9181,6.9181,6.9181,6.9181,6.9181,6.9181,6.9144,6.9181,6.9181,6.8677,6.8227,6.8077,6.7025,6.5974,5.9694,5.9231,5.9198,5.9198,5.9231,5.9794,5.8946,5.7182,5.5666,5.4345,5.3212,5.3517,5.3783,5.398,5.4143,5.4303,5.4463,5.4686,5.4842,5.5022,5.5434,5.6147,5.7133,5.7633,5.8765,6.03,6.0647,6.1217,6.1942,6.2005,6.1679,6.1145,6.1652,6.2041,6.2041,6.2041,6.2041,6.2041,6.2041,6.2041,6.2005,6.1869,6.1471,6.0846,6.0663,5.9906,5.8514,5.9857,6.031,5.9591,6.0669,6.1365,6.1448,6.123,6.1294,6.1507,6.1637,6.1838,6.1974,6.1347,6.1001,6.1251,6.1403,6.1386,6.1169,6.1894,6.2766,6.3507,6.3827,6.4416,6.5836,6.5684,6.5609,6.5988,6.5495,6.5343,6.6025,6.6177,6.6708,6.7958,6.8413,6.8944,6.9626,7.0384,7.0877,7.1029,7.1427,7.1938,7.1673,7.0666,6.9753,6.9597,6.9556,6.9515,6.9562,6.939,6.9386,6.9203,6.9241,6.9203,6.9181,6.9181,6.9181,6.9181,6.9181,6.9181,6.9181,6.9181,6.9181,6.9181,6.8994,6.8919,6.8919,6.8189,6.7401,5.8833,5.8899,5.8899,5.8899,5.8933,5.9783,5.9245,5.7706,5.6824,5.5263,5.345,5.3717,5.3948,5.411,5.4271,5.4463,5.4655,5.4749,5.4965,5.5299,5.5472,5.5976,5.6645,5.7465,5.8286,5.9141,5.979,6.0512,6.129,6.1326,6.1362,6.1435,6.1833,6.2041,6.2041,6.2041,6.2041,6.2041,6.2041,6.2041,6.2041,6.2041,6.1824,6.1462,6.1161,6.0711,6.0034,6.0566,6.097,6.115,6.1883,6.2339,6.2497,6.2412,6.2295,6.2125,6.216,6.2266,6.2454,6.2124,6.1755,6.1406,6.1749,6.1771,6.1321,6.2026,6.3052,6.4322,6.4474,6.4968,6.6129,6.5939,6.5673,6.5614,6.56,6.5793,6.621,6.7029,6.7769,6.8489,6.902,6.9626,7.0422,7.0877,7.1332,7.1711,7.2203,7.2393,7.2413,7.1747,7.112,7.1058,7.1,7.0976,7.0856,7.042,7.0152,6.9987,6.959,6.9343,6.9203,6.9181,6.9181,6.9181,6.9181,6.9181,6.9181,6.9181,6.9181,6.9181,6.9181,6.9181,6.9106,6.8903,6.8264,5.8005,5.8403,5.8403,5.8502,5.8741,5.9638,5.9404,5.8394,5.798,5.6383,5.4262,5.4053,5.4078,5.4207,5.4434,5.4623,5.478,5.4873,5.5118,5.5507,5.5706,5.5936,5.6316,5.7272,5.7846,5.8115,5.8931,5.976,6.0484,6.0738,6.1218,6.1906,6.2041,6.2041,6.2041,6.2041,6.2041,6.2041,6.2041,6.2041,6.2041,6.2041,6.2005,6.1996,6.1577,6.1407,6.1525,6.1215,6.1443,6.229,6.2614,6.2876,6.313,6.3251,6.3182,6.2892,6.27,6.2484,6.2271,6.2297,6.2078,6.15,6.1995,6.2261,6.2124,6.2772,6.3632,6.472,6.5199,6.5656,6.5982,6.6096,6.5922,6.5541,6.5986,6.6505,6.6944,6.7954,6.8791,6.898,6.9531,7.0195,7.0915,7.1275,7.1862,7.2772,7.2962,7.2962,7.2962,7.2962,7.2922,7.2748,7.2538,7.2137,7.2092,7.158,7.1124,7.0943,7.0449,7.0009,6.9756,6.9563,6.9332,6.9294,6.9181,6.9181,6.9181,6.9181,6.9181,6.9181,6.9181,6.9181,6.9181,6.9144,6.8844,5.7442,5.6945,5.6945,5.7276,5.7978,5.8906,5.897,5.8495,5.8518,5.7611,5.5928,5.4595,5.4112,5.4207,5.4399,5.4623,5.4811,5.5053,5.5294,5.5537,5.5971,5.6253,5.6383,5.6752,5.7359,5.8077,5.8414,5.8927,5.9724,6.0484,6.1218,6.1933,6.2041,6.2041,6.2041,6.2041,6.2041,6.2041,6.2041,6.2041,6.2041,6.2041,6.206,6.2195,6.2255,6.2391,6.2583,6.2818,6.308,6.3445,6.3615,6.385,6.4114,6.4214,6.437,6.455,6.3886,6.2931,6.1688,6.1491,6.1538,6.1499,6.1629,6.233,6.3703,6.4657,6.4787,6.454,6.5444,6.5977,6.5389,6.5368,6.5634,6.6184,6.6379,6.6988,6.8265,6.8759,6.9178,6.9977,6.9963,7.0326,7.12,7.1978,7.2943,7.4212,7.4364,7.4364,7.4402,7.4402,7.444,7.4268,7.3434,7.2523,7.2346,7.2174,7.2058,7.1954,7.1794,7.124,7.0707,7.0358,7.0179,6.9563,6.9181,6.9181,6.9181,6.9181,6.9181,6.9181,6.9203,6.9203,6.9181,6.9203,6.9037,5.6978,5.668,5.668,5.6846,5.7315,5.8764,5.9254,5.9103,5.941,5.9044,5.801,5.6167,5.4967,5.4402,5.4463,5.4652,5.49,5.5109,5.5408,5.5764,5.6134,5.6418,5.6546,5.6776,5.7149,5.7454,5.7619,5.8094,5.8999,6.0194,6.0991,6.1353,6.1725,6.2005,6.2041,6.2041,6.2041,6.2041,6.2041,6.2041,6.2041,6.2041,6.206,6.2185,6.2354,6.25,6.278,6.3051,6.3373,6.3691,6.3894,6.4183,6.4462,6.4615,6.4554,6.4237,6.3047,6.21,6.1492,6.1499,6.1544,6.1549,6.2504,6.3435,6.4191,6.5834,6.63,6.5222,6.5893,6.6237,6.5474,6.5321,6.5664,6.645,6.6973,6.7702,6.8786,6.9382,6.9842,7.0147,7.0149,7.0664,7.1939,7.3193,7.4103,7.4801,7.4895,7.4895,7.4895,7.4895,7.4895,7.4857,7.425,7.3927,7.3735,7.3298,7.3068,7.2834,7.2432,7.1824,7.1589,7.0879,7.0401,7.0079,6.96,6.9316,6.9181,6.9181,6.9181,6.9203,6.9305,6.9348,6.931,6.939,6.9432,5.668,5.668,5.668,5.668,5.6851,5.8708,5.9538,5.9611,6.0165,6.0238,5.9718,5.7942,5.6473,5.5462,5.4871,5.4714,5.5022,5.5229,5.5525,5.5901,5.63,5.6519,5.668,5.6917,5.701,5.7061,5.7174,5.7623,5.8456,5.9506,6.0375,6.0783,6.1399,6.1761,6.2005,6.2041,6.2041,6.2041,6.2041,6.2041,6.2041,6.2041,6.2087,6.2212,6.2344,6.2589,6.288,6.3112,6.3382,6.3802,6.4037,6.4154,6.4238,6.4476,6.4179,6.3231,6.214,6.1415,6.1239,6.1449,6.1707,6.2051,6.335,6.432,6.4817,6.6407,6.6827,6.5681,6.6178,6.6315,6.5566,6.5643,6.6139,6.6942,6.7719,6.8526,6.9327,6.9946,7.0234,7.0255,7.0255,7.085,7.2469,7.3954,7.4979,7.4937,7.4935,7.4915,7.4895,7.4895,7.4895,7.4895,7.4895,7.4857,7.4857,7.4382,7.3962,7.377,7.3312,7.2948,7.2562,7.1739,7.1105,7.1024,7.0148,6.9616,6.9654,6.9579,6.9305,6.9348,6.9411,6.9474,6.9436,6.9536,6.9597,5.668,5.668,5.668,5.668,5.6851,5.8708,5.9538,5.9572,6.0738,6.1019,6.0606,5.9718,5.8803,5.7598,5.5862,5.4942,5.5088,5.5543,5.5806,5.6,5.6454,5.6716,5.6776,5.6969,5.7098,5.7163,5.7188,5.7587,5.8311,5.8528,5.9289,6.0701,6.0883,6.1281,6.1833,6.2005,6.2041,6.2041,6.2041,6.2041,6.2041,6.2041,6.2114,6.2344,6.2407,6.2629,6.3075,6.3208,6.3405,6.3873,6.4029,6.3913,6.3464,6.3658,6.3117,6.1888,6.1611,6.1273,6.0752,6.1287,6.2013,6.2815,6.3732,6.4535,6.5299,6.6254,6.6407,6.5528,6.6254,6.633,6.5719,6.6101,6.6865,6.7668,6.8585,6.9371,7.0211,7.0271,7.0402,7.0424,7.0472,7.1166,7.2563,7.4181,7.4962,7.5036,7.5017,7.4977,7.4935,7.4895,7.4895,7.4895,7.4895,7.4895,7.4895,7.4743,7.4723,7.4588,7.4262,7.4199,7.3699,7.3123,7.2547,7.1933,7.1056,7.0524,7.0336,7.0041,6.9658,6.9532,6.9556,6.9597,6.9617,6.9597,6.9677,5.668,5.668,5.668,5.668,5.6923,5.8708,5.9538,5.9678,6.1312,6.1766,6.132,6.0606,5.9934,5.9323,5.8312,5.7051,5.5854,5.6239,5.6535,5.6808,5.7743,5.8017,5.7594,5.7768,5.7608,5.7224,5.7188,5.7333,5.7659,5.813,5.8673,5.9361,6.0339,6.0964,6.1254,6.1761,6.2041,6.2005,6.2041,6.2041,6.2005,6.2041,6.2141,6.2407,6.2433,6.2654,6.3171,6.3194,6.3183,6.3126,6.3338,6.318,6.2596,6.2345,6.2109,6.1597,6.112,6.0943,6.1249,6.1975,6.2815,6.3656,6.4496,6.5299,6.6063,6.6522,6.656,6.6369,6.6445,6.6483,6.6407,6.656,6.7018,6.7821,6.8661,6.954,7.019,7.0402,7.0402,7.0555,7.1264,7.2283,7.2843,7.4236,7.5189,7.5171,7.5152,7.5056,7.4997,7.4957,7.4937,7.4915,7.4895,7.4895,7.4895,7.4895,7.4895,7.4874,7.4778,7.4682,7.4317,7.3704,7.309,7.2833,7.2009,7.1422,7.1197,7.0793,7.0369,6.9919,6.9904,6.9985,6.9795,6.9891,6.9986,5.668,5.668,5.668,5.668,5.6923,5.8708,5.9538,5.9745,6.1548,6.231,6.207,6.1667,6.1273,6.0909,6.0462,5.9346,5.7669,5.7675,5.7759,5.7907,5.8765,5.8898,5.852,5.8651,5.8492,5.8058,5.7985,5.7949,5.8021,5.8528,5.8782,5.8927,5.9941,6.0412,6.0557,6.1245,6.1616,6.1643,6.1833,6.2041,6.2005,6.1725,6.1742,6.1907,6.1751,6.2032,6.2741,6.259,6.245,6.2379,6.2496,6.2391,6.1905,6.1305,6.105,6.1106,6.0676,6.0752,6.1554,6.2433,6.3274,6.4129,6.4955,6.5757,6.656,6.6445,6.6407,6.656,6.6407,6.633,6.6713,6.6942,6.7439,6.8241,6.9082,6.9769,7.0342,7.0402,7.0402,7.0632,7.1871,7.2754,7.3084,7.4382,7.5129,7.5227,7.5247,7.5171,7.5095,7.5056,7.5036,7.4975,7.4955,7.4935,7.4915,7.4895,7.4895,7.4874,7.4874,7.4895,7.4798,7.4186,7.38,7.3544,7.3102,7.2456,7.1949,7.158,7.1113,7.0569,7.0517,7.0649,7.0477,7.0284,7.0372,5.668,5.668,5.668,5.6713,5.7056,5.8708,5.9538,5.9879,6.1582,6.2581,6.2791,6.2863,6.261,6.2393,6.1847,6.1259,6.0593,5.9917,5.9552,5.9466,5.948,5.9437,5.9321,5.9519,5.9506,5.9361,5.9506,5.9506,5.9398,5.9434,5.9506,5.9542,5.9687,5.9868,5.9651,6.0484,6.0846,6.0955,6.1399,6.1824,6.1869,6.1145,6.0943,6.1095,6.05,6.0677,6.1878,6.1425,6.1277,6.1504,6.1749,6.1725,6.1305,6.0654,6.025,6.0456,6.0446,6.0867,6.1631,6.2548,6.3427,6.4229,6.4955,6.5757,6.6407,6.5987,6.5872,6.6445,6.6025,6.5796,6.6713,6.74,6.8126,6.9082,6.9769,7.0304,7.0364,7.0402,7.0402,7.0632,7.1909,7.2902,7.3323,7.4413,7.5333,7.5338,7.532,7.5283,7.519,7.5171,7.5114,7.5036,7.4997,7.4957,7.4897,7.4895,7.4895,7.4895,7.4895,7.4895,7.4874,7.4472,7.4351,7.4115,7.3909,7.3263,7.2645,7.2331,7.2318,7.1902,7.1711,7.1439,7.1395,7.1273,7.0882,5.668,5.668,5.668,5.7011,5.762,5.8909,5.9767,6.0415,6.1818,6.2615,6.2962,6.3,6.309,6.3255,6.3195,6.3168,6.3067,6.2631,6.1969,6.1233,6.1413,6.1279,6.0796,6.054,6.0158,5.9687,5.9615,5.9615,5.9687,5.9687,5.9615,5.9687,6.0194,6.0122,5.9724,6.0375,6.0593,6.0086,6.0204,6.0339,6.0339,6.0122,6.0108,6.0256,5.9589,5.9578,6.0291,6.0759,6.0853,6.0608,6.0923,6.0914,6.0523,6.0251,6.0212,6.0432,6.0943,6.1593,6.2433,6.3312,6.4114,6.484,6.5261,6.5796,6.6445,6.591,6.5834,6.6483,6.5948,6.591,6.7209,6.7706,6.8279,6.912,6.9922,7.0402,7.0402,7.0402,7.0402,7.061,7.1947,7.2864,7.3284,7.4469,7.5424,7.5427,7.5409,7.5374,7.5301,7.5264,7.5227,7.5133,7.5075,7.4979,7.4957,7.4935,7.4895,7.4895,7.4895,7.4895,7.4874,7.4854,7.4733,7.4636,7.4409,7.4093,7.3472,7.3249,7.3269,7.3,7.265,7.2546,7.2554,7.2275,7.1826,5.668,5.6713,5.6978,5.7342,5.7945,5.9197,6.013,6.0711,6.1773,6.2503,6.2923,6.3,6.3227,6.3563,6.3747,6.3929,6.4181,6.4146,6.3778,6.3148,6.3024,6.286,6.2414,6.2265,6.1933,6.1498,6.139,6.139,6.139,6.1353,6.1245,6.1136,6.1462,6.1317,6.0665,6.1245,6.1208,6.0267,6.0412,6.0231,5.9651,5.9377,5.9325,5.9418,5.8884,5.8781,5.9146,5.9848,6.0083,5.996,6.0172,6.0278,6.0106,6.0167,6.0355,6.0838,6.1363,6.2089,6.3236,6.3847,6.4535,6.5261,6.5719,6.6101,6.6522,6.6101,6.6216,6.6483,6.591,6.6101,6.7515,6.7897,6.8432,6.954,7.0075,7.0364,7.0402,7.0402,7.061,7.1068,7.2176,7.2979,7.3667,7.4507,7.548,7.5518,7.5518,7.5501,7.5392,7.5374,7.532,7.5265,7.5152,7.5075,7.4979,7.4937,7.4895,7.4895,7.4895,7.4895,7.4874,7.4874,7.4833,7.4836,7.4685,7.471,7.4257,7.439,7.4404,7.3997,7.3641,7.3571,7.3536,7.3146,7.2771,5.6713,5.6846,5.7508,5.7873,5.821,5.9645,6.0445,6.0845,6.1614,6.2352,6.2923,6.3,6.3227,6.3526,6.3637,6.382,6.4216,6.4498,6.477,6.4776,6.446,6.3997,6.3761,6.3848,6.3889,6.3961,6.4033,6.4106,6.3816,6.3852,6.3997,6.3128,6.3056,6.2838,6.2223,6.2766,6.2295,6.1172,6.1543,6.1136,5.9941,5.9237,5.8965,5.9114,5.8699,5.8492,5.8725,5.9032,5.9189,5.9272,5.9764,6.001,6.0106,6.025,6.0781,6.1464,6.1631,6.2624,6.3809,6.432,6.4726,6.5528,6.6063,6.6674,6.6636,6.6445,6.633,6.6445,6.5948,6.6178,6.7515,6.805,6.8776,7.0037,7.0364,7.0402,7.0402,7.0402,7.0724,7.1527,7.2444,7.3246,7.3858,7.4736,7.5195,7.5327,7.5327,7.5271,7.5501,7.5427,7.5409,7.5338,7.5246,7.5152,7.5095,7.4997,7.4935,7.4895,7.4895,7.4915,7.4915,7.4935,7.4897,7.4917,7.4997,7.5056,7.5151,7.5145,7.5268,7.5064,7.4839,7.4689,7.4482,7.4166,7.3812,5.7011,5.7508,5.7707,5.8436,5.9404,6.0104,6.0705,6.1408,6.1816,6.2386,6.2923,6.3,6.3158,6.3565,6.3565,6.382,6.4146,6.4533,6.4911,6.5311,6.5667,6.5088,6.4433,6.4367,6.4432,6.4468,6.4541,6.4396,6.4396,6.4504,6.4359,6.4106,6.4142,6.3744,6.3056,6.32,6.2693,6.1833,6.1869,6.1897,6.1353,6.0653,6.042,6.05,6.0042,5.9642,5.9324,5.9221,5.9309,5.9492,5.9753,5.9966,6.0198,6.0745,6.1329,6.1807,6.2815,6.3618,6.4206,6.4726,6.5452,6.6178,6.6063,6.6025,6.6636,6.6101,6.5834,6.5834,6.6025,6.6751,6.7744,6.847,6.9349,7.0135,7.0402,7.0402,7.0402,7.0441,7.0724,7.1603,7.2482,7.3055,7.3514,7.401,7.4584,7.4622,7.466,7.4889,7.531,7.5518,7.5445,7.5427,7.5338,7.5246,7.5152,7.5056,7.4957,7.4915,7.4915,7.4935,7.4975,7.4977,7.4977,7.4959,7.5152,7.5226,7.5371,7.5472,7.5649,7.5785,7.5641,7.5357,7.5518,7.537,7.4952,5.7574,5.8303,5.8601,5.9198,5.9993,6.0455,6.1024,6.1602,6.183,6.2308,6.2817,6.2624,6.2747,6.3082,6.2772,6.2851,6.3276,6.3938,6.4418,6.4888,6.5743,6.5881,6.5533,6.541,6.541,6.541,6.5374,6.5446,6.5446,6.541,6.541,6.5446,6.541,6.5156,6.483,6.4685,6.4106,6.3237,6.2983,6.2766,6.2005,6.1759,6.1673,6.1744,6.1545,6.1375,6.0958,6.0895,6.0548,5.9917,5.9853,6.0197,6.0654,6.1156,6.1893,6.2586,6.3709,6.442,6.5108,6.5413,6.5796,6.6407,6.6178,6.6025,6.6139,6.5948,6.591,6.5566,6.6216,6.7018,6.7897,6.8967,6.9846,7.0288,7.0402,7.0402,7.0402,7.0763,7.1336,7.2062,7.2673,7.317,7.3399,7.3667,7.3858,7.4125,7.4278,7.4736,7.5271,7.5403,7.5501,7.5483,7.5392,7.5283,7.5171,7.5075,7.4977,7.4935,7.4995,7.5015,7.5015,7.5036,7.5075,7.5133,7.5283,7.5427,7.5566,7.5682,7.5779,7.5895,7.5925,7.597,7.5991,7.602,7.5677,5.8336,5.9065,5.9728,6.0059,6.0225,6.0821,6.1301,6.1628,6.1709,6.2122,6.254,6.2074,6.2059,6.2287,6.1806,6.1605,6.2057,6.3061,6.3778,6.4589,6.5627,6.6344,6.6539,6.6496,6.6533,6.6569,6.675,6.6677,6.6533,6.6641,6.6714,6.6569,6.6641,6.675,6.6388,6.6533,6.5953,6.4903,6.4649,6.4142,6.3265,6.3057,6.3046,6.3106,6.3051,6.3063,6.2907,6.283,6.2221,6.0277,6.0291,6.0905,6.1599,6.1887,6.2839,6.4153,6.4802,6.5452,6.6254,6.5948,6.5872,6.6522,6.656,6.6369,6.5948,6.6101,6.6101,6.5757,6.633,6.7324,6.8394,6.9616,7.0173,7.0402,7.0402,7.0402,7.0648,7.1221,7.2024,7.275,7.2864,7.3361,7.3514,7.3437,7.3093,7.3246,7.359,7.424,7.4851,7.5271,7.5403,7.5501,7.5392,7.5301,7.519,7.5095,7.4997,7.4975,7.5094,7.5133,7.5074,7.5113,7.5152,7.5264,7.5392,7.5549,7.5699,7.581,7.5925,7.5985,7.6029,7.6034,7.6076,7.609,7.5887,5.9098,5.9794,5.9926,6.0324,6.0854,6.1053,6.1334,6.1635,6.1709,6.1739,6.1843,6.1797,6.1576,6.1315,6.1253,6.1535,6.1813,6.2499,6.3377,6.4977,6.5818,6.6452,6.6763,6.6822,6.6822,6.6822,6.6822,6.6822,6.6822,6.6822,6.6822,6.6822,6.6822,6.6822,6.6822,6.6786,6.6714,6.6315,6.6243,6.5989,6.5547,6.5073,6.4986,6.5049,6.4559,6.4322,6.4376,6.4158,6.382,6.3388,6.2741,6.2649,6.3328,6.4062,6.4955,6.5834,6.6598,6.6904,6.6713,6.6522,6.6483,6.6598,6.6178,6.591,6.6407,6.5872,6.6025,6.633,6.7171,6.8165,6.9502,7.0113,7.0364,7.0402,7.0402,7.0648,7.1221,7.1582,7.1833,7.2138,7.2597,7.2826,7.2367,7.2253,7.2138,7.2329,7.2941,7.359,7.4316,7.508,7.5348,7.5518,7.5483,7.5356,7.519,7.5114,7.5056,7.5017,7.5114,7.5247,7.5209,7.5228,7.5301,7.5392,7.5497,7.5649,7.5794,7.5902,7.5976,7.602,7.6115,7.6118,7.6145,7.6159,7.6198,5.986,6.0523,6.0523,6.0755,6.1086,6.1119,6.1052,6.1079,6.1133,6.1049,6.0909,6.0836,6.0649,6.0453,6.0322,6.0428,6.1081,6.2209,6.3559,6.4967,6.5904,6.6488,6.6763,6.6822,6.6822,6.6822,6.6822,6.6822,6.6822,6.6822,6.6822,6.6822,6.6822,6.6822,6.6822,6.6822,6.6822,6.675,6.6822,6.6822,6.6714,6.6533,6.6534,6.6774,6.6327,6.6173,6.6067,6.6047,6.5868,6.5691,6.53,6.4932,6.5079,6.5664,6.6391,6.7133,6.7171,6.7439,6.7171,6.656,6.6254,6.6636,6.5872,6.5757,6.591,6.5643,6.5872,6.6598,6.7477,6.8547,7.0135,7.0402,7.0402,7.0402,7.0402,7.061,7.1068,7.145,7.1909,7.21,7.2367,7.2176,7.1833,7.145,7.1527,7.1833,7.2673,7.3361,7.424,7.4927,7.5365,7.5518,7.5518,7.543,7.5247,7.5152,7.5133,7.5114,7.519,7.5283,7.5358,7.5374,7.5462,7.5532,7.5616,7.5753,7.5879,7.5947,7.6034,7.6076,7.6118,7.6172,7.6212,7.6238,7.6276,6.0556,6.1119,6.1119,6.1119,6.1086,6.0986,6.0679,6.0391,6.0391,6.0231,5.9945,5.9638,5.9792,5.9559,5.9288,5.9286,6.0169,6.1738,6.3431,6.4735,6.5616,6.6265,6.6655,6.6822,6.6822,6.6822,6.6822,6.6822,6.6822,6.6822,6.6822,6.6822,6.6822,6.6822,6.6822,6.6822,6.6822,6.6822,6.6822,6.6822,6.6822,6.6831,6.7053,6.7341,6.7694,6.7617,6.7533,6.7673,6.7844,6.7539,6.786,6.7639,6.7228,6.7038,6.7324,6.805,6.7668,6.7439,6.7247,6.6522,6.6025,6.6522,6.5872,6.5452,6.5413,6.5719,6.6178,6.6942,6.7897,6.9005,7.0211,7.0402,7.0402,7.0441,7.0479,7.061,7.0724,7.1259,7.1909,7.21,7.2024,7.1794,7.1374,7.0954,7.1145,7.145,7.2291,7.3132,7.3972,7.4698,7.508,7.548,7.5518,7.5427,7.5264,7.5114,7.5095,7.5209,7.5264,7.5412,7.5501,7.5566,7.5633,7.5633,7.5715,7.5864,7.597,7.6034,7.609,7.6118,7.6172,7.6238,7.6276,7.6313,7.635,6.0986,6.1119,6.1119,6.1119,6.102,6.0456,6.0181,6.0224,5.9783,5.9381,5.9014,5.9397,5.9208,5.8939,5.8978,5.9351,6.0223,6.1549,6.2862,6.416,6.5041,6.5839,6.6691,6.6822,6.6822,6.6822,6.6822,6.6822,6.6822,6.6822,6.6822,6.6822,6.6822,6.6822,6.6822,6.6822,6.6822,6.6822,6.6822,6.6822,6.6822,6.6874,6.7019,6.7378,6.7836,6.8111,6.8355,6.8698,6.9047,6.922,6.9568,6.9579,6.9154,6.8793,6.8722,6.8738,6.847,6.7859,6.7095,6.6674,6.6101,6.5796,6.549,6.5413,6.5528,6.6063,6.6713,6.7782,6.8929,7.0075,7.0326,7.0402,7.0402,7.0533,7.0877,7.1259,7.1336,7.1412,7.1374,7.1259,7.1336,7.145,7.0992,7.0686,7.0763,7.1068,7.1718,7.2559,7.3361,7.4125,7.4698,7.5119,7.5518,7.5409,7.532,7.5133,7.5095,7.5283,7.5412,7.5594,7.5697,7.5769,7.5833,7.6271,7.6125,7.5947,7.6048,7.6156,7.6313,7.6417,7.6405,7.6339,7.6531,7.671,7.649,6.1119,6.1086,6.0688,6.0523,6.0423,5.9761,5.9278,5.9033,5.8909,5.8567,5.8332,5.8679,5.8866,5.8664,5.884,5.9418,6.0218,6.1298,6.2541,6.3843,6.4753,6.5731,6.6684,6.6786,6.6822,6.6822,6.6822,6.6822,6.6822,6.6822,6.6822,6.6822,6.6822,6.6822,6.6822,6.6822,6.6822,6.6822,6.6822,6.6822,6.6815,6.6903,6.7097,6.7322,6.7784,6.8197,6.8517,6.8855,6.9268,6.9559,6.9891,6.9829,6.9573,6.9349,6.9158,6.9005,6.8432,6.7668,6.6713,6.6369,6.5796,6.549,6.5413,6.5413,6.5605,6.6216,6.7247,6.8508,6.9502,7.0402,7.0402,7.0402,7.0402,7.0457,7.0839,7.103,7.1068,7.1068,7.0839,7.0533,7.0724,7.0839,7.0686,7.0441,7.0402,7.0763,7.1221,7.1947,7.2788,7.359,7.4316,7.5063,7.5483,7.5409,7.5356,7.5264,7.5152,7.5356,7.5688,7.5851,7.6142,7.6309,7.684,7.7438,7.7073,7.6167,7.6209,7.6314,7.6533,7.6829,7.7009,7.7123,7.7121,7.7055,7.6939,6.0887,6.0821,6.0092,5.9794,5.9661,5.8966,5.8369,5.7918,5.8107,5.7859,5.7469,5.8133,5.8524,5.8631,5.8978,5.9485,6.0174,6.1125,6.2256,6.3519,6.4429,6.5442,6.6263,6.675,6.6822,6.6822,6.6822,6.6822,6.6822,6.6822,6.6822,6.6822,6.6822,6.6822,6.6822,6.6822,6.6822,6.6822,6.6822,6.6822,6.6845,6.704,6.721,6.7266,6.7784,6.8222,6.8493,6.8846,6.9037,6.9275,6.9456,6.9393,6.8832,6.8679,6.8699,6.847,6.74,6.6789,6.6254,6.591,6.549,6.5413,6.5413,6.5413,6.5681,6.6445,6.7668,6.9158,6.996,7.0402,7.0402,7.0402,7.0533,7.0724,7.0763,7.0724,7.0877,7.0916,7.0801,7.061,7.0441,7.0402,7.0402,7.0402,7.0402,7.0441,7.0916,7.145,7.2291,7.3208,7.4049,7.4986,7.5427,7.5374,7.5356,7.5392,7.5374,7.5462,7.5944,7.635,7.6677,7.7017,7.753,7.7824,7.702,7.6225,7.6328,7.6765,7.737,7.7782,7.787,7.7933,7.7945,7.7945,7.7829,6.0125,6.0059,5.933,5.9032,5.8933,5.8237,5.7873,5.7785,5.7573,5.739,5.7402,5.8099,5.849,5.8666,5.9217,5.9718,6.0142,6.0662,6.1651,6.2974,6.3788,6.4793,6.5779,6.6533,6.675,6.6822,6.6822,6.6822,6.6822,6.6822,6.6822,6.6822,6.6822,6.6822,6.6822,6.6822,6.6822,6.6822,6.6822,6.6822,6.6845,6.704,6.7182,6.7378,6.7757,6.8148,6.8381,6.8622,6.879,6.8462,6.8698,6.8519,6.7918,6.7267,6.7079,6.698,6.6713,6.6369,6.5757,6.549,6.5413,6.5413,6.5413,6.5413,6.5987,6.7018,6.8432,7.0075,7.0381,7.0381,7.0402,7.0457,7.0801,7.1107,7.1298,7.1336,7.1374,7.0839,7.0724,7.0572,7.0402,7.0402,7.0402,7.0402,7.0402,7.0441,7.061,7.1183,7.1947,7.2941,7.401,7.5025,7.5445,7.5409,7.5427,7.5445,7.5685,7.5714,7.6213,7.6824,7.7316,7.7598,7.7516,7.7574,7.6894,7.6995,7.7587,7.8128,7.8553,7.8643,7.8617,7.8745,7.8834,7.8796,7.8718,5.8999,5.9297,5.8568,5.827,5.8171,5.7475,5.7221,5.7343,5.7344,5.7439,5.7698,5.8241,5.8596,5.8875,5.9386,5.9786,6.0107,6.0454,6.1366,6.2622,6.353,6.4469,6.5569,6.6388,6.6786,6.6822,6.6822,6.6822,6.6822,6.6822,6.6822,6.6822,6.6822,6.6822,6.6822,6.6822,6.6822,6.6822,6.6822,6.6822,6.6874,6.704,6.721,6.7202,6.7747,6.7912,6.7861,6.8114,6.8055,6.7783,6.7865,6.763,6.7123,6.6723,6.6459,6.5987,6.5948,6.5757,6.5452,6.5413,6.5413,6.5413,6.549,6.5834,6.6713,6.7859,6.9043,7.0266,7.0402,7.0402,7.0572,7.0877,7.0916,7.1183,7.1565,7.1336,7.1259,7.0992,7.0686,7.0533,7.0402,7.0402,7.0402,7.0402,7.0402,7.0402,7.0572,7.103,7.1947,7.3132,7.4201,7.5271,7.5462,7.5445,7.5497,7.5587,7.6065,7.6261,7.6609,7.7231,7.7911,7.815,7.7987,7.8104,7.8075,7.8394,7.8909,7.8715,7.8445,7.8846,7.9313,7.9299,7.9311,7.9569,7.9415,5.7839,5.8303,5.774,5.7508,5.7475,5.6912,5.6829,5.7025,5.7214,5.7514,5.7918,5.8384,5.8771,5.9012,5.9419,5.9783,6.0107,6.0454,6.1294,6.2354,6.3307,6.4173,6.5106,6.6025,6.6569,6.6786,6.6822,6.6822,6.6822,6.6822,6.6822,6.6822,6.6822,6.6822,6.6822,6.6822,6.6822,6.6822,6.6822,6.6822,6.6845,6.704,6.7036,6.7122,6.7353,6.7494,6.7057,6.7292,6.7267,6.6896,6.6976,6.6759,6.621,6.608,6.5947,6.5589,6.5528,6.549,6.5413,6.5413,6.5413,6.5452,6.5796,6.6369,6.7591,6.8699,6.954,7.0342,7.0402,7.0517,7.0801,7.1374,7.1527,7.1489,7.1565,7.1183,7.0877,7.0724,7.061,7.0495,7.0402,7.0402,7.0402,7.0402,7.0402,7.0402,7.061,7.0954,7.1985,7.3246,7.4219,7.5251,7.5514,7.5514,7.5566,7.5764,7.6293,7.6724,7.7068,7.741,7.7932,7.8154,7.8104,7.8385,7.8596,7.8242,7.7827,7.8021,7.8281,7.8801,7.9292,7.9579,7.9722,7.993,7.9647,5.6779,5.6812,5.6812,5.6812,5.6812,5.6713,5.6796,5.7025,5.7214,5.7551,5.7991,5.849,5.8875,5.9115,5.9419,5.9783,6.0139,6.0454,6.1111,6.1781,6.245,6.3488,6.4491,6.5337,6.6098,6.6641,6.675,6.6822,6.6822,6.6822,6.6822,6.6822,6.6822,6.6822,6.6822,6.6822,6.6822,6.6822,6.6822,6.6714,6.6765,6.683,6.6745,6.6336,6.6581,6.6716,6.6165,6.6456,6.6441,6.5953,6.6087,6.6076,6.5601,6.5531,6.5458,6.5436,6.5413,6.5413,6.5413,6.5413,6.5413,6.5605,6.6178,6.6942,6.7821,6.8738,6.954,7.0304,7.0533,7.0877,7.1259,7.1718,7.2024,7.1909,7.1718,7.1336,7.0992,7.061,7.0495,7.0441,7.0402,7.0402,7.0402,7.0402,7.0402,7.0402,7.0839,7.1183,7.2176,7.3361,7.418,7.5,7.5434,7.5599,7.5633,7.5916,7.6263,7.6741,7.7158,7.7368,7.7614,7.7795,7.8024,7.7709,7.7633,7.7201,7.701,7.7475,7.8057,7.8734,7.9216,7.9404,7.9409,7.9424,7.8986,5.668,5.668,5.668,5.668,5.668,5.668,5.6872,5.7176,5.7289,5.7662,5.8244,5.8702,5.9012,5.9183,5.9453,5.9816,6.0199,6.0485,6.1004,6.1673,6.2407,6.3055,6.3948,6.4867,6.5808,6.6134,6.6496,6.6822,6.6822,6.6786,6.6822,6.6822,6.6822,6.6822,6.6822,6.6822,6.6786,6.6786,6.6714,6.6605,6.6156,6.6276,6.6089,6.5378,6.5871,6.5804,6.5422,6.5649,6.5465,6.5255,6.5256,6.5207,6.5242,6.5232,6.529,6.5345,6.5375,6.5413,6.5413,6.5413,6.5413,6.5681,6.656,6.7591,6.805,6.912,6.9884,7.0457,7.0877,7.1336,7.1603,7.2138,7.2482,7.2253,7.1909,7.1527,7.1068,7.061,7.0441,7.0402,7.0402,7.0402,7.0402,7.0402,7.0402,7.0441,7.0954,7.1603,7.2635,7.3493,7.4295,7.4996,7.5446,7.5715,7.5779,7.5994,7.6241,7.6698,7.7177,7.7293,7.742,7.7701,7.7771,7.7285,7.6951,7.6836,7.6953,7.7244,7.7691,7.8155,7.8716,7.9149,7.9078,7.8851,7.8441,5.6183,5.6349,5.6349,5.6481,5.6647,5.6448,5.6578,5.6884,5.6687,5.706,5.7841,5.8359,5.877,5.9042,5.9485,5.9849,6.0231,6.0512,6.1034,6.1572,6.2091,6.2694,6.3442,6.4142,6.483,6.5337,6.5989,6.6424,6.6388,6.6677,6.6786,6.6822,6.6822,6.6822,6.6822,6.6786,6.6714,6.6496,6.6388,6.6025,6.5402,6.5476,6.525,6.4665,6.5025,6.499,6.4702,6.4753,6.4865,6.4746,6.4764,6.4888,6.5044,6.5177,6.5242,6.5337,6.536,6.5413,6.5413,6.5413,6.5528,6.5987,6.7018,6.7821,6.8547,6.9616,7.0342,7.0877,7.1374,7.1871,7.2138,7.2788,7.2788,7.252,7.1947,7.1489,7.0916,7.0402,7.0402,7.0402,7.0402,7.0402,7.0648,7.0724,7.1068,7.103,7.1221,7.2024,7.3208,7.3951,7.4465,7.5068,7.5573,7.5794,7.597,7.6167,7.634,7.6482,7.6903,7.709,7.724,7.7468,7.7461,7.7038,7.6779,7.671,7.6806,7.7,7.7215,7.7448,7.7894,7.8271,7.8096,7.7832,7.7905,5.5052,5.5582,5.5681,5.6117,5.6581,5.5951,5.5875,5.6215,5.5685,5.5813,5.6577,5.7364,5.7944,5.8383,5.9033,5.9671,6.0153,6.0477,6.0944,6.1516,6.1767,6.2297,6.2863,6.3454,6.3997,6.4504,6.5192,6.5627,6.5736,6.6279,6.6605,6.6822,6.6822,6.6822,6.6822,6.6786,6.6388,6.5772,6.57,6.5156,6.4634,6.4639,6.4339,6.3951,6.4179,6.414,6.4025,6.4171,6.4374,6.4538,6.4615,6.4797,6.4972,6.5111,6.5194,6.529,6.5368,6.5398,6.5413,6.5413,6.5834,6.6445,6.7362,6.8126,6.9043,6.996,7.0763,7.1298,7.1871,7.2635,7.317,7.3437,7.3055,7.2635,7.2062,7.1298,7.0686,7.0402,7.0402,7.0402,7.0402,7.0441,7.0763,7.1107,7.1603,7.1756,7.1718,7.2444,7.3705,7.4427,7.492,7.5212,7.5692,7.5864,7.6062,7.6263,7.6424,7.651,7.666,7.6859,7.6901,7.6951,7.6875,7.6682,7.671,7.669,7.6708,7.6717,7.6932,7.7059,7.6934,7.7079,7.6905,7.6924,7.7144,5.6117,5.6349,5.6349,5.6448,5.6581,5.5918,5.5771,5.5936,5.5698,5.5754,5.6235,5.6781,5.715,5.7721,5.8403,5.9144,5.9713,6.0472,6.0944,6.153,6.1587,6.1901,6.2393,6.2947,6.3309,6.3744,6.4396,6.512,6.5627,6.5989,6.6388,6.6641,6.6822,6.6822,6.6641,6.6388,6.5808,6.5518,6.5084,6.446,6.3764,6.3803,6.3636,6.2933,6.3382,6.3598,6.3511,6.3808,6.4104,6.4403,6.4521,6.4745,6.4906,6.5027,6.5144,6.5242,6.5337,6.5352,6.5589,6.5834,6.6369,6.6904,6.7515,6.8356,6.9158,7.0533,7.1259,7.1909,7.2711,7.3476,7.3934,7.3399,7.2979,7.2597,7.1985,7.103,7.0402,7.0402,7.0402,7.0402,7.0402,7.0916,7.1259,7.1947,7.2482,7.2979,7.3017,7.317,7.4163,7.4882,7.5408,7.5523,7.5803,7.5981,7.6185,7.635,7.6477,7.6581,7.663,7.6679,7.6671,7.6623,7.6672,7.6701,7.6681,7.6708,7.6678,7.6687,7.6687,7.6708,7.6699,7.669,7.6758,7.6769,7.6807,5.6084,5.6316,5.6316,5.6481,5.6547,5.5918,5.5501,5.5265,5.5232,5.5314,5.5484,5.5823,5.6359,5.6955,5.7669,5.837,5.9027,5.9795,6.0517,6.1142,6.1515,6.1792,6.2176,6.2512,6.2657,6.3019,6.3563,6.4287,6.4685,6.5301,6.6025,6.6641,6.6786,6.6569,6.6315,6.5881,6.5446,6.5048,6.4396,6.3599,6.3102,6.2939,6.2944,6.2735,6.2953,6.3279,6.3451,6.3698,6.4,6.4264,6.4462,6.4634,6.4799,6.4941,6.5061,6.5194,6.5321,6.5352,6.5551,6.6216,6.6674,6.7209,6.7897,6.8852,6.9846,7.1068,7.1947,7.275,7.3628,7.4201,7.4431,7.3743,7.2941,7.2597,7.168,7.0763,7.0402,7.0402,7.0402,7.0402,7.0877,7.1374,7.2024,7.2788,7.3476,7.3972,7.4393,7.4507,7.4545,7.5145,7.5649,7.574,7.5879,7.6066,7.6263,7.6409,7.6531,7.6682,7.6682,7.6633,7.6652,7.6681,7.6681,7.6681,7.6699,7.6678,7.6678,7.6687,7.6687,7.6687,7.6678,7.6678,7.6678,7.669,7.6652,5.4986,5.5582,5.5615,5.6084,5.6514,5.6017,5.5111,5.414,5.4251,5.4262,5.4185,5.4936,5.5501,5.6185,5.6941,5.7631,5.8295,5.9051,5.9822,6.0482,6.1091,6.1568,6.1923,6.2114,6.2223,6.2367,6.2766,6.3345,6.3454,6.4903,6.5989,6.6641,6.6822,6.6424,6.5953,6.5482,6.5011,6.4323,6.3563,6.2875,6.2459,6.242,6.2516,6.2552,6.2855,6.3208,6.3405,6.3654,6.3937,6.4166,6.4364,6.4501,6.467,6.4835,6.4993,6.5199,6.5321,6.5368,6.5566,6.6254,6.7247,6.7935,6.889,7.0113,7.1107,7.1833,7.2711,7.3476,7.424,7.4775,7.5098,7.4049,7.3017,7.2253,7.1336,7.0784,7.0479,7.0402,7.0402,7.0686,7.1374,7.2024,7.2902,7.3667,7.424,7.4545,7.4889,7.5042,7.5115,7.5238,7.5644,7.5787,7.5952,7.6185,7.6338,7.6477,7.6573,7.6671,7.6699,7.669,7.6669,7.6678,7.6708,7.6708,7.6678,7.6687,7.6687,7.6687,7.6687,7.6687,7.6687,7.6687,7.6687,7.6678,7.669,5.6183,5.6382,5.6382,5.6514,5.6647,5.6481,5.578,5.4809,5.4347,5.4294,5.4767,5.4424,5.4881,5.5379,5.614,5.6851,5.7534,5.8326,5.9387,6.0103,6.0688,6.1287,6.1715,6.2041,6.2041,6.2078,6.2331,6.273,6.3454,6.4794,6.5953,6.6677,6.6786,6.6279,6.5627,6.5048,6.4323,6.3599,6.2802,6.2404,6.2169,6.2248,6.2381,6.2526,6.2805,6.3099,6.3312,6.3519,6.3786,6.4,6.4244,6.4385,6.4634,6.4707,6.485,6.5182,6.5312,6.5375,6.5627,6.6751,6.7897,6.8929,7.0113,7.0916,7.1871,7.2711,7.359,7.4201,7.4736,7.5195,7.5021,7.4087,7.3246,7.2482,7.1489,7.0632,7.0402,7.0402,7.0441,7.1107,7.1794,7.2788,7.3667,7.4431,7.4927,7.5119,7.5271,7.5442,7.5514,7.5599,7.5692,7.5818,7.601,7.625,7.6397,7.656,7.6614,7.6681,7.6669,7.6687,7.6678,7.6678,7.6687,7.6687,7.6687,7.6687,7.6687,7.6687,7.6687,7.6687,7.6687,7.6687,7.6687,7.6678,7.669,5.668,5.668,5.668,5.668,5.668,5.668,5.6378,5.588,5.518,5.5135,5.5416,5.48,5.4815,5.5417,5.5719,5.6089,5.6686,5.7488,5.8552,5.965,6.0256,6.1107,6.1678,6.2005,6.2041,6.2041,6.2078,6.2295,6.3128,6.4287,6.5518,6.6243,6.6533,6.6062,6.5301,6.4613,6.378,6.2983,6.2331,6.2078,6.2087,6.2185,6.2291,6.2449,6.2755,6.2978,6.3231,6.3465,6.3654,6.3873,6.4104,6.4344,6.4577,6.4725,6.4886,6.5199,6.528,6.5604,6.6124,6.7553,6.8661,6.9922,7.145,7.2482,7.2902,7.359,7.4201,7.4775,7.5157,7.5403,7.4792,7.4125,7.3552,7.2941,7.1756,7.0517,7.0402,7.0402,7.0877,7.1527,7.2406,7.3437,7.4316,7.5098,7.5518,7.5442,7.5403,7.5442,7.5532,7.5633,7.5724,7.5864,7.6079,7.6301,7.6444,7.6602,7.6633,7.669,7.6669,7.6687,7.6687,7.6687,7.6687,7.6687,7.6687,7.6687,7.6687,7.6687,7.6687,7.6687,7.6687,7.6687,7.6687,7.6687,7.6681,5.668,5.668,5.668,5.668,5.668,5.668,5.6877,5.7222,5.6486,5.6248,5.6133,5.5518,5.547,5.5838,5.5684,5.5634,5.6146,5.6779,5.7769,5.9114,5.9824,6.0683,6.1489,6.1942,6.2005,6.2041,6.2078,6.2223,6.2621,6.378,6.5011,6.5591,6.6424,6.6098,6.4758,6.4504,6.3708,6.244,6.215,6.2005,6.2033,6.2105,6.2238,6.2407,6.2629,6.288,6.3147,6.3405,6.3654,6.3851,6.4021,6.4264,6.4577,6.4835,6.501,6.5128,6.5248,6.5763,6.6628,6.8034,6.9387,7.0877,7.2711,7.3667,7.4125,7.4316,7.4813,7.508,7.5442,7.5518,7.5059,7.3972,7.3208,7.2597,7.1642,7.0724,7.0402,7.0555,7.1068,7.1756,7.2597,7.3667,7.4813,7.5518,7.5518,7.5518,7.5518,7.5518,7.5532,7.5633,7.574,7.5855,7.6106,7.6338,7.6499,7.6642,7.6652,7.6699,7.6678,7.6687,7.6687,7.6687,7.6687,7.6687,7.6687,7.6687,7.6687,7.6687,7.6687,7.6687,7.6687,7.6687,7.6687,7.6726,7.6671,5.668,5.668,5.668,5.668,5.668,5.668,5.6911,5.7289,5.7122,5.7027,5.6917,5.6338,5.6021,5.6182,5.5931,5.5849,5.6034,5.6283,5.7077,5.8187,5.9149,6.0178,6.1082,6.1652,6.1933,6.2041,6.2114,6.2295,6.2802,6.378,6.4758,6.5555,6.6279,6.5881,6.4504,6.4359,6.3635,6.215,6.2041,6.2041,6.2005,6.2114,6.2212,6.2318,6.25,6.278,6.3002,6.3194,6.3542,6.383,6.3915,6.4166,6.4577,6.4799,6.4958,6.5061,6.5199,6.5814,6.6962,6.8438,6.9922,7.1489,7.3093,7.4201,7.4927,7.508,7.5233,7.5403,7.5518,7.5518,7.5136,7.3934,7.2902,7.2253,7.1527,7.0954,7.0402,7.0801,7.1221,7.2024,7.2826,7.3858,7.5021,7.5518,7.5518,7.5518,7.5518,7.5518,7.5532,7.5633,7.5756,7.5885,7.6133,7.6362,7.6521,7.6662,7.6681,7.6708,7.6678,7.6687,7.6687,7.6687,7.6687,7.6687,7.6687,7.6687,7.6687,7.6687,7.6687,7.6687,7.6687,7.6687,7.6764,7.6803,7.6701,5.668,5.668,5.668,5.668,5.668,5.668,5.6949,5.7252,5.7327,5.7499,5.7668,5.709,5.6811,5.6808,5.6453,5.637,5.631,5.6014,5.6934,5.7864,5.8592,5.9592,6.0485,6.129,6.1652,6.1833,6.1978,6.2331,6.2802,6.3454,6.4215,6.5084,6.5736,6.57,6.4504,6.4251,6.3635,6.2087,6.2041,6.2041,6.2041,6.2087,6.2168,6.2248,6.2397,6.2654,6.288,6.3099,6.3428,6.3851,6.4063,6.4324,6.4615,6.4781,6.4924,6.5027,6.528,6.5895,6.7387,6.8919,7.0572,7.2291,7.3858,7.5157,7.5233,7.5348,7.5348,7.5518,7.5518,7.5518,7.5059,7.4049,7.3284,7.2597,7.1489,7.0593,7.0402,7.0555,7.145,7.252,7.3208,7.3781,7.4813,7.5518,7.5518,7.5518,7.5518,7.5518,7.5532,7.5633,7.5756,7.5938,7.616,7.6374,7.6542,7.6633,7.6699,7.6678,7.6687,7.6687,7.6687,7.6687,7.6687,7.6687,7.6687,7.6687,7.6687,7.6687,7.6687,7.6687,7.6687,7.6687,7.6803,7.7028,7.7224,5.668,5.668,5.668,5.668,5.668,5.668,5.6911,5.7252,5.7327,5.7735,5.8318,5.7738,5.7911,5.7721,5.7181,5.7122,5.6894,5.6509,5.7084,5.7684,5.7999,5.9123,6.0052,6.0819,6.1362,6.1761,6.2005,6.2014,6.2159,6.2947,6.3708,6.4323,6.4794,6.512,6.4541,6.4215,6.3635,6.244,6.2041,6.2041,6.2041,6.2041,6.206,6.2195,6.2318,6.2537,6.278,6.3051,6.3419,6.3845,6.4264,6.4481,6.4634,6.4781,6.4888,6.4993,6.5149,6.6412,6.8133,6.9551,7.151,7.3361,7.4775,7.548,7.5518,7.5518,7.5518,7.5518,7.5518,7.5365,7.4907,7.4163,7.3437,7.2673,7.145,7.0402,7.0402,7.0441,7.1527,7.275,7.3361,7.3858,7.466,7.5365,7.5518,7.5518,7.5518,7.5518,7.5514,7.5649,7.5756,7.5967,7.6186,7.6397,7.6553,7.6643,7.6678,7.6678,7.6687,7.6687,7.6687,7.6687,7.6687,7.6687,7.6687,7.6687,7.6687,7.6687,7.6687,7.6687,7.6687,7.6764,7.7231,7.7494,7.798,5.668,5.668,5.668,5.668,5.668,5.668,5.6949,5.7252,5.7327,5.7735,5.828,5.8424,5.8393,5.837,5.8194,5.8055,5.783,5.7246,5.7326,5.7882,5.7999,5.8798,5.9789,6.0747,6.129,6.1688,6.2041,6.2041,6.205,6.273,6.3237,6.3563,6.5011,6.4867,6.3744,6.3635,6.3671,6.2512,6.2041,6.2041,6.2041,6.2041,6.2041,6.2114,6.2275,6.2449,6.2679,6.3002,6.3396,6.3845,6.4284,6.452,6.4671,6.4763,6.4888,6.4958,6.5116,6.6379,6.8024,6.9628,7.151,7.3323,7.4545,7.548,7.5518,7.5518,7.5518,7.5518,7.5518,7.5518,7.5021,7.3819,7.2979,7.2329,7.1374,7.0708,7.0402,7.0648,7.1221,7.2253,7.3093,7.401,7.5136,7.5518,7.5518,7.5518,7.5518,7.5518,7.5535,7.5633,7.5756,7.5981,7.6199,7.6409,7.6591,7.6662,7.6678,7.6687,7.6687,7.6687,7.6687,7.6687,7.6687,7.6687,7.6687,7.6687,7.6687,7.6687,7.6687,7.6687,7.6687,7.6842,7.7386,7.8115,7.8757]}]]